GFSGBSN_sfc_dewp_003.txt.gz
Dewpoint
55 55 56 56 57 57 55 55 55 54 54 54 53 53 54 55 55 54 53 53 53 53 53 52 53 53 53 49 38 29 61 58 50 40 38 36 30 21 18 16 11 8 8 7 6 7 13
55 56 56 56 56 55 55 55 54 54 53 53 53 54 55 55 55 53 53 53 53 52 52 52 52 53 51 38 31 28 28 43 35 37 36 32 23 20 17 10 10 13 9 6 6 13 16
54 56 56 56 55 55 55 54 54 54 53 54 54 54 55 56 55 53 53 53 52 52 52 52 52 52 49 44 29 25 26 23 23 26 25 26 23 21 19 18 18 14 10 11 14 18 17
55 55 55 55 56 54 54 54 54 54 54 54 56 56 56 56 53 53 53 53 52 52 52 52 52 51 43 36 26 21 22 21 22 23 24 25 24 24 25 17 14 13 17 14 17 20 20
55 55 55 55 56 54 54 54 54 53 54 54 55 55 55 55 54 53 52 52 52 52 52 52 51 52 39 36 27 24 23 22 25 27 25 19 25 26 17 15 15 18 13 18 17 20 22
54 55 54 54 56 55 54 55 54 54 55 55 55 55 55 55 54 54 53 53 54 52 52 51 49 43 43 25 26 23 23 25 30 29 28 27 25 21 20 19 17 17 16 18 19 17 14
54 54 53 54 55 54 54 54 54 55 55 55 55 55 54 54 54 54 52 51 46 42 49 37 35 37 19 19 22 22 25 25 28 29 26 27 25 23 23 22 19 17 15 19 19 19 21
54 54 52 54 55 54 54 55 55 55 54 55 55 54 54 54 54 54 52 52 46 45 34 38 27 27 29 23 23 22 26 29 29 25 25 21 23 23 23 25 23 18 20 24 20 20 18
54 53 52 54 54 54 54 54 54 54 54 54 54 55 54 54 54 52 52 51 51 51 32 32 29 27 30 29 28 25 27 28 23 22 27 25 25 24 23 27 25 24 25 24 24 22 20
54 52 52 53 54 54 54 54 53 54 54 54 54 54 54 54 50 55 52 50 53 55 28 23 26 28 28 29 29 25 28 28 27 26 27 24 27 27 25 26 26 27 30 27 24 23 18
53 51 52 54 54 53 53 53 53 53 54 54 53 54 53 54 52 51 50 53 53 51 24 26 27 31 27 30 27 29 31 31 27 23 28 28 28 29 28 27 27 30 33 29 28 25 23
52 51 53 53 54 53 53 53 53 53 54 54 54 54 53 51 53 55 58 58 47 38 28 28 26 29 25 28 29 27 29 34 34 27 27 27 30 29 28 29 29 28 31 31 30 28 25
51 51 53 53 53 53 53 52 52 53 53 54 55 54 53 55 54 59 60 49 37 30 29 23 26 28 27 29 27 29 31 30 30 27 28 27 29 30 30 30 32 30 30 28 26 26 25
51 52 52 52 53 52 52 52 52 52 53 54 55 55 57 61 62 61 56 43 29 30 25 24 26 28 27 29 29 32 30 28 29 32 30 27 28 28 30 29 28 30 29 27 24 23 25
52 52 52 52 52 52 52 52 52 52 52 54 54 59 60 60 62 59 49 37 36 29 23 24 26 27 27 30 31 30 29 27 28 29 29 32 28 30 27 28 30 32 26 26 29 29 25
52 52 51 52 52 52 51 51 52 52 52 53 55 55 54 60 61 55 46 41 36 28 26 25 25 28 26 25 28 29 30 32 32 32 30 28 28 27 27 31 32 28 27 28 29 21 19
52 52 51 51 52 52 50 51 51 52 52 54 55 43 55 59 56 45 40 41 32 32 35 32 30 28 30 27 28 30 31 33 33 32 31 33 34 28 30 29 29 30 30 29 27 28 23
51 51 50 51 52 50 51 50 51 51 51 52 52 41 57 57 38 42 40 42 34 34 36 35 36 32 33 31 33 34 35 35 36 38 31 32 32 27 27 30 30 29 30 31 26 27 28
51 51 50 51 51 50 51 50 50 51 51 55 47 50 55 56 35 38 43 37 34 32 34 35 35 36 35 36 32 37 38 41 41 38 37 36 31 27 29 32 31 28 28 34 36 28 23
51 51 50 50 49 48 50 50 50 51 50 52 51 40 47 48 48 44 39 37 36 38 37 36 35 37 36 35 37 38 38 41 40 37 42 41 33 27 26 25 26 24 25 27 33 27 28
51 50 50 50 48 48 49 50 50 50 50 52 50 44 39 36 40 42 40 37 36 36 38 37 36 36 35 33 35 37 38 38 40 39 39 37 32 34 31 28 27 25 24 24 23 26 25
51 50 50 51 48 49 50 50 49 50 49 52 50 46 43 40 37 40 39 35 36 35 35 35 34 36 38 34 36 35 36 36 37 37 38 42 34 30 28 32 31 28 28 27 25 25 24
51 50 50 51 50 51 50 50 49 50 51 52 51 50 49 45 40 40 39 38 38 39 38 38 38 39 37 40 41 40 39 39 40 37 39 36 31 30 28 34 32 25 28 31 28 29 28
50 50 50 51 51 51 50 50 49 50 51 57 55 53 45 38 43 41 41 41 38 36 36 41 42 38 42 40 35 36 35 36 39 42 39 34 33 30 24 27 17 32 31 31 31 31 33
50 50 51 51 51 51 50 50 49 49 50 55 55 55 48 37 45 41 39 39 42 44 42 41 41 41 43 43 34 28 29 25 31 41 41 40 31 25 26 24 26 29 31 31 30 31 39
50 51 51 51 50 50 50 50 50 49 50 55 55 56 52 43 42 43 39 41 40 41 41 43 46 47 48 36 31 27 27 28 29 34 38 40 33 30 24 21 15 28 34 36 35 28 41
50 51 51 51 50 50 50 50 50 49 50 54 55 56 55 46 46 46 42 42 45 43 41 43 42 42 46 36 32 32 28 33 29 28 27 28 27 24 28 17 26 34 35 36 27 28 42
50 50 50 50 51 50 50 49 50 50 49 53 55 55 55 47 47 50 49 42 44 45 38 43 39 41 36 33 33 32 30 31 30 34 32 29 27 29 28 24 21 36 35 29 36 41 42
50 50 50 50 50 50 50 49 50 50 49 51 55 55 57 52 50 52 51 50 47 47 46 44 38 45 43 37 36 37 32 34 30 25 35 29 34 31 31 29 34 38 37 44 44 42 41

GFSGBSN_sfc_dewp_006.txt.gz
Dewpoint
57 56 56 56 57 57 56 55 55 55 54 54 53 53 53 54 54 55 53 53 53 52 52 51 52 52 52 49 39 34 58 60 56 43 39 34 33 27 19 17 11 8 7 5 7 14 10
56 56 56 57 57 56 55 55 54 54 53 53 53 53 53 54 55 55 53 53 52 52 51 51 51 53 49 37 36 31 41 47 38 36 36 36 31 25 21 18 10 11 7 5 5 14 15
56 56 56 56 56 56 55 55 54 54 53 53 53 53 53 54 56 55 53 52 52 52 50 51 51 51 50 43 38 35 27 29 34 36 33 27 32 24 25 16 15 11 6 9 9 16 15
56 56 56 56 55 55 54 54 54 54 53 53 53 54 55 55 54 52 52 52 52 51 50 51 51 51 42 40 37 24 22 21 24 26 27 29 28 28 19 18 15 12 15 10 16 19 20
56 56 56 56 55 55 54 54 54 54 53 53 55 55 55 55 54 53 52 52 51 51 51 51 50 51 33 43 25 21 24 23 26 26 27 19 26 21 19 14 13 17 10 17 17 19 19
55 56 56 55 54 54 54 54 54 53 53 55 55 55 54 54 54 53 52 51 53 52 52 51 50 44 42 36 25 22 23 26 30 29 27 23 27 21 22 17 10 13 16 17 16 18 21
56 56 55 54 54 54 54 54 54 54 55 55 55 54 54 54 54 54 52 49 43 40 48 30 34 38 31 28 23 22 24 24 29 26 25 27 23 20 20 21 19 19 19 18 18 18 16
55 55 55 53 55 55 54 54 55 54 54 54 54 54 54 54 54 54 50 50 46 43 35 41 42 37 30 23 25 22 28 27 30 24 27 24 23 23 23 27 26 25 23 22 21 21 16
55 54 54 53 55 55 54 54 54 54 54 54 54 54 53 54 54 51 48 47 50 51 36 29 30 27 29 30 26 24 28 30 26 24 26 24 23 26 27 27 26 28 25 24 23 23 19
54 53 52 53 54 54 54 53 53 54 53 53 53 53 53 53 49 51 47 46 49 47 25 22 26 26 27 30 28 25 27 28 27 26 25 23 28 28 28 26 28 28 30 27 24 21 12
53 53 51 53 53 53 53 53 53 53 53 53 53 53 53 53 49 51 49 55 54 47 18 23 28 30 27 29 28 27 29 32 29 22 28 27 29 29 27 28 29 29 31 28 27 24 23
53 52 51 53 53 53 52 52 52 53 53 53 53 53 53 51 51 52 57 56 43 36 22 27 27 26 25 28 29 26 28 33 33 28 27 27 30 28 28 30 30 30 32 32 30 28 23
52 51 52 52 52 52 52 52 52 52 53 53 53 54 52 55 53 57 57 41 34 26 32 22 25 28 26 28 30 29 30 29 29 26 27 28 29 29 30 30 30 28 31 27 25 24 23
52 51 52 52 52 52 52 52 52 52 52 53 54 53 53 54 61 58 49 38 28 31 26 26 26 29 26 29 30 31 30 27 29 31 28 27 27 27 28 29 27 29 30 26 22 21 23
51 52 52 52 52 52 51 51 52 52 52 53 54 54 58 57 60 53 45 34 34 33 25 25 27 27 28 28 29 28 28 27 29 30 28 29 28 30 28 28 31 31 23 28 27 27 23
52 52 51 52 51 52 50 51 51 52 52 53 52 51 49 57 56 49 43 38 38 32 31 26 25 28 26 25 28 30 31 32 33 31 32 31 26 28 27 32 31 23 27 28 27 19 18
52 52 51 51 51 51 50 51 51 51 52 52 52 38 44 58 47 41 37 39 36 33 36 28 30 26 28 27 28 31 32 33 35 34 31 35 29 27 32 29 28 29 28 29 28 26 21
51 51 50 51 51 51 50 50 51 51 51 51 49 39 53 43 27 40 38 40 35 32 35 35 36 36 30 33 36 36 35 36 39 39 29 34 30 25 27 29 30 29 30 30 24 26 26
51 50 50 51 50 50 50 50 50 50 50 51 45 47 53 41 25 30 41 37 34 33 33 34 35 37 37 34 34 38 37 41 37 36 35 33 28 25 28 32 30 27 29 35 31 26 23
51 50 51 51 48 48 50 50 50 50 50 52 48 38 43 47 43 39 38 36 36 37 36 36 34 36 35 35 39 37 38 40 37 35 41 39 34 26 26 26 27 22 25 32 30 25 25
50 50 51 48 48 48 50 50 50 50 49 49 49 39 37 33 36 41 40 37 36 34 36 35 33 36 34 33 36 37 38 38 37 38 38 36 30 31 28 30 28 26 26 26 25 28 25
50 50 50 48 48 50 50 49 50 50 50 48 46 43 42 33 36 39 39 37 35 36 35 35 34 38 37 34 35 35 36 36 35 36 39 39 29 29 27 34 34 27 27 28 27 25 25
50 50 50 49 50 50 50 50 50 50 50 48 50 49 43 41 35 37 37 36 37 37 37 38 39 38 37 40 40 39 40 41 39 37 36 34 29 26 25 32 30 22 27 30 28 32 28
50 50 50 50 50 50 50 49 49 50 52 56 54 50 42 35 39 37 41 39 37 39 39 41 40 37 41 43 36 33 33 39 41 39 36 33 32 26 20 21 11 29 32 31 35 36 36
49 50 50 50 50 50 50 49 49 49 50 54 53 51 42 33 41 39 40 42 42 43 42 43 43 41 41 37 29 26 27 28 32 39 42 36 27 26 18 21 19 25 30 30 27 35 38
49 50 50 50 49 49 49 49 49 49 50 53 53 54 45 41 39 45 42 41 38 38 39 42 45 47 42 32 28 26 20 23 28 35 37 37 29 25 26 12 8 23 34 35 33 28 39
50 50 50 50 49 49 50 49 50 49 50 54 52 54 50 43 44 44 40 41 43 40 38 41 41 40 39 27 28 30 28 31 28 27 26 26 24 23 23 15 23 28 34 36 26 25 40
50 49 50 50 49 49 49 49 49 49 49 54 52 54 50 45 46 50 48 43 44 42 37 41 38 38 35 27 25 31 30 29 28 31 30 27 25 23 23 18 20 33 34 28 32 39 41
49 49 49 50 50 49 49 49 49 49 49 53 51 55 55 48 48 50 50 50 48 44 45 42 36 41 38 34 35 37 31 33 25 26 34 26 29 28 30 29 32 35 35 39 42 41 41

GFSGBSN_sfc_dewp_009.txt.gz
Dewpoint
57 57 57 56 57 56 56 56 55 54 54 54 53 53 53 53 53 53 54 53 53 52 52 51 51 51 51 48 39 36 61 61 47 40 34 32 32 29 21 19 22 11 7 7 12 8 6
57 57 56 56 56 56 56 55 55 54 54 53 53 52 53 53 53 54 54 52 52 52 51 51 51 51 48 32 33 34 47 45 43 38 36 34 29 31 26 18 9 11 10 5 11 13 10
57 57 56 56 56 56 56 55 54 54 53 53 53 52 52 53 53 54 53 52 52 51 50 50 51 50 49 34 37 39 37 39 39 35 31 36 34 30 22 21 15 10 6 8 8 14 13
57 56 56 56 56 56 55 55 54 54 53 53 53 52 53 53 53 53 52 52 51 51 50 50 51 50 38 39 40 36 23 22 27 36 34 25 31 28 22 17 17 13 13 9 12 18 18
56 56 56 56 56 55 55 55 54 53 53 53 52 53 55 55 54 52 51 51 51 50 50 50 49 50 32 40 28 25 22 21 27 27 28 21 26 21 19 13 12 15 10 15 15 18 18
56 56 56 56 56 55 55 55 53 53 53 53 54 55 54 54 54 52 51 51 51 51 51 51 50 41 38 28 27 23 23 25 29 32 26 26 26 21 21 10 3 10 14 22 13 16 19
56 56 56 56 56 54 55 54 53 53 54 55 55 55 54 54 54 53 51 49 42 41 48 28 31 38 36 36 22 21 23 26 28 27 24 27 22 18 19 21 19 19 18 15 17 18 25
56 56 56 56 55 54 56 55 54 55 54 54 54 54 54 54 54 54 49 48 44 45 41 41 42 39 38 30 23 22 28 25 25 23 26 23 22 23 27 28 25 23 21 22 22 23 27
55 55 55 55 54 55 56 55 55 54 54 54 53 53 54 54 54 51 46 43 49 47 39 29 37 34 27 26 23 23 28 28 25 24 24 22 23 25 26 27 27 28 25 23 21 25 28
55 54 54 54 53 55 55 55 54 54 54 53 53 53 53 53 48 48 45 46 50 43 25 21 25 22 28 29 25 25 27 26 27 25 24 25 31 28 27 25 27 26 29 26 23 24 23
54 54 53 53 53 54 54 53 53 53 53 53 53 53 53 52 47 51 48 56 52 43 16 22 26 28 25 28 26 23 30 31 25 25 27 28 29 28 26 27 29 29 30 26 26 22 22
54 53 53 52 53 53 53 52 52 52 53 53 53 53 52 51 50 49 56 50 40 34 18 27 27 26 23 27 27 26 31 33 31 28 28 28 30 28 28 30 29 29 30 31 32 27 23
53 53 52 52 53 53 53 52 52 52 52 53 53 53 51 53 51 57 53 39 30 27 30 23 25 27 26 27 29 29 29 29 28 25 27 28 28 29 31 30 31 30 29 25 23 23 23
53 52 51 52 53 53 52 52 52 52 52 53 53 53 52 51 58 55 44 33 27 30 28 26 27 28 26 29 30 30 29 26 29 30 28 26 25 27 27 28 27 29 29 26 20 21 22
52 52 51 52 52 52 52 51 51 52 52 53 53 51 55 57 58 50 42 31 32 32 25 26 28 27 28 29 28 29 29 26 29 30 28 27 27 29 27 28 31 29 24 28 27 26 23
52 51 52 52 52 52 51 51 51 52 52 53 52 49 48 56 50 47 41 37 39 37 30 27 26 28 25 26 28 30 30 32 32 32 32 30 23 28 26 31 30 26 29 26 26 18 18
52 51 52 52 51 51 50 51 51 52 52 53 47 35 39 53 41 37 33 37 41 31 35 27 26 27 27 26 29 31 32 34 37 35 32 34 25 25 30 28 27 28 27 28 28 25 20
51 51 51 51 51 51 51 51 51 51 52 50 44 30 49 39 29 39 35 40 39 31 34 35 35 32 29 34 35 34 34 36 38 38 29 34 29 25 26 29 31 28 29 27 21 24 25
51 51 50 51 50 50 50 50 51 51 52 50 42 48 53 37 27 29 36 40 35 32 32 34 34 36 36 36 33 37 37 39 35 35 33 32 27 25 28 30 29 27 31 32 28 26 26
51 50 51 51 49 50 50 50 50 50 51 50 43 39 42 44 36 29 33 35 34 36 36 35 34 36 35 36 38 36 37 39 36 34 41 38 32 25 24 25 26 21 25 30 27 23 23
50 50 50 49 48 49 49 50 50 50 50 50 45 36 38 34 37 43 38 37 34 32 35 34 33 35 34 33 35 36 38 36 35 39 39 34 27 30 29 30 28 26 24 29 28 27 25
50 50 48 48 48 49 50 50 50 50 50 47 47 39 40 31 34 39 39 37 34 35 34 34 33 38 36 33 33 35 34 33 32 38 39 34 29 28 27 32 32 25 25 25 25 25 28
50 50 48 48 49 50 50 49 50 50 49 45 48 49 40 38 36 36 36 37 36 36 38 38 38 36 34 38 39 40 40 39 38 37 34 31 29 21 17 29 27 17 24 28 27 30 29
50 50 50 50 50 50 50 49 50 50 51 51 52 47 41 34 33 34 39 38 38 36 38 40 39 37 38 39 36 34 34 40 41 40 35 32 28 23 19 19 8 21 29 31 30 35 35
50 50 50 50 50 50 49 49 49 50 51 53 53 47 41 33 38 39 40 41 41 42 41 42 42 41 40 32 30 28 27 27 31 39 38 34 27 26 16 18 17 19 31 34 30 30 36
50 50 50 49 49 49 49 49 49 49 51 52 53 50 43 42 39 42 41 40 36 37 37 40 45 44 38 30 28 20 18 22 27 34 37 33 27 23 24 9 5 17 32 34 32 26 38
49 49 49 50 49 49 49 49 49 49 52 51 52 52 47 41 44 43 39 39 41 39 36 40 40 39 36 26 22 27 27 28 27 27 25 26 22 18 19 12 21 25 33 34 25 23 39
49 49 49 49 50 49 49 49 49 49 50 52 52 53 47 44 46 48 46 43 43 41 37 40 38 37 31 26 23 26 26 29 27 30 30 29 26 21 24 18 18 31 33 29 32 36 39
48 49 49 49 49 50 49 48 49 50 50 52 51 54 52 47 47 49 49 49 47 42 43 41 38 38 37 31 29 32 30 32 26 25 33 26 27 27 27 27 31 32 35 36 39 39 40

GFSGBSN_sfc_dewp_012.txt.gz
Dewpoint
59 58 57 57 57 57 56 56 57 54 54 55 53 53 53 53 53 53 54 54 52 52 52 51 51 51 50 47 40 46 62 61 51 36 32 31 29 27 25 26 20 17 12 10 10 10 9
59 58 56 57 57 56 55 56 56 54 54 53 53 53 53 52 53 53 53 53 52 51 51 50 50 51 47 35 32 46 52 46 41 36 34 31 30 30 28 19 17 18 8 8 13 7 5
58 58 56 56 56 56 56 56 56 55 53 53 53 52 52 53 53 52 54 52 51 51 50 50 50 50 49 36 34 40 43 41 41 37 34 35 32 28 27 24 17 10 4 8 9 14 12
58 58 57 56 56 55 56 55 55 54 54 53 54 52 52 53 52 52 52 52 51 51 50 50 50 50 42 38 41 39 32 24 38 37 33 33 35 31 27 23 18 12 12 9 10 16 18
58 58 57 56 56 55 55 55 55 54 53 53 53 52 52 53 53 52 52 51 51 50 50 50 50 49 33 38 33 27 25 23 26 34 34 28 31 23 17 15 12 14 9 12 14 18 17
58 57 57 56 56 56 55 55 55 53 53 53 53 53 54 54 54 52 51 51 50 51 50 50 50 41 34 25 32 22 23 26 29 30 30 27 25 20 20 9 8 8 11 21 12 22 25
57 57 56 56 56 56 55 55 55 53 53 53 54 55 54 54 54 52 50 49 43 42 48 28 30 31 34 32 30 21 22 26 28 27 24 26 21 18 19 18 12 15 14 14 16 21 32
57 56 56 56 56 56 55 55 55 53 54 55 54 54 54 54 54 52 50 47 41 43 41 43 41 39 39 36 26 21 28 25 25 23 26 23 21 23 27 27 24 22 20 20 23 28 33
56 55 56 56 56 55 55 55 55 55 54 54 54 54 54 54 54 52 49 43 48 46 39 32 39 36 32 31 23 22 27 28 24 22 23 22 23 27 28 27 26 27 22 22 22 31 32
55 55 55 55 55 55 54 55 55 55 54 53 53 53 53 53 50 48 44 43 51 43 24 23 24 23 27 27 24 25 27 26 27 23 26 28 30 27 25 25 27 24 28 25 27 26 25
55 54 54 54 54 54 53 54 54 54 53 53 53 53 53 51 46 51 48 56 52 39 16 21 24 27 25 27 22 24 33 28 25 26 27 28 28 27 25 26 28 28 29 26 24 23 22
55 54 54 54 53 52 52 53 53 53 53 53 53 53 52 51 49 48 53 45 38 33 18 24 26 23 24 27 27 28 31 32 30 29 29 28 30 28 27 30 28 30 30 30 30 27 21
54 54 54 53 53 52 53 53 53 52 52 53 53 53 52 51 50 56 50 36 29 26 29 23 23 25 25 27 29 29 29 29 26 25 27 27 28 28 30 28 30 31 27 24 23 22 22
54 53 53 53 52 52 52 53 52 52 52 53 53 53 52 51 54 53 39 30 25 29 27 25 26 26 26 29 29 29 27 26 28 28 27 26 23 26 27 28 26 28 28 25 19 21 23
54 53 52 52 52 52 52 52 52 52 52 52 52 51 52 56 53 48 35 26 28 30 27 26 27 25 27 28 28 29 28 26 29 29 27 26 25 28 27 28 30 28 24 28 27 25 23
54 52 52 51 51 52 52 52 51 52 52 53 51 51 49 55 51 44 36 32 37 38 30 28 24 27 25 27 28 28 29 32 31 33 32 30 22 28 26 31 30 27 29 24 25 17 17
53 52 51 51 51 52 52 52 51 52 52 53 43 37 40 51 40 35 29 33 40 40 34 27 27 27 27 26 29 30 30 34 36 35 34 30 25 24 29 27 27 28 27 28 27 24 18
52 51 51 51 51 51 51 50 51 52 52 52 39 31 46 39 30 36 32 39 41 31 35 35 32 30 28 34 33 33 32 33 36 37 29 33 29 25 25 29 32 28 28 25 20 19 24
51 50 50 51 51 51 50 51 51 51 52 49 41 48 52 38 26 28 33 38 38 31 33 33 33 35 37 35 32 35 36 37 33 34 31 30 27 25 25 26 27 27 32 29 27 27 25
50 50 50 51 51 50 51 50 51 51 52 48 44 41 43 40 36 29 30 32 33 36 35 34 35 36 36 36 37 35 36 37 35 36 42 36 30 24 22 23 26 23 28 28 25 22 23
50 50 50 51 50 49 50 50 51 51 51 50 41 39 41 35 37 33 32 35 33 33 34 34 33 34 34 33 34 35 36 34 35 40 39 31 26 28 30 30 28 25 23 29 25 25 22
50 50 50 49 49 48 49 50 50 50 50 47 45 37 35 35 41 39 37 35 33 34 34 32 32 37 34 32 32 34 34 31 27 39 36 32 26 26 28 31 30 26 24 25 27 26 28
50 49 49 49 48 48 50 50 50 50 49 45 48 46 37 36 36 37 37 37 36 36 38 38 36 35 33 37 39 39 38 37 37 36 32 27 27 20 13 27 23 16 22 24 25 26 26
50 48 48 48 49 50 50 50 50 50 49 48 49 46 39 30 32 35 38 38 37 35 36 39 38 35 38 40 37 34 35 39 40 39 34 29 26 21 18 18 6 19 27 28 28 30 32
50 48 48 50 50 50 49 49 50 50 50 52 51 45 40 30 33 36 39 40 41 42 40 41 43 40 38 32 31 29 28 27 30 38 34 30 25 23 16 17 16 16 30 32 29 26 35
50 50 50 50 49 49 49 49 49 50 50 52 52 48 44 38 36 39 40 39 35 36 35 39 45 41 35 29 26 22 22 24 25 32 36 31 26 22 18 9 5 18 27 33 30 26 36
49 49 49 49 49 49 49 49 49 50 51 52 51 50 46 42 44 41 38 38 39 37 36 39 39 37 34 25 21 22 21 26 24 26 25 27 25 16 19 11 19 23 32 33 25 25 37
49 49 49 49 49 49 49 49 49 50 51 52 52 52 46 44 45 47 45 41 42 40 36 40 37 36 30 25 23 25 22 28 27 28 30 29 25 20 21 14 14 28 32 28 32 33 37
48 48 49 49 49 47 47 48 49 50 51 53 52 54 51 47 46 48 48 48 46 41 42 40 37 37 36 30 24 30 30 31 24 24 32 26 26 25 24 24 27 31 33 34 36 34 38

GFSGBSN_sfc_dewp_015.txt.gz
Dewpoint
60 59 59 58 57 57 57 57 57 56 55 53 54 53 53 53 53 53 52 54 53 52 52 51 51 50 50 46 41 47 61 60 53 36 32 31 29 29 28 28 24 21 19 12 10 23 24
59 59 59 58 56 56 57 57 56 56 56 53 54 53 53 52 53 52 53 52 53 52 52 51 50 50 47 35 34 52 54 50 42 34 33 31 28 28 27 23 23 22 9 9 12 11 9
60 59 58 57 56 56 57 56 56 56 56 53 53 53 53 52 52 52 52 52 52 52 51 50 49 49 49 39 34 50 44 43 40 35 34 34 32 30 30 23 18 11 9 10 14 11 10
59 59 58 57 56 56 56 56 56 56 55 54 53 53 52 52 52 52 52 52 52 51 50 49 50 49 44 41 43 40 38 34 40 37 34 36 34 31 29 22 19 12 16 10 11 17 17
59 59 58 57 56 56 55 55 55 55 55 54 53 53 53 52 52 52 52 52 52 50 49 50 49 49 39 39 32 31 28 27 36 37 37 34 35 32 19 17 15 18 11 13 14 23 17
59 58 58 57 56 56 56 55 55 55 54 53 52 52 52 52 53 52 50 51 50 50 49 49 50 44 36 26 34 25 26 30 36 34 31 30 26 23 19 14 10 13 12 13 15 21 30
59 58 58 57 57 56 56 56 55 54 54 53 53 52 54 54 54 52 50 48 44 44 49 35 34 32 30 34 30 23 26 30 32 31 28 28 23 19 21 17 12 14 14 13 19 29 35
55 58 57 57 56 56 56 56 55 54 53 53 53 54 54 54 54 51 50 47 40 44 43 44 42 40 39 37 29 22 31 29 34 25 26 26 24 24 27 27 23 22 22 24 28 32 35
53 56 57 57 56 56 56 55 55 54 55 54 54 54 54 54 53 50 48 48 47 48 43 36 42 38 33 34 27 21 31 31 24 24 25 26 24 28 28 27 28 27 24 23 27 33 34
53 53 56 56 56 56 55 55 54 55 55 54 53 53 53 53 50 50 47 48 49 49 29 26 26 26 28 28 29 26 30 29 28 25 30 30 30 27 26 26 27 26 27 29 31 28 25
53 52 55 55 55 55 54 54 54 55 54 53 53 53 53 52 49 47 48 57 50 43 24 25 25 27 28 25 25 27 34 30 27 27 28 29 30 27 28 27 30 28 30 28 25 24 24
52 52 55 55 54 54 54 53 53 53 53 53 53 53 53 51 50 50 53 49 44 35 24 25 27 25 27 28 29 30 32 34 32 31 31 29 29 29 28 31 30 33 31 31 30 27 23
52 51 53 54 54 53 53 52 52 53 53 53 53 53 52 51 49 58 53 41 33 30 31 24 25 26 28 30 30 30 30 31 28 29 29 28 28 28 31 29 31 30 29 27 27 28 24
51 51 52 54 53 53 53 52 52 52 52 52 52 52 52 52 53 52 43 34 26 29 29 26 27 28 27 30 30 28 28 28 30 29 28 24 21 25 28 28 28 29 29 30 22 25 24
50 52 52 54 53 53 52 52 52 52 52 52 52 51 51 54 53 51 38 31 27 30 28 26 27 28 30 29 29 30 29 27 29 30 28 29 26 27 28 29 30 28 25 30 28 26 25
49 51 52 53 52 52 51 52 52 52 52 52 50 49 50 56 54 45 37 30 32 36 33 29 25 30 28 28 29 29 29 33 31 34 33 32 26 28 28 30 31 28 29 26 27 22 18
49 51 52 53 52 51 51 52 52 52 52 52 49 46 46 51 44 39 33 30 39 41 36 28 28 29 29 29 30 30 29 34 36 34 34 29 30 28 29 28 28 29 28 29 27 26 19
48 50 51 53 51 51 51 52 52 52 52 52 43 36 48 44 35 36 34 37 41 38 36 36 32 32 31 34 33 32 32 33 36 38 32 32 32 30 25 29 32 29 28 27 26 21 25
49 50 49 52 51 50 51 51 51 51 52 50 39 48 53 43 31 34 34 38 40 34 35 35 36 37 38 36 33 35 36 38 36 35 34 33 31 29 26 26 28 28 31 28 28 30 27
49 50 49 51 50 50 51 50 51 51 52 49 46 43 46 40 36 32 32 34 35 37 37 36 36 38 38 37 38 36 36 37 39 38 42 37 30 29 26 23 27 26 30 27 27 28 25
49 49 50 50 50 51 50 51 51 51 52 49 43 41 45 38 35 32 32 34 34 34 37 36 36 36 36 35 35 36 36 34 37 41 39 33 30 29 30 30 28 25 26 28 24 26 27
49 50 50 50 50 50 50 50 50 51 51 48 40 39 37 38 39 34 34 36 34 35 37 35 35 38 38 35 34 35 35 32 31 39 35 32 30 28 30 30 29 27 26 26 28 28 26
49 49 50 50 49 49 49 50 50 50 51 47 48 44 39 35 39 35 36 35 35 38 40 39 37 37 36 39 39 38 38 38 37 37 33 30 31 25 21 26 23 24 25 25 26 28 29
50 50 50 50 49 49 49 50 50 50 50 48 49 44 39 32 36 34 39 39 37 37 37 40 39 38 40 42 39 37 37 39 38 35 34 30 27 24 27 23 20 22 29 27 27 27 27
49 49 49 48 48 50 50 49 50 50 50 52 51 45 38 33 34 35 39 41 41 42 42 42 43 41 42 36 36 32 32 32 34 34 31 30 29 25 28 21 20 18 23 30 31 25 32
49 48 48 49 50 49 49 49 50 50 50 52 52 48 43 37 35 37 41 40 38 38 39 42 43 41 37 33 32 30 29 28 26 34 35 31 29 30 24 23 19 22 21 35 31 29 32
49 49 50 49 49 49 49 49 49 49 50 52 53 50 47 41 44 42 40 40 40 39 39 40 39 40 36 32 31 30 28 27 24 27 30 32 30 27 21 28 24 24 30 33 27 28 35
49 49 49 49 49 49 49 49 49 49 50 52 52 53 48 45 47 49 44 41 41 42 39 41 40 39 35 33 34 30 33 31 29 29 32 30 29 28 23 23 23 28 33 33 36 36 36
48 48 48 48 47 47 48 49 49 49 49 52 52 53 51 48 47 50 50 50 49 43 43 42 41 39 39 35 32 32 33 32 29 30 32 29 31 31 27 29 31 31 37 36 36 36 37

GFSGBSN_sfc_dewp_018.txt.gz
Dewpoint
61 60 60 59 59 58 58 58 57 57 57 56 54 54 54 54 54 54 53 53 54 54 53 51 51 51 50 43 31 48 60 58 44 32 28 26 25 22 17 21 23 22 19 17 15 28 32
61 60 59 59 59 58 58 57 57 56 56 56 54 54 53 54 53 53 53 53 53 53 52 51 51 51 47 33 31 47 47 42 34 32 31 29 24 25 24 25 23 21 16 11 12 27 28
57 60 59 59 58 58 57 56 57 56 56 56 55 54 54 54 53 53 54 53 53 53 51 50 50 48 47 34 32 45 42 36 34 32 32 31 28 24 26 25 21 16 12 12 12 22 23
57 59 60 59 57 57 56 56 56 56 56 56 55 54 54 53 53 52 53 53 53 51 51 50 50 49 41 37 37 41 38 36 38 34 32 33 34 30 28 22 14 11 13 10 15 18 14
57 57 60 59 57 56 56 56 56 56 56 55 54 54 52 52 52 52 52 52 51 50 49 50 50 49 34 41 30 28 33 27 35 37 35 32 33 30 26 23 12 13 5 8 15 22 16
56 56 59 59 57 56 56 56 55 55 55 55 54 53 53 53 52 53 51 51 50 50 50 49 49 47 39 24 31 28 29 31 30 35 33 32 28 24 19 15 8 10 11 7 10 23 12
55 56 57 59 58 57 57 56 55 55 54 54 53 52 53 54 54 52 50 49 47 46 48 35 29 32 24 30 31 22 22 29 29 30 26 28 21 16 17 15 12 10 11 11 17 30 28
53 53 55 58 58 57 57 57 56 55 54 54 53 53 54 54 54 52 50 45 41 48 39 41 39 37 34 33 27 21 27 26 27 22 24 25 20 23 26 20 17 16 14 20 25 31 30
52 53 54 55 58 57 57 56 55 55 54 54 53 54 54 54 52 50 48 45 48 46 43 37 40 33 31 33 23 17 24 25 22 21 23 21 25 27 25 23 21 22 20 25 21 29 30
51 52 53 53 57 57 56 56 55 55 54 54 54 53 53 52 48 49 46 44 46 50 32 24 26 29 29 29 21 26 30 26 26 23 26 27 28 25 25 25 26 22 25 26 28 24 18
50 52 53 53 55 56 55 55 55 54 54 54 53 53 53 51 50 45 49 54 54 49 22 23 22 26 27 23 21 28 33 28 23 25 29 27 26 25 24 26 28 26 29 28 26 24 25
50 51 52 52 54 55 55 54 54 53 54 54 53 53 53 51 52 51 52 55 51 38 21 21 23 24 25 25 26 29 30 31 31 29 28 28 29 28 28 30 29 31 30 28 27 26 23
49 50 51 52 53 55 54 54 53 53 53 53 53 53 53 51 45 58 60 50 35 30 27 20 21 23 22 23 27 28 28 28 25 26 27 26 27 28 30 29 32 30 26 23 24 25 23
48 49 50 51 52 54 54 53 52 52 53 53 52 53 53 52 53 56 51 36 26 22 22 23 22 25 24 25 28 29 29 26 30 27 24 20 25 24 29 29 25 28 26 24 16 21 18
48 49 50 51 51 54 54 53 52 52 52 52 52 52 50 53 55 54 42 39 27 27 26 23 23 22 25 27 24 28 29 26 29 30 21 24 22 27 29 30 30 28 26 30 28 30 28
48 48 48 50 51 53 53 52 52 52 52 52 50 49 48 55 57 50 42 32 26 33 31 25 19 23 23 25 23 25 29 31 30 33 34 30 26 27 29 30 31 29 29 27 28 23 17
47 47 48 49 51 52 53 52 52 52 52 52 49 43 54 60 55 46 39 32 31 40 37 27 22 24 23 27 25 23 24 32 33 32 33 30 28 29 30 28 26 28 27 26 26 28 16
47 47 47 48 51 52 52 51 51 52 52 51 48 39 56 54 43 39 34 31 40 37 38 32 31 29 28 30 29 27 26 30 36 34 30 32 32 32 28 30 32 29 27 24 22 21 29
46 47 47 48 50 51 52 51 51 51 52 50 42 47 52 47 38 44 35 32 38 33 32 34 31 32 35 34 32 34 34 35 35 34 34 34 32 30 27 29 30 29 29 26 29 32 26
46 46 47 48 49 51 52 51 51 51 51 49 43 46 48 41 38 35 32 32 30 37 34 35 36 38 37 35 37 36 36 35 37 36 41 37 32 30 28 23 27 28 29 27 25 26 21
46 47 47 48 49 51 51 51 51 51 51 50 46 42 43 44 37 35 34 31 29 33 35 36 35 35 34 36 35 36 36 34 37 40 39 35 31 30 27 28 27 25 26 27 23 24 25
46 46 47 48 49 51 50 50 51 51 51 49 43 43 43 39 36 33 33 31 27 34 35 33 35 36 37 37 33 36 35 33 32 38 36 34 33 31 30 30 28 26 25 25 25 24 25
46 46 48 48 48 51 50 50 50 50 51 46 50 45 40 40 35 34 32 31 30 39 40 37 37 38 38 38 40 39 39 37 35 37 37 35 35 29 23 27 27 32 28 24 24 27 27
46 47 48 49 49 50 50 50 50 50 51 47 51 45 43 41 39 33 30 31 37 37 39 39 39 39 41 42 41 40 39 37 36 35 34 34 32 31 32 29 30 17 25 24 24 24 23
46 48 48 51 50 50 49 49 50 50 51 53 53 46 43 42 39 34 33 31 40 41 42 41 42 42 43 40 40 36 40 40 38 34 32 31 33 32 36 24 21 11 19 22 26 19 24
48 49 49 50 49 49 48 49 50 50 51 56 56 52 47 45 41 34 34 40 43 43 43 42 43 43 38 43 41 37 33 30 30 34 35 31 33 34 31 35 32 23 25 34 32 25 27
49 49 49 49 48 48 49 49 50 50 50 55 55 55 48 44 42 42 38 40 43 43 43 42 41 42 38 42 43 41 35 29 26 30 35 36 36 36 32 36 28 24 25 34 24 24 33
48 48 48 49 49 49 49 49 49 49 50 54 56 56 52 48 45 48 44 43 43 44 44 43 41 42 42 44 45 39 41 33 30 28 32 32 34 36 31 35 30 26 33 32 35 37 36
48 49 48 48 48 48 49 49 49 49 50 53 54 55 54 50 49 52 51 50 48 45 45 44 43 42 43 44 43 43 38 36 37 34 32 31 34 34 30 31 29 31 34 36 37 38 38

GFSGBSN_sfc_dewp_021.txt.gz
Dewpoint
58 58 61 60 60 59 59 58 58 57 57 57 57 55 54 54 54 55 54 54 54 54 53 52 51 51 50 44 36 49 60 58 41 38 28 20 22 21 16 15 16 19 18 20 28 29 24
55 57 58 60 59 59 59 58 58 57 57 56 56 56 55 54 53 54 54 53 54 53 52 51 50 51 48 37 29 41 37 36 32 32 24 21 20 18 17 18 20 21 19 16 21 27 34
54 55 57 59 59 59 59 58 57 57 57 56 56 55 54 54 54 53 53 54 53 53 51 50 49 47 45 37 30 40 34 29 29 27 25 26 26 24 24 24 24 19 15 13 17 26 28
55 54 57 57 59 58 58 57 56 57 56 56 56 55 53 54 53 53 52 53 52 51 50 50 50 48 41 35 33 36 38 34 34 32 30 32 31 29 27 26 19 16 17 14 15 24 26
53 55 55 57 58 58 57 56 56 56 56 56 56 55 53 53 53 52 53 52 50 50 49 50 50 48 36 40 28 27 33 29 34 34 32 31 33 30 28 26 16 17 11 15 15 20 23
53 53 54 56 56 58 57 57 56 56 56 55 55 54 53 53 53 53 52 50 51 50 49 48 46 46 43 25 27 25 28 30 32 34 33 31 30 28 25 21 12 12 10 8 13 19 21
51 53 54 55 56 58 58 57 56 55 55 55 55 54 53 53 54 53 50 48 45 46 46 38 34 31 24 27 28 25 24 28 32 32 28 30 24 22 19 21 15 13 12 6 11 17 13
50 51 52 53 55 57 58 58 56 55 55 55 55 53 53 54 54 52 51 42 42 48 42 39 34 31 31 29 24 20 21 26 28 24 25 25 22 21 17 16 13 11 10 14 15 19 22
49 51 51 53 53 55 58 57 56 55 55 54 54 53 54 54 53 51 48 43 46 47 44 34 32 30 26 30 21 19 21 24 24 25 24 24 24 26 20 16 14 15 13 19 17 21 22
49 49 51 52 53 54 56 57 56 55 55 54 54 54 53 52 49 48 45 43 45 47 37 26 29 29 29 28 22 22 21 24 22 22 23 33 28 23 17 18 18 18 23 19 21 22 16
49 49 50 51 52 53 54 56 56 55 55 54 54 54 53 51 53 44 49 52 49 54 29 23 22 28 25 22 19 24 27 24 22 23 23 23 24 21 19 23 25 29 26 25 22 21 22
49 48 49 50 51 52 52 55 55 55 54 53 54 53 53 51 51 51 52 57 55 44 25 21 22 22 24 21 18 22 21 25 27 22 24 35 28 26 26 27 26 27 27 26 24 19 21
48 48 48 50 51 52 52 55 55 54 53 53 53 53 53 51 46 54 58 54 41 32 22 17 19 21 19 18 18 21 21 19 18 21 22 25 23 27 28 26 28 24 24 22 21 23 22
47 48 48 49 50 52 52 54 54 53 53 53 53 53 53 51 51 57 57 45 33 22 20 17 17 18 18 18 18 18 18 16 19 23 21 20 23 24 27 27 22 25 22 23 15 18 18
45 48 48 48 50 51 52 54 54 53 52 53 52 53 51 53 55 56 49 42 32 18 20 19 18 18 20 19 19 19 19 16 20 22 21 20 21 25 26 27 24 23 24 26 25 28 25
43 46 48 48 49 50 51 53 53 52 52 52 49 50 47 54 56 55 45 36 29 26 24 20 18 20 21 21 19 18 22 24 26 30 31 23 22 24 28 28 29 28 26 24 22 19 17
44 44 47 47 49 50 51 53 53 52 52 52 49 44 47 55 54 48 39 35 28 30 30 24 19 19 21 21 20 19 20 27 29 30 31 23 23 28 29 27 21 27 24 24 24 28 22
43 44 46 46 47 49 51 52 53 52 51 50 48 40 55 58 40 43 39 33 30 31 37 29 29 22 22 23 24 21 19 21 30 31 26 27 25 29 25 29 29 28 26 26 28 22 26
42 42 45 46 47 48 50 51 52 51 51 48 46 46 58 53 41 48 38 32 29 32 32 32 26 26 25 24 24 24 24 37 36 34 28 33 26 27 25 28 29 25 24 25 24 31 23
42 41 46 46 46 47 49 51 52 51 51 50 43 43 50 50 43 41 37 31 30 34 31 30 26 30 31 30 31 31 32 35 38 34 40 37 29 27 26 25 25 28 24 24 26 28 26
42 45 47 47 47 48 49 51 52 51 50 49 43 40 43 44 42 42 36 32 28 30 34 34 33 30 29 30 32 32 34 35 37 40 36 36 31 29 26 27 25 23 21 23 22 23 26
44 44 45 46 47 48 49 49 51 51 50 49 41 38 40 42 42 38 36 32 26 29 33 33 31 29 29 31 32 29 34 35 34 38 37 35 33 33 32 28 27 24 22 19 19 20 18
45 45 46 46 47 48 48 48 51 51 50 47 49 45 42 44 42 37 37 31 28 34 40 34 32 33 34 37 40 40 39 37 35 38 38 37 39 32 23 26 27 31 30 24 19 20 22
44 45 46 46 47 48 48 47 50 50 50 47 49 46 44 43 41 36 32 31 29 35 37 37 37 37 42 41 41 40 37 35 35 36 37 39 36 34 30 31 28 15 21 18 21 19 18
44 45 46 47 47 48 47 47 50 50 50 51 52 47 41 47 38 33 30 30 31 39 40 40 42 42 43 40 40 38 40 40 36 32 30 32 35 33 37 23 20 17 15 19 21 19 20
44 46 46 47 47 48 47 50 49 50 50 54 59 54 45 45 41 31 30 30 42 43 44 43 44 44 42 45 43 33 30 30 33 35 33 31 37 34 31 34 31 27 24 30 28 22 24
45 46 47 47 48 48 48 49 49 49 50 54 58 59 42 36 35 35 33 32 36 41 42 44 44 43 42 46 44 39 34 31 29 31 36 36 38 37 33 36 30 23 24 31 23 30 32
45 46 47 47 49 48 49 49 49 49 50 53 57 58 44 38 42 43 37 37 36 39 45 44 42 44 45 44 46 41 42 37 33 29 34 33 35 37 36 36 30 24 29 28 37 34 32
47 47 48 48 48 48 49 49 49 49 50 52 58 56 55 46 50 51 52 51 47 42 43 46 40 43 44 44 46 48 42 39 37 34 31 32 34 36 30 32 31 29 29 30 34 35 35

GFSGBSN_sfc_dewp_024.txt.gz
Dewpoint
55 56 57 58 61 60 60 59 58 58 57 57 57 57 56 54 54 54 55 54 54 54 53 53 52 52 50 45 38 47 61 57 38 35 33 25 19 18 18 16 15 14 18 17 29 31 41
54 54 55 57 58 60 60 59 59 57 57 57 57 56 56 55 54 53 54 54 54 54 53 52 51 51 49 37 30 40 43 42 28 31 29 19 19 19 18 16 14 17 20 17 27 31 27
52 54 54 55 57 58 60 59 58 58 57 57 57 56 56 55 54 52 53 53 54 54 52 51 50 48 44 35 33 36 31 27 29 31 24 22 23 22 22 23 23 23 18 17 19 28 26
53 53 54 55 57 57 58 58 58 58 57 57 57 56 55 54 53 53 52 52 53 52 51 50 50 48 41 36 34 33 34 32 31 28 27 30 31 29 27 29 21 19 20 18 17 25 30
51 52 54 54 55 56 57 58 58 57 57 56 56 56 55 53 52 52 52 53 53 51 51 50 50 49 38 41 31 28 31 32 30 32 33 29 31 31 29 26 21 25 18 17 15 23 28
51 51 53 54 54 56 56 58 58 57 56 56 56 55 54 53 52 53 53 52 52 50 50 47 45 42 43 30 23 25 27 28 32 33 31 31 29 27 27 22 19 20 16 16 14 13 23
51 51 51 53 53 54 56 58 58 56 56 56 56 55 54 53 53 53 51 49 46 47 46 36 34 32 25 25 26 26 25 28 31 32 30 30 27 23 27 26 20 18 18 13 11 16 17
51 51 50 51 53 53 56 56 58 56 56 55 55 55 54 53 54 54 51 46 43 47 43 41 27 32 31 29 24 22 23 27 31 29 34 25 25 25 25 23 20 16 16 12 11 14 16
50 51 50 50 52 52 53 54 56 56 55 55 55 54 53 54 54 51 48 43 44 46 43 33 32 27 29 27 23 20 20 23 28 25 28 29 31 34 24 19 17 16 18 20 13 11 8
49 49 51 50 51 52 52 54 54 56 55 55 54 54 54 53 49 49 46 45 46 50 39 28 28 28 27 27 22 21 19 31 31 25 37 34 31 30 21 20 16 21 27 22 23 19 15
48 48 49 50 50 50 52 53 54 56 55 54 54 53 53 52 53 45 50 47 52 54 32 25 25 26 25 23 18 20 21 27 25 26 32 35 23 22 21 27 27 28 27 27 21 18 29
46 47 48 49 50 50 52 53 53 55 55 54 54 54 53 52 51 51 53 57 55 44 30 22 22 22 20 20 17 18 22 22 31 29 23 24 26 29 31 27 26 29 27 26 20 21 30
43 47 47 48 49 49 51 52 52 54 55 54 53 54 52 50 47 52 55 55 40 32 22 19 19 19 20 18 17 17 21 20 18 22 22 25 20 23 30 20 23 20 20 23 28 30 29
44 47 47 47 49 49 50 51 52 53 54 54 53 53 53 50 51 56 57 50 33 25 24 14 16 18 18 15 16 17 20 17 17 17 18 20 27 21 22 22 34 33 19 28 28 29 24
43 45 47 48 49 49 50 51 52 53 54 53 52 53 51 53 55 56 53 43 33 27 21 20 15 17 17 15 15 17 18 16 15 16 29 32 27 31 25 23 22 21 22 23 28 33 29
43 45 47 46 49 49 49 50 52 53 53 52 49 49 48 54 56 54 50 40 33 28 23 18 15 16 17 16 17 17 16 18 18 26 35 41 36 35 26 25 25 23 21 26 25 24 21
43 45 45 44 46 48 49 50 51 53 53 52 48 44 48 55 55 49 43 40 36 29 25 23 17 16 18 20 16 17 15 16 27 27 28 25 31 26 28 25 16 26 24 21 19 31 31
43 44 45 44 46 48 48 50 51 53 52 50 47 39 53 57 41 38 41 37 35 32 27 29 26 20 20 23 21 18 17 20 24 25 25 25 26 34 22 24 26 25 27 23 37 28 35
43 43 43 44 45 47 48 49 51 52 52 50 42 45 56 53 35 41 41 37 33 31 29 31 28 26 22 23 22 22 22 37 36 31 30 31 29 30 22 25 27 25 23 21 27 38 33
42 42 43 44 44 45 47 47 50 52 52 49 41 42 52 53 38 39 40 35 32 33 27 29 28 26 24 23 24 24 26 36 37 34 41 41 28 25 29 23 27 29 25 21 23 36 34
42 43 43 44 43 43 47 47 49 51 52 50 45 41 46 45 43 40 41 35 31 29 28 30 28 23 28 29 26 29 29 36 37 39 35 34 30 27 24 23 25 27 23 21 20 24 27
42 43 44 44 44 45 46 47 48 51 51 49 42 40 45 41 42 41 41 38 31 27 30 31 31 26 30 30 29 29 29 36 34 38 35 35 36 37 36 29 27 26 24 23 19 18 19
41 43 43 43 45 46 46 46 48 50 51 48 46 49 44 42 41 41 41 38 34 33 33 30 31 31 31 34 37 40 41 39 35 39 38 39 43 38 33 27 27 28 31 24 21 20 21
42 42 44 46 46 46 46 47 49 50 51 47 48 47 45 41 39 40 40 38 32 32 37 34 35 36 41 41 42 40 38 37 38 38 38 43 41 40 37 33 27 19 20 18 19 18 16
43 43 43 45 46 46 47 47 47 48 50 50 55 54 49 43 40 38 39 37 33 33 37 36 43 43 45 42 42 39 44 40 37 32 32 37 41 38 37 30 25 21 19 20 20 20 22
44 45 45 45 46 46 47 46 46 47 47 50 54 55 56 45 43 38 36 37 38 44 43 43 44 47 45 50 48 37 35 32 32 33 30 32 42 42 35 35 31 31 25 27 25 27 27
43 44 45 45 46 46 47 47 47 47 47 48 53 54 55 47 43 41 36 37 38 45 44 44 44 44 45 49 42 44 39 31 34 35 36 39 41 37 36 37 36 26 26 29 28 34 33
43 45 45 46 46 46 46 47 47 46 47 50 49 53 54 50 42 43 39 37 43 45 46 46 44 44 51 46 46 46 44 41 38 31 36 36 38 38 40 35 32 25 28 32 39 40 36
44 45 45 46 46 46 47 47 47 49 49 50 48 52 56 56 50 54 52 50 47 43 49 48 44 44 47 46 47 50 40 39 41 38 29 35 38 41 36 38 36 31 32 32 36 36 37

GFSGBSN_sfc_dewp_027.txt.gz
Dewpoint
54 54 55 56 57 58 60 60 59 58 57 57 57 57 57 56 55 55 53 52 53 54 55 54 53 52 50 47 45 52 59 58 41 35 31 31 31 22 18 18 18 17 16 19 39 43 46
53 54 54 55 55 57 58 60 59 58 57 57 56 56 56 56 56 55 54 52 53 54 54 54 53 52 49 41 43 53 46 42 32 32 34 34 25 21 20 21 23 18 17 22 32 42 43
53 53 53 54 55 56 57 57 59 58 57 57 57 56 56 56 55 54 54 52 52 54 54 53 52 48 46 40 37 39 42 36 28 31 30 31 27 30 29 28 29 24 19 19 25 32 37
53 53 53 54 55 55 56 56 59 59 58 57 57 56 55 55 54 53 53 52 53 54 54 53 52 48 45 44 41 37 32 29 29 31 31 29 34 33 32 29 28 21 21 19 19 30 33
52 52 52 53 54 54 55 56 57 58 58 57 56 56 55 54 53 53 53 53 53 54 53 52 49 48 45 46 36 33 33 34 33 33 35 30 32 33 31 28 26 23 18 20 19 25 27
51 52 52 52 52 54 54 56 56 57 58 57 56 55 55 54 53 52 53 53 53 52 51 48 46 43 43 37 32 30 29 31 34 38 36 35 30 29 28 27 19 18 19 18 18 23 27
50 51 52 52 52 54 54 54 56 57 57 57 56 55 55 54 53 52 51 50 47 47 46 42 38 37 31 32 27 28 29 31 34 36 35 34 28 27 28 28 26 24 21 18 15 17 26
50 50 51 52 51 51 52 54 55 56 57 57 55 55 54 53 53 52 50 48 45 45 43 45 40 37 31 34 29 26 27 29 33 32 35 32 27 29 30 27 28 25 23 20 16 18 19
50 50 50 52 52 51 52 53 54 55 57 56 55 55 54 52 53 52 49 47 45 46 44 41 41 38 29 31 29 27 25 27 30 31 32 32 32 33 27 29 29 27 27 23 20 14 11
48 49 49 50 52 51 51 52 53 54 56 56 55 54 53 53 49 50 49 49 48 47 41 35 36 33 29 30 29 27 24 32 33 32 37 35 34 30 29 29 24 20 27 27 23 23 13
47 48 48 49 50 51 50 51 52 54 55 55 54 54 53 52 51 50 50 53 47 51 32 32 30 31 29 29 29 22 31 34 28 34 34 33 34 30 30 30 27 27 29 28 30 26 27
46 46 48 49 49 50 50 50 52 53 54 55 54 53 53 52 51 50 50 50 55 42 31 30 29 26 26 27 26 21 23 29 33 33 33 32 30 33 30 30 27 29 29 31 31 28 25
46 46 47 48 48 49 49 50 51 53 53 55 54 53 53 51 47 52 50 52 41 32 30 24 23 26 25 23 22 20 23 23 26 26 27 23 24 31 33 29 31 30 27 25 25 26 27
46 46 45 46 46 48 48 50 50 52 53 54 54 53 53 50 52 53 55 48 36 31 29 26 24 24 21 22 21 21 22 21 22 23 25 25 26 32 33 28 28 26 28 29 25 28 27
46 45 45 45 45 47 48 49 50 51 52 54 53 52 51 50 51 52 52 41 35 34 26 28 19 21 20 20 18 20 23 22 21 20 25 30 30 36 35 32 29 26 24 31 33 34 31
45 45 44 44 45 46 47 46 49 51 52 53 51 50 48 51 54 51 47 39 40 35 30 27 23 21 20 20 19 19 20 21 22 32 38 38 31 37 37 34 29 26 28 26 29 21 20
44 44 44 43 43 44 47 48 49 50 52 52 51 46 47 51 53 49 38 40 40 38 33 31 25 22 21 23 19 22 21 19 24 35 38 38 36 36 36 33 26 27 25 25 25 29 24
43 43 43 43 44 44 47 48 49 50 52 51 50 41 49 53 43 42 39 40 40 36 38 34 34 32 25 27 25 20 21 33 30 32 29 38 35 32 31 29 28 26 28 32 26 21 29
43 43 43 43 44 46 46 48 48 49 52 50 46 45 51 47 33 37 36 40 41 38 37 34 34 35 33 30 31 25 37 40 39 36 32 36 28 25 23 26 30 27 26 26 33 32 25
42 42 42 43 44 46 46 45 48 49 51 51 46 41 49 49 35 34 33 36 39 40 38 35 33 34 32 28 28 30 37 40 40 39 40 39 31 27 23 25 28 29 32 30 27 27 27
41 42 42 43 43 45 45 45 48 48 51 51 46 39 45 41 42 35 36 36 38 37 37 35 33 32 31 26 31 29 38 39 41 40 37 35 28 30 32 33 30 28 30 28 24 28 26
41 41 42 43 43 44 45 45 48 47 51 48 44 38 47 44 42 41 36 37 37 35 34 32 33 32 30 30 33 30 36 37 36 39 35 35 33 33 31 31 28 26 27 26 25 25 23
41 42 43 43 43 44 45 45 46 47 50 46 45 47 43 43 42 39 35 37 38 37 37 32 36 35 33 38 39 41 40 40 39 38 36 35 33 30 27 28 24 19 21 25 27 27 25
42 43 43 43 44 44 44 45 47 47 49 48 45 46 45 38 41 36 36 37 38 37 37 35 36 36 42 44 43 42 39 40 40 39 42 36 34 30 27 26 10 22 25 20 23 23 23
42 43 42 44 45 45 45 45 46 47 49 47 47 49 48 36 40 36 36 38 41 39 38 41 45 43 45 44 40 36 33 28 33 35 40 41 33 30 24 25 24 23 27 28 24 24 28
42 43 43 43 44 44 45 46 46 47 48 48 46 49 51 46 40 36 34 39 40 40 43 45 47 50 46 45 34 30 29 30 31 31 37 34 35 28 27 23 17 29 28 29 27 26 33
41 43 43 44 45 45 45 46 47 48 48 47 47 50 49 48 44 41 36 39 42 44 43 45 46 43 47 36 36 29 29 34 31 31 29 30 29 26 25 23 29 34 29 32 19 26 35
42 43 44 45 45 45 45 46 46 46 46 46 45 47 50 48 48 46 40 41 45 45 41 45 45 43 39 37 34 33 32 32 32 36 33 31 30 27 31 29 25 32 30 24 36 35 34
42 43 43 44 44 45 46 46 46 46 46 46 42 47 52 48 50 54 51 52 48 47 47 45 45 44 45 41 40 37 35 34 32 28 35 31 36 32 32 32 37 32 30 34 34 33 36

GFSGBSN_sfc_dewp_030.txt.gz
Dewpoint
53 53 54 55 56 56 57 58 60 58 58 57 56 56 57 57 56 56 55 54 53 53 54 54 54 53 49 46 45 52 60 59 44 35 32 30 33 32 20 18 18 18 18 24 41 42 43
53 54 54 54 55 55 55 57 58 59 58 57 56 56 56 56 56 56 55 54 53 53 54 54 53 52 48 37 45 52 45 39 35 32 33 32 33 29 21 23 23 25 20 36 42 43 43
53 53 54 54 54 55 56 56 56 58 59 58 57 56 56 56 56 55 54 54 53 53 54 54 53 49 46 33 41 48 41 35 31 31 30 32 31 31 32 27 30 29 19 29 41 42 42
53 53 53 54 54 54 55 56 56 57 59 58 57 56 55 55 54 54 53 53 53 53 54 53 52 48 43 45 44 41 38 31 31 31 33 32 32 33 32 31 29 23 21 18 35 39 39
52 52 53 53 53 54 54 54 56 56 58 58 57 56 55 54 54 53 53 53 53 54 54 53 48 48 44 47 41 41 35 31 30 31 31 31 32 32 30 28 25 22 17 21 24 30 32
51 52 52 52 52 53 54 54 55 55 56 58 57 56 55 54 53 52 52 52 53 52 51 49 47 41 41 36 39 34 33 33 33 35 34 33 30 28 28 26 19 22 22 20 19 21 27
51 52 51 50 52 52 52 54 54 55 55 57 57 56 55 54 53 52 51 49 46 46 46 37 33 35 32 35 34 29 30 30 34 34 33 35 27 27 27 28 27 26 24 23 22 18 27
51 51 51 51 51 52 52 52 53 54 55 56 57 56 55 54 52 52 49 45 45 42 41 44 43 41 39 38 31 29 30 29 34 31 36 30 28 29 29 30 29 28 26 25 23 21 25
49 50 50 50 51 50 52 51 51 53 54 56 56 56 54 53 53 51 48 47 47 45 42 43 45 43 42 34 30 29 27 30 32 31 32 29 30 33 30 28 28 27 27 26 25 19 14
49 49 49 50 50 50 52 51 51 53 54 54 56 55 53 52 48 49 48 50 50 46 39 38 39 40 30 28 30 29 26 29 31 32 34 31 33 31 30 28 29 24 27 27 25 23 13
49 49 49 50 50 49 50 51 51 52 53 53 55 54 52 51 49 49 49 49 48 49 19 32 38 36 30 29 28 25 29 32 28 33 32 28 31 28 30 28 30 28 28 27 29 26 25
49 49 48 48 49 49 49 50 50 51 52 53 54 54 52 51 51 49 49 50 53 40 28 34 31 29 28 29 28 25 29 32 31 34 34 29 33 31 30 31 30 29 29 30 32 30 24
46 49 48 47 47 48 49 49 50 51 52 53 54 54 52 51 46 52 53 51 38 34 33 29 27 28 27 27 27 24 23 26 25 25 29 29 28 28 32 28 31 29 25 23 22 25 23
45 48 48 47 47 47 48 49 49 49 51 52 54 53 52 50 51 52 54 48 34 33 35 30 27 27 25 25 25 23 22 20 24 26 25 24 25 32 34 29 28 27 25 25 20 23 23
44 47 48 48 46 46 47 48 48 48 50 52 53 52 52 51 51 51 51 40 33 38 29 27 25 24 24 22 22 22 22 21 21 22 21 28 27 35 36 33 31 27 24 29 30 32 29
45 46 48 47 46 45 45 46 48 47 50 51 51 51 50 51 51 48 46 36 38 40 35 31 23 24 21 20 20 19 21 24 24 24 34 33 27 33 35 33 32 28 27 24 29 22 22
44 46 47 47 47 46 45 45 45 48 49 51 49 45 49 52 51 45 38 36 38 39 40 35 31 26 23 22 21 21 19 20 27 37 36 37 28 31 34 32 28 27 25 25 26 26 21
43 45 46 46 45 45 45 45 46 47 48 49 47 41 50 52 40 40 39 38 38 38 40 40 36 34 25 25 23 21 22 21 31 37 30 37 34 30 29 30 34 29 28 30 25 19 27
43 44 45 45 45 44 44 44 45 46 47 45 43 44 50 48 34 34 37 38 38 36 38 38 35 34 32 30 26 31 33 39 40 34 32 34 29 25 24 24 28 27 26 28 32 29 25
43 44 45 45 45 44 44 44 45 44 47 47 44 39 45 46 39 31 35 37 37 38 38 40 39 38 34 32 34 32 36 39 41 38 41 36 29 24 22 20 25 27 31 31 29 26 26
43 44 44 44 44 44 44 44 46 48 46 47 45 39 40 38 39 32 33 34 34 32 39 39 36 37 34 28 32 31 38 38 39 39 36 32 27 28 27 31 32 28 29 29 26 27 25
43 43 43 43 43 43 44 44 43 46 47 45 42 40 42 41 38 36 33 32 31 30 34 32 36 36 34 28 29 31 37 36 33 37 33 35 29 32 29 30 27 25 25 26 26 26 28
43 43 42 42 42 43 45 45 45 46 48 43 45 46 43 40 39 38 33 32 29 31 37 35 36 34 34 32 37 35 38 39 38 35 35 34 31 28 26 26 22 22 23 23 25 27 25
42 42 42 42 43 44 43 44 45 45 46 47 45 47 44 37 40 38 36 33 32 34 32 37 34 36 39 42 40 37 36 39 42 43 40 33 31 28 25 22 14 25 26 25 26 25 25
42 42 42 42 43 44 44 45 45 46 45 47 49 47 45 34 40 40 38 34 34 36 39 36 42 40 43 42 37 33 32 31 32 38 39 39 34 30 22 22 24 23 25 23 23 26 29
42 42 42 43 43 43 43 44 45 45 46 47 47 48 45 44 40 42 39 35 33 38 37 43 47 48 47 41 32 28 27 29 30 30 35 37 32 29 27 21 15 25 29 29 29 27 32
42 42 43 43 43 43 44 44 45 44 47 47 47 48 45 42 46 41 38 35 35 42 39 45 43 42 45 35 31 29 29 32 29 28 27 28 28 24 22 20 25 30 31 29 16 21 33
42 43 43 43 43 43 43 44 45 45 47 45 46 48 46 44 46 49 39 36 40 43 40 43 43 43 38 35 33 31 27 32 31 33 31 28 28 26 30 24 21 35 29 24 29 36 34
43 43 43 43 43 44 43 45 45 46 46 45 44 48 49 44 46 49 50 49 39 45 46 45 41 43 44 39 38 35 32 32 30 29 36 27 31 29 30 29 34 32 33 36 36 36 38

GFSGBSN_sfc_dewp_033.txt.gz
Dewpoint
53 53 54 55 55 56 54 56 57 58 58 58 57 57 57 57 57 56 55 55 54 53 53 53 54 54 49 39 36 48 60 60 53 38 30 29 32 31 24 18 19 18 19 19 29 43 42
51 54 54 54 54 54 53 55 56 56 58 58 57 56 56 56 56 56 55 55 54 53 53 53 54 53 46 23 42 50 46 44 37 32 31 30 32 31 28 24 24 27 26 40 42 42 43
51 53 54 53 54 54 54 54 56 55 56 58 58 57 56 56 56 55 55 54 53 53 53 53 53 49 46 23 42 45 41 36 32 30 31 33 33 32 31 26 31 29 27 39 41 42 41
52 53 53 53 53 54 54 55 55 56 56 57 58 57 56 55 55 55 54 53 53 53 53 53 52 47 42 41 46 44 40 37 33 30 31 31 32 32 33 29 29 22 21 25 38 41 39
51 52 53 52 53 53 53 54 55 54 56 56 58 57 56 55 54 54 53 53 53 53 53 53 47 46 40 45 42 43 39 35 32 30 31 29 32 31 30 28 22 22 16 21 33 36 36
51 50 50 52 52 53 53 53 54 54 55 55 56 57 56 55 54 53 52 53 53 52 51 49 47 34 35 33 38 35 37 35 33 35 34 31 31 28 28 24 20 21 21 23 20 20 33
51 51 51 50 51 51 53 53 52 54 54 55 56 57 56 55 54 52 50 48 44 45 46 35 27 28 31 35 35 34 32 32 36 33 31 34 28 26 26 28 28 27 26 25 24 24 26
51 50 50 51 51 49 49 51 52 53 54 55 55 56 56 55 53 52 49 44 41 43 38 43 42 39 40 39 36 31 31 28 32 29 35 29 28 28 30 28 29 28 26 25 26 23 22
49 51 50 50 51 51 49 50 52 52 53 54 55 56 56 53 52 51 47 45 46 45 35 39 44 43 42 41 37 30 28 30 30 30 30 28 27 33 30 27 27 27 27 26 26 23 21
47 49 51 50 50 50 50 50 50 51 52 53 53 55 54 52 48 48 48 49 49 46 36 36 42 42 41 33 29 31 28 30 32 29 32 30 32 31 30 28 27 25 28 28 25 23 11
46 46 48 51 49 49 49 49 49 51 51 53 52 54 53 52 47 49 49 49 48 48 16 24 40 39 30 27 28 28 29 31 28 32 30 27 32 29 28 26 29 27 32 27 28 26 23
46 46 47 49 50 48 48 49 49 50 51 52 52 53 53 51 50 48 49 51 52 32 18 31 35 32 27 28 28 24 28 30 31 32 33 28 32 29 27 30 30 31 29 29 31 28 22
45 45 46 47 49 49 48 50 49 49 50 50 52 54 53 51 45 51 52 51 38 27 27 30 29 30 26 27 27 26 24 27 27 26 26 28 28 29 33 27 29 27 24 20 19 23 21
46 45 44 46 49 49 48 49 48 48 48 50 51 53 53 51 51 50 54 47 33 33 34 36 29 29 24 26 26 25 22 21 24 26 27 24 22 29 34 28 27 29 24 23 18 21 20
47 46 45 44 46 49 48 47 47 48 48 50 51 52 52 53 51 49 50 39 31 34 35 24 26 26 26 26 24 23 22 20 21 25 22 26 25 33 35 33 29 28 24 28 28 30 26
48 47 46 45 45 48 49 47 47 48 48 49 46 48 48 52 51 46 45 37 37 39 39 38 24 26 24 23 22 22 22 23 22 25 27 28 23 31 33 34 32 29 29 22 27 21 21
48 47 46 45 45 47 48 47 47 48 48 49 46 43 47 51 51 43 37 36 37 37 39 39 33 26 25 23 22 21 21 21 25 32 29 35 25 26 35 30 26 27 25 25 26 25 20
48 47 46 45 44 47 47 46 46 46 47 48 43 37 50 51 42 38 34 36 38 35 40 40 40 36 28 26 24 22 21 19 26 36 29 34 30 27 27 31 32 29 28 27 25 20 26
48 47 46 45 44 46 47 46 45 44 46 45 39 42 51 48 36 35 36 36 36 34 36 37 38 38 34 27 22 26 26 36 37 32 33 35 29 25 24 26 27 28 28 31 30 28 24
47 47 46 45 46 47 47 46 45 45 46 47 41 37 44 46 40 35 34 35 37 38 36 39 39 40 37 30 32 31 33 38 39 36 41 35 29 26 24 24 26 26 29 29 29 26 25
48 47 46 45 46 47 46 45 45 45 44 44 41 36 40 38 38 38 34 34 35 34 37 36 36 38 37 32 30 31 37 37 38 38 36 32 26 25 25 24 30 27 27 30 27 27 25
48 47 45 45 45 46 45 44 44 44 46 42 38 40 41 39 38 37 35 32 34 35 36 35 31 35 33 34 30 29 35 35 33 35 33 34 27 30 29 29 27 25 25 25 26 26 28
48 46 45 45 45 46 45 44 44 44 44 40 42 43 43 37 37 36 33 33 32 35 36 34 35 36 36 36 36 32 37 37 34 34 33 31 30 28 24 26 23 23 24 24 24 26 26
47 46 45 45 44 44 44 44 44 44 44 44 42 43 42 36 37 34 33 33 32 33 32 33 31 35 37 40 38 37 36 39 42 41 37 31 29 28 25 22 16 26 27 25 25 26 26
46 45 45 44 44 44 43 43 44 44 43 42 45 43 42 35 35 36 36 34 33 33 33 30 37 33 43 40 35 33 31 33 32 37 39 36 31 28 23 23 24 24 25 25 24 23 28
45 45 44 44 43 43 43 43 44 44 43 43 44 44 43 40 38 37 36 35 33 33 33 38 37 46 43 38 31 29 29 31 30 33 35 32 32 30 25 19 17 26 27 28 29 25 30
44 44 43 42 42 42 43 44 45 44 43 44 44 48 43 38 43 42 39 37 35 35 34 40 44 43 43 33 29 28 27 32 28 28 26 28 28 26 21 20 24 26 30 26 20 23 33
43 43 42 42 42 42 43 43 43 45 46 44 43 48 44 40 42 47 47 39 37 35 34 39 43 43 35 34 32 29 28 32 29 31 28 29 28 25 25 20 19 31 31 21 27 34 35
42 42 42 42 42 43 44 44 44 44 45 44 44 49 49 43 43 46 45 45 45 38 41 44 39 43 42 38 36 35 30 29 31 28 35 26 30 29 29 28 32 33 29 33 36 34 34

GFSGBSN_sfc_dewp_039.txt.gz
Dewpoint
50 51 51 52 52 53 51 53 54 54 55 55 56 57 59 59 58 57 56 55 55 55 54 54 54 54 49 31 19 53 60 59 52 39 28 28 30 30 26 23 21 22 20 24 34 42 42
51 51 51 50 52 51 52 51 53 54 54 54 55 55 57 59 58 57 56 55 55 54 54 54 54 53 43 22 41 51 50 45 41 34 28 29 30 31 29 28 24 26 28 39 43 42 43
53 52 52 52 53 52 51 52 51 51 53 54 55 56 56 58 58 57 56 55 54 54 54 54 54 49 43 25 44 46 43 38 37 32 29 31 32 30 31 29 29 29 31 36 41 41 43
49 51 53 52 52 52 51 51 51 50 52 54 54 54 55 56 57 56 55 54 54 54 54 54 53 48 37 37 42 44 41 40 37 35 30 30 32 31 31 32 27 21 24 23 37 40 41
48 48 50 53 52 51 51 52 49 50 53 53 54 54 54 54 56 56 55 54 53 54 53 53 49 47 29 38 34 38 41 38 36 33 31 29 32 31 30 27 24 25 19 25 35 39 39
48 48 49 50 51 51 51 51 52 50 51 52 53 53 53 54 55 55 53 53 52 52 52 50 47 38 28 28 35 39 42 38 34 35 33 32 32 29 28 25 20 23 23 24 23 27 37
47 48 48 48 50 50 52 51 51 52 50 52 52 53 54 54 55 54 51 47 40 43 47 39 36 28 18 34 41 34 37 35 35 34 32 34 29 26 25 28 25 27 25 24 25 25 31
49 48 49 48 48 49 50 51 51 51 51 51 52 52 53 54 55 53 50 44 41 44 39 42 41 38 35 40 38 38 35 31 34 30 34 30 30 29 29 29 29 27 25 24 26 23 26
48 49 49 48 48 47 48 50 50 51 51 50 51 51 51 52 54 52 48 45 48 48 41 37 40 40 39 39 37 37 32 31 30 29 32 30 27 32 29 28 27 26 25 25 25 26 24
48 48 48 48 48 48 47 49 51 50 50 50 50 50 50 53 51 49 46 48 50 49 33 30 35 40 42 41 35 38 31 31 31 28 31 30 31 30 28 27 26 24 26 27 27 24 18
49 48 48 48 48 48 47 47 50 51 50 50 49 50 50 53 49 47 48 50 50 48 22 27 41 41 41 32 30 32 31 32 32 32 32 29 29 30 29 28 28 26 30 29 27 25 24
48 48 48 48 48 48 47 47 49 50 50 50 49 50 50 51 51 49 50 52 51 37 23 21 37 37 36 29 27 28 30 34 33 34 33 30 31 31 30 28 29 30 28 26 29 28 24
49 48 48 48 48 48 48 47 47 48 50 49 49 49 50 51 47 51 52 50 38 31 27 21 33 32 28 27 27 27 29 31 28 27 28 27 29 29 31 27 30 28 26 23 20 26 23
49 49 49 48 48 48 48 47 46 47 49 49 48 49 49 48 52 51 52 43 32 31 29 31 31 29 26 26 27 25 28 26 27 25 24 23 22 28 32 29 27 28 26 26 17 21 19
49 49 49 49 48 48 48 47 47 47 49 49 48 48 47 49 51 51 47 35 30 33 32 29 28 26 25 25 26 26 28 25 27 29 25 27 23 30 33 31 28 27 25 27 29 30 27
49 49 48 48 48 48 48 47 47 47 48 49 45 45 43 49 52 50 42 33 36 34 38 38 26 29 25 24 25 25 26 27 26 29 31 31 25 29 30 33 32 29 29 27 28 23 21
49 49 48 48 48 48 48 47 47 47 48 48 44 39 41 48 52 45 35 34 34 37 39 36 36 34 28 26 25 26 25 24 26 27 29 31 26 24 33 30 27 28 27 27 26 27 22
49 49 49 48 48 48 48 47 47 47 47 47 41 33 43 47 39 40 36 34 37 34 39 38 39 39 34 30 27 26 26 26 26 30 27 32 31 27 24 30 29 28 30 29 30 23 27
46 47 48 48 49 48 48 48 46 46 47 44 38 36 44 43 33 33 35 33 36 33 36 38 37 39 38 31 26 28 28 30 33 30 32 34 29 24 22 26 28 29 29 29 29 30 27
45 46 46 46 47 49 48 48 46 46 47 44 39 33 39 41 35 30 33 32 32 37 36 37 38 39 38 35 32 28 29 34 36 32 39 35 31 27 21 23 27 28 29 30 30 29 28
45 45 45 46 47 47 49 48 46 46 46 43 40 34 38 32 33 32 32 32 32 32 35 37 36 37 36 32 32 30 32 38 37 41 37 35 29 29 26 24 25 25 28 29 27 29 30
45 45 45 45 46 47 49 47 46 46 46 42 36 36 38 36 33 33 34 32 31 32 32 33 34 35 35 36 33 31 36 36 34 37 36 34 30 28 27 28 27 29 27 29 29 28 27
45 45 45 45 45 47 48 47 46 46 45 40 42 39 37 35 33 30 30 31 32 35 34 33 35 36 36 34 38 38 38 38 38 37 35 34 33 30 25 26 26 28 29 27 27 29 30
45 45 45 45 45 45 47 47 46 46 45 43 40 41 36 29 35 30 30 32 32 34 33 33 37 33 36 40 40 40 39 39 39 38 37 33 33 31 29 27 26 27 27 27 29 29 27
45 44 45 45 45 44 46 46 46 46 45 41 41 41 39 31 33 33 33 31 35 35 35 35 37 38 40 42 36 34 35 35 35 36 35 34 33 29 30 26 26 24 26 27 27 23 27
46 45 44 45 45 44 47 46 46 46 45 42 42 44 42 34 35 35 34 32 32 34 35 37 40 44 41 39 36 32 32 33 32 33 33 32 34 35 26 27 25 30 27 29 27 24 29
44 44 45 45 45 45 47 45 45 46 45 41 42 44 43 36 38 40 35 34 34 34 35 36 37 40 40 34 34 32 33 34 32 32 32 32 31 31 26 31 30 30 27 30 26 27 33
45 45 45 45 45 46 46 45 45 45 44 39 40 43 41 38 38 41 40 40 36 34 32 37 37 39 38 34 35 34 33 34 34 34 33 32 31 32 29 32 29 31 27 29 35 33 35
45 45 45 46 46 46 45 45 45 45 44 41 38 44 45 40 39 45 45 44 43 38 35 40 35 38 39 38 36 34 34 33 33 31 33 34 35 33 33 35 38 33 35 34 33 34 36

GFSGBSN_sfc_dewp_042.txt.gz
Dewpoint
53 52 51 51 52 52 51 51 53 54 54 54 54 54 55 56 58 59 57 56 56 56 55 54 54 55 48 30 15 46 61 59 45 39 28 27 29 27 22 24 25 24 24 26 32 33 41
51 52 53 52 51 51 52 52 52 52 52 54 54 54 56 56 57 58 57 56 56 55 55 54 54 54 41 24 36 47 44 42 36 33 26 29 29 30 28 27 26 27 27 37 38 39 39
49 50 52 54 52 52 52 52 51 49 52 50 53 54 54 55 56 57 57 57 56 55 55 54 54 48 41 29 35 44 40 34 34 29 25 27 31 30 30 27 29 27 28 35 37 40 40
49 49 49 50 51 53 52 51 51 52 50 52 52 53 54 54 55 55 56 56 55 55 55 54 54 48 35 33 35 40 40 37 35 33 30 30 30 31 31 31 26 24 25 21 29 39 39
47 47 49 49 49 51 53 51 51 51 51 51 52 52 53 53 53 54 55 55 55 54 53 53 49 47 29 40 33 30 38 33 37 34 33 28 31 32 31 23 20 24 17 20 23 37 37
48 48 49 49 50 50 51 52 51 51 51 51 51 52 52 53 53 54 54 54 54 52 51 50 46 42 35 19 31 39 35 34 33 34 33 32 32 29 24 19 14 16 18 21 23 30 36
47 49 50 49 49 49 47 50 52 51 51 51 50 51 51 53 54 54 53 50 45 44 48 40 37 33 16 30 40 36 39 38 34 32 30 34 29 21 19 19 22 23 19 19 21 24 27
49 48 48 49 49 48 46 47 49 52 51 51 50 50 51 51 52 54 53 48 45 45 39 40 39 37 37 34 33 35 35 33 33 28 31 31 27 27 28 28 26 26 22 21 24 25 25
49 49 49 49 49 49 48 48 47 50 52 50 50 49 50 50 54 53 52 50 48 48 42 38 37 35 34 36 31 28 32 30 28 27 29 27 26 30 28 27 27 26 24 24 23 26 24
49 49 49 49 49 49 49 49 48 48 50 51 50 49 50 50 50 50 48 49 50 50 36 27 31 33 37 35 31 30 32 27 28 26 27 28 28 28 28 25 27 23 25 25 26 25 18
49 49 49 49 49 49 49 49 49 47 47 51 50 49 50 50 50 48 48 52 52 50 20 24 34 38 38 29 26 29 31 30 26 27 29 26 28 29 26 24 27 24 28 27 27 24 24
49 49 49 49 49 49 49 48 48 48 48 50 50 49 49 48 48 50 51 53 51 38 18 19 35 36 35 33 25 27 29 30 28 27 30 25 30 28 26 28 27 30 28 28 29 26 22
49 49 49 49 49 48 49 48 48 48 48 49 50 49 48 44 44 50 54 50 36 27 22 16 30 34 30 26 25 26 26 28 23 25 27 27 27 27 29 28 30 28 27 24 21 23 22
49 49 49 49 49 49 49 49 48 48 47 49 49 49 48 46 45 53 51 45 26 11 19 26 30 32 28 22 24 25 24 23 24 22 21 21 21 24 28 28 24 26 26 25 17 20 19
49 49 49 49 49 49 49 49 48 48 47 48 49 49 47 47 48 51 47 36 19 19 25 24 26 29 27 22 21 25 24 21 24 25 21 22 19 26 29 29 27 28 26 26 26 31 24
49 49 49 49 49 49 49 48 48 48 47 47 47 44 43 48 49 47 41 32 21 21 28 31 22 30 27 21 23 23 25 24 23 25 23 26 24 28 32 32 32 29 28 26 26 21 18
50 49 49 49 49 49 49 49 48 48 47 47 46 39 42 48 49 41 34 31 25 28 32 34 30 24 29 25 22 23 22 23 25 26 25 24 25 29 32 29 25 29 27 27 25 26 21
46 48 49 49 49 49 49 49 48 48 47 47 42 34 45 46 36 37 34 32 30 28 34 35 36 37 32 29 25 24 22 23 25 26 27 27 27 27 23 28 29 24 25 27 26 22 28
45 46 46 48 49 49 48 49 48 48 47 46 37 39 46 43 30 32 33 32 29 30 29 35 35 37 37 33 27 26 25 27 28 28 26 31 27 25 23 26 28 25 26 25 28 30 27
45 45 45 46 47 49 49 49 49 48 48 45 38 33 40 41 32 30 30 30 28 30 28 34 34 37 37 35 33 28 26 31 32 29 39 35 27 25 22 20 20 25 25 26 28 29 27
45 45 45 45 46 47 48 49 49 48 47 44 39 34 37 32 33 29 30 27 27 29 31 33 35 36 35 33 32 30 28 32 34 38 31 32 26 26 21 18 17 18 18 25 25 27 26
45 44 45 45 45 46 47 48 49 48 47 42 35 36 38 30 32 31 32 30 25 27 29 28 32 35 35 32 31 30 34 34 29 37 32 32 25 29 26 23 23 20 20 20 24 23 25
44 44 44 45 45 45 46 46 49 48 47 41 42 38 34 31 31 30 31 29 29 30 30 26 29 29 34 34 37 38 37 37 34 36 36 34 31 29 23 26 25 29 29 24 25 28 28
46 46 45 45 45 45 45 46 47 47 46 45 39 41 36 29 31 29 28 27 27 29 31 29 30 32 33 40 37 36 36 38 38 34 36 36 34 33 29 32 30 22 27 26 26 26 26
45 45 45 46 45 45 45 45 46 47 46 43 41 39 35 36 30 29 29 27 28 31 31 30 34 34 40 34 31 28 31 32 36 38 38 37 36 33 36 27 23 24 26 27 28 25 25
45 47 46 45 45 45 45 45 45 47 46 42 44 42 43 36 31 28 31 29 30 31 35 34 33 43 41 40 36 29 20 22 29 34 34 35 37 38 31 28 30 25 25 28 27 27 25
44 45 45 45 45 45 44 45 46 47 46 41 43 47 44 35 31 33 34 32 31 32 33 34 37 39 39 40 39 32 27 23 26 34 35 34 34 36 33 34 30 30 29 29 27 30 30
43 45 45 45 45 44 44 45 47 46 45 41 43 46 41 39 38 39 39 36 34 34 34 35 36 39 41 37 36 34 38 35 29 31 34 33 34 36 34 37 33 31 28 29 33 37 34
45 44 44 44 44 44 44 46 46 46 46 42 41 44 45 41 40 42 42 44 44 34 35 40 33 35 36 36 39 38 41 40 35 33 36 34 35 35 33 34 36 35 33 34 37 34 36

GFSGBSN_sfc_dewp_045.txt.gz
Dewpoint
49 50 52 54 53 52 52 52 53 53 53 53 54 54 53 53 55 57 57 57 57 57 56 56 55 55 50 36 26 48 61 58 41 37 29 28 26 26 20 17 21 22 22 25 29 29 36
49 50 50 51 53 52 51 52 53 52 51 52 52 53 54 54 54 56 56 57 57 57 56 56 55 54 44 34 26 40 43 40 33 31 29 27 27 27 26 21 21 24 23 30 31 33 36
49 49 50 51 51 51 53 52 52 52 51 51 52 53 53 54 54 54 55 56 57 56 56 55 54 49 41 34 29 38 37 32 29 29 27 28 29 28 28 24 24 23 22 29 29 32 33
48 47 48 50 51 51 51 52 53 51 51 52 51 52 52 53 53 53 54 55 56 56 56 54 54 47 37 31 28 34 36 30 30 30 29 30 31 30 29 27 24 19 22 26 26 31 34
49 49 48 49 49 51 50 50 52 53 51 51 51 51 51 52 52 53 54 54 55 56 53 53 50 46 33 40 27 27 37 29 29 29 31 28 31 29 28 23 19 20 19 25 26 27 35
47 49 50 51 50 50 51 50 50 52 53 51 51 51 51 51 52 53 54 54 55 53 51 49 45 42 37 24 20 19 36 32 31 32 32 33 30 26 23 17 14 14 15 18 25 40 27
47 48 49 49 50 50 48 49 49 50 52 53 51 51 50 51 52 51 53 47 45 46 45 31 34 28 18 23 35 30 29 33 32 31 29 31 27 24 21 19 15 18 17 19 24 21 21
49 49 49 49 49 48 49 49 49 49 50 52 51 50 50 50 51 52 54 42 41 46 39 36 35 34 36 31 31 26 33 30 32 28 28 28 28 24 22 21 19 20 18 16 18 21 22
49 49 50 50 50 50 49 49 50 49 48 51 52 50 50 50 51 51 48 43 46 49 38 28 30 32 31 31 29 25 31 29 28 28 26 26 25 26 23 21 22 22 22 23 19 24 22
49 49 49 50 50 50 50 49 49 49 48 49 51 51 49 50 47 42 44 44 48 50 32 21 32 32 30 31 30 26 29 27 27 25 25 25 26 25 23 22 22 21 21 21 22 21 19
49 49 50 50 50 49 49 49 49 49 49 48 50 50 49 50 46 45 47 49 51 51 17 20 26 33 31 29 23 26 25 27 25 24 25 24 25 26 24 22 23 22 25 24 24 24 23
49 50 50 50 49 49 49 49 49 49 49 48 49 50 49 46 45 47 51 53 52 34 18 18 30 32 33 31 23 23 24 27 24 23 24 24 24 24 23 23 24 25 26 26 26 25 24
49 49 50 50 50 49 50 49 49 49 49 49 48 50 49 44 42 44 52 52 32 21 15 14 24 30 31 28 25 23 24 24 21 22 24 23 24 24 25 25 27 26 26 24 23 23 23
49 49 49 50 50 49 49 49 49 49 49 49 48 49 48 45 44 48 50 45 21 8 13 23 23 29 27 25 26 25 25 22 22 22 21 22 21 24 26 25 24 26 26 26 27 22 20
49 49 49 49 49 49 49 49 49 49 49 48 48 45 45 49 47 48 44 34 22 12 8 15 20 27 28 23 23 24 24 20 20 21 21 22 20 20 22 24 25 25 25 26 27 26 24
49 49 50 49 49 49 49 49 49 49 49 48 44 41 41 48 48 47 39 34 22 13 9 17 16 24 26 23 21 23 23 21 20 21 23 23 22 21 24 26 26 26 26 26 26 23 23
49 48 49 49 49 49 49 49 49 49 49 48 45 40 39 48 48 42 31 31 29 17 14 15 21 18 25 26 20 22 22 20 20 20 22 23 24 24 29 28 25 25 27 26 24 26 26
48 48 48 49 49 49 49 49 49 49 48 47 42 35 44 47 36 37 32 31 30 21 22 18 25 25 22 29 24 20 22 21 22 22 24 25 26 27 26 27 26 25 25 26 27 24 27
48 48 49 48 47 48 49 49 49 49 49 45 39 38 47 44 31 34 31 30 28 25 22 20 27 31 30 28 29 26 25 28 31 24 26 26 24 26 24 26 26 25 25 24 27 27 27
48 47 47 47 47 47 49 49 49 49 49 46 39 33 40 42 34 29 27 27 24 30 26 20 25 29 31 32 31 29 27 28 34 28 38 35 26 25 25 25 24 24 22 22 24 30 27
46 46 46 46 46 46 46 48 49 49 49 45 40 36 38 32 34 33 28 23 21 23 28 27 24 27 25 28 28 29 29 31 32 36 32 31 25 25 22 22 20 20 21 21 20 22 24
45 45 45 45 45 45 45 46 47 49 49 43 35 33 36 33 35 31 29 25 20 21 22 24 26 28 28 26 27 28 29 30 29 31 31 30 28 26 24 22 20 18 16 16 16 19 19
44 44 44 45 45 46 45 45 46 48 48 42 42 35 35 31 33 31 30 26 21 22 24 22 24 25 30 28 36 38 37 37 35 36 34 29 32 28 27 23 23 26 22 18 17 18 21
45 45 45 45 45 45 46 45 45 47 48 43 43 35 36 31 33 30 27 26 22 22 25 24 26 28 29 33 37 37 35 34 35 35 34 34 32 31 31 33 27 24 23 21 21 20 20
44 44 45 45 45 45 45 45 45 46 48 44 42 38 37 37 29 29 28 27 25 24 27 24 27 29 31 35 32 29 30 29 29 33 33 33 37 35 34 30 25 20 22 23 22 21 20
46 46 46 45 45 45 44 45 45 45 46 45 41 42 43 36 32 28 27 27 26 27 29 30 30 34 38 35 32 26 15 17 21 32 35 35 37 39 34 28 27 27 24 25 23 27 23
46 46 45 46 46 45 45 45 45 45 46 45 46 47 42 35 33 32 31 28 28 28 30 31 32 39 39 39 37 30 21 12 17 32 34 36 37 38 35 33 29 25 23 26 28 28 27
44 45 45 44 45 45 45 45 45 45 46 45 44 46 41 38 36 35 36 36 31 31 32 31 33 36 40 37 35 30 33 26 22 17 30 34 34 37 36 34 33 33 29 28 33 36 34
44 45 46 46 46 44 45 45 45 45 46 45 43 43 47 44 41 43 42 43 39 32 33 36 36 37 34 34 36 32 39 44 29 30 22 32 35 36 33 33 38 36 35 34 32 32 36

GFSGBSN_sfc_dewp_048.txt.gz
Dewpoint
50 50 50 50 51 52 53 52 53 53 52 51 50 52 52 52 53 54 55 56 57 58 58 57 57 57 51 37 33 48 61 57 39 34 31 25 24 22 23 20 16 18 18 20 26 27 25
49 50 50 50 50 50 51 53 53 52 51 51 51 48 51 53 53 54 54 54 55 56 57 57 57 56 46 35 30 40 45 44 31 31 28 26 25 26 25 24 19 19 22 20 28 27 31
49 48 49 51 51 51 50 52 52 53 52 51 51 51 51 51 53 53 53 53 54 55 57 57 56 51 44 38 30 28 36 37 29 27 26 27 26 27 26 26 23 20 17 19 27 29 30
48 49 50 50 50 51 52 51 51 51 52 53 51 50 49 51 52 53 53 53 54 55 57 57 55 49 42 36 33 32 33 33 27 26 28 28 29 29 28 28 24 20 19 17 24 32 39
48 49 49 50 51 50 51 51 51 51 52 53 53 51 50 48 50 52 52 52 53 55 56 54 50 48 37 39 33 29 30 31 26 27 30 28 28 28 27 24 21 20 15 20 22 30 32
47 49 50 50 50 50 51 51 51 51 51 52 53 52 50 50 50 51 51 50 51 54 53 50 46 39 38 29 26 24 27 34 26 28 28 28 26 25 24 20 18 16 15 16 25 30 28
47 47 49 50 50 50 48 50 50 50 51 51 52 52 51 50 50 51 48 47 42 49 49 39 32 29 23 31 29 19 22 34 29 27 26 27 25 24 24 24 18 14 15 21 25 27 31
48 49 48 48 50 50 48 48 49 50 50 50 51 51 52 50 50 51 47 45 33 44 37 31 32 35 33 33 29 27 21 30 29 27 27 26 27 27 25 23 19 16 15 17 16 24 21
49 50 50 49 49 50 49 50 50 49 51 50 50 51 51 50 50 47 43 44 41 44 38 26 21 23 26 28 31 28 26 26 26 26 26 25 25 27 24 22 19 18 17 19 24 23 23
50 50 50 50 50 50 50 50 50 50 50 50 49 51 50 49 46 44 38 42 43 48 33 12 13 24 20 26 24 29 26 27 24 24 25 25 24 24 25 19 17 17 19 19 21 20 16
49 49 50 50 50 50 50 50 50 50 50 50 50 51 50 49 44 44 47 49 46 50 13 10 16 31 29 26 24 24 27 28 25 23 25 25 24 23 25 21 20 20 26 24 23 21 21
49 49 49 50 50 50 50 50 50 50 50 50 50 50 49 46 46 44 46 49 50 34 16 13 30 29 28 28 25 24 26 26 26 23 25 22 23 23 25 24 23 22 23 26 25 24 24
48 49 49 50 50 50 50 50 50 50 50 50 50 49 48 40 43 44 52 48 34 22 7 4 22 29 28 29 27 27 25 24 24 23 25 21 21 22 24 22 23 23 24 25 24 25 26
48 49 49 50 50 50 50 50 50 50 50 50 49 49 47 41 44 46 49 43 23 12 15 19 16 24 27 28 29 28 24 22 25 21 21 20 21 21 24 23 24 25 24 28 27 29 29
48 48 49 49 50 50 50 50 50 50 50 49 49 47 44 45 48 49 43 33 23 16 10 12 16 21 25 27 26 27 24 23 23 23 22 21 21 20 24 24 24 25 24 27 32 32 31
48 48 48 49 49 49 50 50 50 50 50 49 47 44 42 46 48 47 38 30 23 18 17 13 10 15 21 25 24 25 26 25 25 25 25 25 25 22 21 23 24 24 25 26 26 27 26
48 48 48 48 49 49 50 50 50 50 50 49 46 40 41 45 50 42 32 31 27 23 21 18 14 12 16 19 25 23 23 24 26 25 24 24 26 25 23 22 21 23 24 30 28 26 28
47 47 48 48 48 49 49 50 50 50 49 48 43 35 44 47 37 38 32 32 32 23 22 24 22 21 19 22 23 30 22 25 24 25 23 26 31 27 22 23 25 25 25 28 29 27 32
47 47 47 48 48 48 48 49 49 49 49 46 39 39 45 44 30 32 33 27 28 26 21 21 23 24 22 24 26 29 30 27 31 26 27 27 26 26 23 28 26 24 25 25 28 30 30
46 46 47 48 48 48 48 49 49 50 49 46 39 32 40 41 33 32 30 28 25 28 24 20 23 22 22 26 33 29 31 27 35 28 40 39 28 25 26 28 26 25 25 28 30 32 31
46 48 47 48 48 48 49 48 50 50 49 46 39 35 37 32 34 31 30 25 24 23 25 24 21 23 22 31 30 32 32 34 30 35 34 35 30 28 24 23 23 24 23 22 21 23 26
47 45 45 46 48 47 47 47 47 48 49 44 34 34 35 30 34 32 32 29 24 22 21 22 25 24 23 27 28 27 32 32 30 30 32 31 30 30 29 24 23 25 27 21 20 20 19
45 45 45 46 46 46 46 46 46 47 49 43 41 38 34 32 33 32 31 30 27 26 24 20 24 26 27 27 33 41 37 41 37 34 33 33 35 30 28 26 24 24 27 22 21 19 20
44 44 44 44 44 45 46 45 45 46 48 42 41 37 36 30 34 31 29 28 27 26 26 21 23 25 27 34 41 46 41 39 38 35 35 34 34 34 32 34 25 25 26 23 23 21 20
44 44 45 45 45 45 45 45 45 45 46 44 44 39 36 36 30 31 30 28 28 29 27 26 23 24 29 38 37 37 38 39 33 33 33 35 37 38 32 28 28 23 25 24 25 23 23
45 45 46 46 45 45 44 44 45 45 45 44 42 44 39 35 32 29 29 29 28 29 29 28 28 31 32 33 36 32 31 30 28 28 32 33 38 37 38 28 26 31 28 27 26 26 26
46 46 46 45 45 44 44 44 45 45 46 45 42 45 42 38 33 33 32 32 30 30 29 29 29 33 39 37 36 33 32 23 22 27 34 35 36 36 35 34 34 28 27 28 26 29 33
45 46 45 45 45 44 45 45 44 45 45 44 43 46 44 41 36 38 38 38 35 32 30 30 31 35 38 37 36 32 33 28 22 21 35 36 35 36 37 34 31 35 30 28 34 40 38
45 45 45 45 45 45 45 45 45 45 45 44 40 46 46 43 42 44 44 45 42 38 34 33 33 32 37 38 36 35 40 39 28 25 26 33 35 37 34 35 40 38 36 38 40 40 41

GFSGBSN_sfc_dewp_051.txt.gz
Dewpoint
49 50 50 50 51 51 51 51 54 54 52 49 48 49 51 51 53 53 53 53 53 54 56 57 58 58 52 43 40 50 59 57 45 36 33 28 27 23 20 20 24 19 19 22 21 29 36
49 49 49 50 50 51 51 51 52 53 53 53 51 48 48 50 51 52 53 53 53 53 54 56 57 57 51 42 39 48 51 48 37 33 30 31 28 26 26 26 24 23 21 19 20 30 38
48 49 50 51 51 51 51 52 52 53 52 52 52 52 48 48 50 51 52 52 52 53 54 55 56 54 48 44 40 40 42 43 38 32 29 29 28 27 29 28 29 27 24 20 18 28 39
49 49 49 50 51 51 51 51 52 52 52 52 52 52 52 48 49 50 51 51 52 52 53 55 56 51 45 42 42 41 40 35 37 31 29 28 31 31 32 29 27 24 23 19 19 31 40
48 48 49 50 50 50 51 51 51 52 51 51 52 52 52 51 50 50 50 51 51 51 52 54 51 48 44 43 40 39 32 31 34 29 28 27 31 30 28 26 25 25 20 19 18 37 40
47 48 49 50 50 50 50 50 51 51 52 51 52 52 52 52 51 50 50 50 49 51 53 53 50 44 45 30 33 34 33 29 33 28 29 30 28 26 25 24 21 21 20 17 26 28 36
47 47 47 48 49 49 48 49 50 50 51 51 51 51 51 52 52 50 49 44 44 47 49 45 42 36 27 35 33 28 28 28 35 29 26 29 25 24 24 25 24 22 18 14 18 27 28
47 47 47 47 48 49 49 49 50 50 50 51 51 50 51 51 52 51 48 42 43 42 40 43 45 42 37 40 35 30 22 29 34 29 26 26 24 26 27 27 26 24 20 16 25 28 30
48 49 49 49 49 49 49 50 50 50 50 50 51 50 51 51 51 47 43 41 43 40 41 37 36 30 29 29 31 31 22 28 31 28 28 26 27 27 27 27 24 22 19 19 25 26 24
48 49 49 49 49 49 50 50 50 50 50 50 51 50 50 50 46 43 41 46 47 45 39 26 19 24 24 24 29 30 32 26 28 27 27 27 28 26 26 25 24 17 20 25 26 24 19
47 48 49 50 50 50 50 50 50 51 50 50 50 50 50 49 45 42 44 43 44 49 17 13 17 21 20 22 25 24 30 30 24 25 26 26 26 26 26 26 24 20 27 29 28 25 24
47 48 49 49 49 49 50 50 50 50 50 50 50 50 50 46 46 44 44 44 49 36 26 16 29 29 25 20 24 26 24 28 29 26 24 24 26 25 24 27 26 26 29 28 28 26 24
48 48 49 49 49 49 50 50 50 50 50 50 50 50 48 42 39 44 46 46 35 28 13 2 28 29 29 26 22 24 25 23 23 25 25 25 23 24 24 25 27 25 24 24 28 24 24
47 47 48 48 49 49 49 50 50 50 50 50 50 50 48 44 42 42 47 41 29 15 16 18 18 29 29 28 28 27 26 25 24 24 24 23 22 23 24 24 24 25 24 28 25 26 29
47 47 48 48 48 49 49 50 50 50 50 50 50 48 46 44 44 46 42 32 22 18 15 8 11 16 27 28 29 28 27 26 27 23 22 23 22 23 21 25 24 26 25 28 34 35 31
46 47 47 47 48 48 49 49 50 50 50 49 47 45 43 44 45 45 37 32 28 21 15 14 16 19 18 23 28 28 28 28 27 24 25 28 25 24 23 22 26 24 27 25 33 28 30
46 46 47 47 48 48 49 49 50 50 50 49 45 40 43 45 46 40 30 29 27 30 29 20 18 18 20 19 19 21 27 27 27 24 25 24 25 26 27 24 23 26 24 28 30 32 25
46 46 46 46 47 48 48 49 49 50 50 48 44 34 43 44 36 35 30 30 32 25 29 28 26 23 24 25 23 23 25 31 28 27 25 25 30 25 22 25 24 24 25 28 31 28 33
45 45 45 46 47 47 47 48 49 50 50 47 39 38 45 41 30 31 31 30 32 30 28 26 23 25 25 24 24 25 33 35 38 29 27 27 27 23 24 25 25 22 24 28 32 35 32
45 45 46 47 47 47 47 48 48 49 50 47 38 32 39 41 33 29 29 29 29 31 31 29 27 26 23 24 25 25 31 37 40 30 40 32 28 26 22 25 30 30 27 26 29 29 30
45 45 46 46 46 46 47 47 48 48 49 47 38 34 36 33 34 32 29 27 27 28 27 26 26 26 23 22 24 25 33 37 39 40 33 32 26 26 27 25 27 28 28 26 26 30 30
45 45 46 46 46 47 47 47 47 48 48 45 33 36 35 31 33 33 31 28 26 26 25 24 25 25 25 21 23 25 37 37 38 39 34 34 30 28 27 27 28 24 23 27 27 27 29
46 46 46 46 47 47 46 46 48 48 48 44 42 39 35 32 34 32 31 29 28 29 28 26 26 25 26 25 25 37 44 44 42 41 40 35 32 31 26 27 27 25 28 26 29 29 25
45 45 45 45 45 46 46 46 48 48 48 46 42 39 35 33 31 31 30 30 28 30 28 28 27 25 25 34 43 42 42 41 41 41 43 40 33 32 28 29 22 26 27 28 29 28 24
44 44 45 45 45 45 45 45 45 46 48 45 43 40 35 33 31 30 31 29 30 30 30 29 29 27 26 26 34 33 33 35 37 38 40 41 36 31 28 26 27 27 28 29 27 25 27
44 45 45 45 45 45 44 44 45 45 46 46 42 44 42 35 32 29 31 31 29 29 29 29 31 32 32 27 33 27 25 32 34 36 39 41 40 35 30 25 23 29 31 32 30 26 28
45 45 45 46 45 45 45 44 44 45 45 46 43 42 39 35 35 32 30 30 32 30 29 29 31 31 32 30 25 26 27 32 29 32 32 35 34 31 29 27 32 33 31 32 27 27 31
46 46 45 46 46 46 45 45 44 45 45 44 42 43 39 34 38 36 40 37 33 33 29 31 31 32 35 29 29 28 27 29 29 29 31 34 32 30 34 31 28 38 35 27 32 33 33
45 45 45 45 45 45 46 46 45 44 45 45 41 43 44 38 41 45 43 42 42 42 38 36 31 30 36 33 35 33 28 31 29 26 31 33 36 34 33 33 38 39 40 42 38 38 41

GFSGBSN_sfc_dewp_054.txt.gz
Dewpoint
50 50 50 50 50 50 50 51 52 53 53 52 52 51 49 49 50 51 51 52 53 53 52 52 55 56 53 45 42 45 58 56 46 36 31 27 27 26 21 20 24 23 22 23 23 40 41
49 49 50 51 51 50 50 49 52 52 53 53 52 52 52 51 49 51 51 51 51 52 53 52 53 56 50 43 37 40 50 47 36 32 32 31 29 27 26 26 27 28 27 25 21 39 39
48 49 49 51 51 51 51 52 52 52 52 52 52 52 52 52 52 51 51 51 51 51 52 51 52 54 48 44 42 42 46 44 39 33 30 31 32 29 28 27 32 27 24 23 22 35 38
48 49 49 50 51 51 51 52 51 51 52 52 52 52 52 52 51 52 51 51 51 51 51 52 52 52 44 46 45 44 44 42 40 37 32 31 29 30 30 31 27 25 26 20 22 37 39
47 47 48 50 50 50 51 51 51 51 52 52 52 51 53 52 51 51 51 51 50 50 51 53 50 49 43 48 44 43 40 35 35 38 32 28 29 27 29 25 24 26 21 22 22 29 39
48 47 48 49 50 50 50 51 51 51 51 52 52 51 52 52 51 51 51 50 49 51 50 53 52 44 42 28 35 35 38 34 32 35 31 27 28 25 25 24 20 21 22 22 18 33 38
47 47 46 47 47 47 48 49 50 50 50 51 51 51 51 51 51 51 49 44 38 44 48 46 44 40 32 31 38 32 34 31 31 30 24 30 26 24 24 25 25 24 23 22 21 26 35
46 46 46 47 48 49 49 50 51 51 51 51 51 51 51 51 51 51 48 41 41 39 36 39 44 44 42 41 38 35 31 26 31 30 26 26 25 26 27 27 27 26 25 24 21 27 26
45 46 47 47 48 49 49 49 50 51 51 51 51 51 51 50 50 48 44 40 41 44 39 37 37 40 40 42 39 32 30 28 32 32 28 24 26 26 26 25 25 26 26 22 19 25 26
45 46 47 46 47 48 49 49 50 51 51 51 51 50 50 49 46 43 42 44 43 44 36 32 31 30 32 32 32 32 32 23 31 29 30 27 25 25 27 26 26 25 25 21 24 23 19
45 46 48 47 47 49 50 50 51 50 50 50 51 50 50 49 44 42 42 43 45 45 -0 7 22 30 29 22 26 27 26 29 27 28 28 27 28 27 26 26 27 26 28 24 27 25 24
46 46 46 47 49 49 49 50 50 50 50 51 51 51 50 47 46 45 43 44 47 36 22 24 26 22 23 23 24 26 29 31 30 26 26 25 26 26 26 27 27 27 28 28 29 26 23
46 46 46 48 48 49 49 49 50 50 50 50 50 50 49 44 38 42 42 45 35 25 18 9 28 28 20 20 18 25 24 26 25 24 24 23 24 25 26 24 27 26 24 22 23 24 23
45 45 46 47 47 48 48 49 49 49 50 50 50 50 49 46 43 42 44 40 27 22 15 18 18 29 27 23 20 22 25 22 25 26 25 24 24 25 26 24 23 25 25 25 21 25 27
44 45 45 46 47 48 48 48 48 49 49 50 50 48 46 46 44 44 39 31 26 23 18 17 13 12 29 29 29 23 25 24 25 24 23 25 24 25 24 24 25 26 25 28 31 34 29
42 45 45 45 46 47 47 48 48 49 49 49 47 45 43 45 45 43 35 30 30 29 26 25 17 21 19 22 25 28 28 29 27 28 26 27 25 26 24 26 24 25 28 26 31 26 24
43 44 45 45 46 46 47 47 48 49 49 49 46 40 43 45 46 39 29 29 30 31 30 29 24 20 23 24 23 22 27 30 29 29 29 25 26 26 29 26 23 26 25 29 30 31 25
44 45 45 45 46 46 47 47 48 49 49 48 44 35 43 44 35 34 28 28 32 28 30 28 29 25 24 26 26 24 25 27 33 30 27 27 26 23 23 26 26 25 26 28 28 27 30
44 44 45 45 46 46 46 47 48 48 49 47 40 38 45 41 29 29 28 28 31 30 29 27 26 27 24 25 23 28 29 32 38 37 31 28 26 24 22 24 27 24 25 26 31 33 30
44 44 45 45 46 46 46 46 47 48 49 47 37 32 39 40 34 29 27 26 26 31 29 30 30 30 27 25 26 25 26 30 39 40 43 40 29 24 22 24 27 27 25 25 29 29 29
44 44 44 45 45 45 46 47 47 48 49 47 37 34 36 32 33 32 29 27 26 25 30 31 29 27 28 25 21 21 27 35 37 42 41 38 27 28 25 26 25 23 26 28 25 28 27
44 44 44 45 45 46 46 46 47 47 48 44 33 35 36 32 34 33 31 28 27 28 28 28 27 25 27 26 24 22 25 33 36 40 40 40 34 28 28 26 27 25 23 27 27 29 29
44 45 45 45 45 46 46 46 47 47 48 42 43 40 35 34 32 33 30 28 28 29 29 28 27 26 25 26 28 31 33 36 40 39 39 39 38 34 26 26 25 25 27 27 25 29 29
45 45 45 46 46 47 47 47 46 47 47 45 44 41 36 32 30 30 30 30 28 30 28 28 28 27 29 28 36 40 40 40 41 42 42 37 37 36 28 28 23 26 26 27 27 27 29
45 45 45 45 46 45 45 46 47 47 48 46 45 42 38 32 31 29 30 30 31 30 30 30 30 30 31 27 27 24 27 29 32 38 43 40 38 33 27 26 26 27 27 27 28 26 28
44 44 44 44 44 44 44 45 45 46 46 46 45 45 42 35 32 31 29 31 29 30 30 30 32 33 32 28 27 21 20 27 29 35 38 42 39 34 32 28 22 27 29 32 30 26 28
44 44 44 44 44 44 44 44 45 45 45 44 44 44 38 34 35 33 30 30 31 31 29 30 30 30 32 28 24 24 22 29 25 29 32 35 35 33 32 29 30 34 35 32 26 26 31
45 45 45 45 45 45 45 45 45 45 45 44 43 44 39 34 36 37 36 33 32 31 28 30 30 31 31 27 26 25 23 29 28 31 31 31 33 32 33 31 27 38 36 29 35 38 34
46 46 46 45 45 46 45 45 45 45 45 45 40 44 44 39 37 41 42 44 35 33 33 33 31 31 33 30 30 29 26 25 26 24 33 29 32 33 35 34 37 39 38 44 41 39 39

GFSGBSN_sfc_dewp_057.txt.gz
Dewpoint
49 49 50 51 51 51 50 50 51 53 53 53 53 51 51 50 51 52 51 51 51 52 51 51 51 52 53 45 43 44 57 57 46 32 27 26 26 24 20 20 24 20 24 25 26 35 39
48 49 49 49 49 49 49 50 51 52 52 52 53 53 52 51 52 52 52 51 51 52 52 51 51 52 49 40 35 41 50 47 36 33 31 28 24 27 25 25 26 27 27 26 24 39 40
47 47 49 50 50 50 50 51 51 51 51 52 52 52 52 51 52 52 52 52 52 51 52 51 50 48 45 41 44 42 38 42 39 33 29 31 30 31 29 26 29 28 24 24 27 38 36
47 47 47 49 50 51 51 51 51 51 51 51 50 52 52 52 52 51 51 51 52 52 51 51 51 49 42 45 46 45 44 42 41 37 34 32 31 30 29 29 26 24 26 21 24 35 36
46 46 48 48 49 50 51 51 51 50 50 52 52 52 52 51 51 51 51 51 51 51 51 51 48 48 42 47 44 46 42 36 37 38 36 32 30 27 28 25 23 25 17 22 22 30 35
47 47 47 47 48 48 49 50 50 51 51 51 51 51 51 51 51 50 50 51 50 50 48 50 51 43 41 34 33 36 42 36 32 34 35 31 27 26 25 22 19 18 21 25 20 26 37
46 47 47 47 46 47 49 49 50 51 51 51 51 51 51 51 51 50 49 44 35 41 42 42 42 42 37 35 40 37 35 34 31 31 28 27 24 24 24 24 24 24 23 22 23 24 32
45 46 46 44 47 47 48 49 50 51 51 51 51 51 51 51 51 50 48 42 39 40 39 40 38 42 44 43 39 35 34 29 30 27 27 26 24 24 27 27 26 25 24 24 25 25 32
44 44 45 44 45 46 46 48 50 50 51 51 51 51 51 51 51 47 44 42 42 43 39 40 38 35 33 42 39 35 33 27 28 28 27 26 25 26 26 26 25 25 26 25 25 25 29
44 46 45 42 44 46 47 47 48 50 51 51 51 51 50 50 44 44 42 44 42 44 34 28 35 32 35 38 36 33 28 27 31 24 31 28 27 26 26 24 25 23 27 27 23 22 20
44 44 45 45 46 47 48 49 49 50 50 51 51 51 50 50 42 41 40 40 41 45 5 6 26 32 34 28 23 31 30 26 23 30 30 29 28 27 24 24 27 26 30 28 26 25 23
44 44 44 45 46 47 48 48 49 49 50 50 50 51 50 48 47 45 44 41 44 35 18 19 24 27 29 28 22 28 28 31 28 28 28 27 28 27 27 28 27 28 29 29 30 26 23
44 44 44 44 45 46 46 47 48 49 50 50 50 50 49 45 38 42 42 42 36 26 19 12 24 24 24 23 20 24 26 26 25 23 23 22 24 25 27 26 28 27 24 22 20 23 22
42 44 44 44 44 46 46 47 48 48 49 49 50 50 48 47 44 42 42 38 27 24 20 19 17 23 20 21 20 19 25 19 27 26 22 19 21 24 27 25 24 26 25 24 19 22 22
42 43 44 44 44 45 46 47 48 48 49 49 49 48 46 46 44 44 36 29 27 26 22 25 17 19 24 28 24 23 23 22 21 26 24 25 24 26 25 26 25 26 25 27 28 32 29
42 42 43 44 44 45 46 46 47 47 48 48 46 45 43 46 45 43 33 28 33 31 30 29 17 20 20 22 24 24 26 27 26 25 27 27 24 27 24 25 26 25 28 26 30 26 24
40 41 42 44 44 45 45 46 47 47 48 48 45 40 44 45 45 38 26 26 28 29 30 29 27 24 24 23 24 22 24 30 31 29 27 25 26 25 27 25 23 25 26 28 30 29 23
43 42 43 44 45 45 45 46 46 47 47 47 43 35 44 44 35 35 28 27 30 27 31 30 31 27 25 26 25 24 24 25 35 35 28 29 28 24 23 25 27 25 26 28 26 25 28
42 42 43 44 44 45 45 45 45 46 47 45 39 38 45 41 29 28 29 27 27 28 28 29 27 29 27 25 20 25 28 31 36 34 37 37 28 23 23 24 26 24 25 26 31 31 28
42 43 44 44 44 45 45 45 46 46 47 45 36 32 38 40 34 29 29 27 26 30 30 31 30 31 28 26 26 24 25 28 29 40 43 41 31 26 24 24 26 26 25 25 28 27 25
42 43 43 44 44 45 45 45 46 46 47 45 36 33 36 31 32 31 29 27 26 26 28 31 29 28 28 27 24 24 24 26 31 41 41 39 34 34 29 25 25 26 26 25 25 26 25
43 43 43 44 44 45 45 45 46 46 47 43 32 35 38 32 34 32 31 28 25 25 27 27 27 29 27 25 25 23 23 25 27 36 38 40 34 36 30 29 26 25 25 25 25 27 28
43 43 44 44 44 44 45 46 46 46 47 41 42 40 38 36 33 32 29 29 29 29 29 26 29 28 28 27 28 28 29 31 34 33 35 36 35 34 30 33 28 26 27 25 26 29 30
44 44 44 44 45 45 45 45 46 46 47 44 43 41 36 32 31 30 31 30 28 29 27 29 30 29 29 31 31 32 36 35 39 42 40 37 36 36 32 31 26 30 29 27 27 27 28
44 44 45 45 45 45 45 46 46 46 47 44 44 42 37 31 34 30 30 32 32 30 30 29 29 30 33 30 26 25 25 26 29 37 41 38 37 33 31 30 31 30 28 28 27 25 27
45 45 45 45 45 45 45 46 46 47 47 45 43 46 40 35 33 33 30 31 31 29 29 31 33 34 32 29 27 22 19 22 27 33 40 39 36 31 31 27 25 30 30 30 30 26 29
44 44 44 44 44 45 45 44 44 45 46 46 44 45 41 35 35 35 31 31 31 31 30 31 32 32 32 27 24 24 23 26 21 25 29 34 34 31 31 30 30 35 36 39 30 28 34
44 44 44 44 44 44 44 44 44 45 44 45 42 46 42 36 36 38 36 33 32 31 28 30 30 30 30 26 26 25 22 26 25 29 27 29 30 30 32 30 26 38 38 38 37 37 38
45 45 45 45 45 45 44 44 44 45 44 45 40 44 46 39 38 41 41 40 35 32 31 33 30 31 32 29 28 27 23 22 26 23 32 26 29 29 31 31 39 38 40 41 44 42 38

GFSGBSN_sfc_dewp_063.txt.gz
Dewpoint
45 45 46 48 49 49 49 49 49 51 51 51 51 51 51 50 51 51 52 52 51 50 50 50 52 51 48 40 31 40 54 59 55 38 28 25 27 26 23 19 20 20 20 21 22 25 28
47 47 45 46 48 49 48 49 49 50 50 51 51 51 51 50 50 50 51 51 51 51 50 49 51 50 45 31 29 42 41 45 39 31 29 26 23 26 23 21 22 25 22 23 27 25 33
46 46 46 47 48 47 47 48 49 49 50 50 51 51 52 51 50 50 51 51 51 50 51 49 50 47 42 31 36 38 41 40 38 32 30 29 27 26 27 27 28 27 25 25 24 24 31
49 47 47 47 48 48 48 47 47 48 48 49 50 51 52 52 52 51 51 51 51 50 50 51 50 46 38 39 44 44 43 38 38 35 36 32 31 27 26 29 26 25 25 22 20 33 36
46 48 46 46 47 48 47 47 48 48 49 50 50 52 52 52 52 51 51 51 50 49 51 52 47 43 34 42 42 43 42 33 34 34 36 33 31 28 28 23 24 25 20 20 18 28 35
45 45 47 46 45 45 45 44 48 49 49 50 50 51 52 51 51 51 51 50 48 50 48 47 45 33 33 18 33 40 44 39 30 34 34 34 29 26 26 21 15 22 22 22 20 27 31
45 45 45 46 43 43 45 43 46 48 49 49 50 50 51 51 51 51 49 42 38 37 39 39 39 31 31 42 43 39 41 39 33 33 32 33 29 25 22 26 23 22 21 20 20 21 23
45 44 46 45 42 43 44 43 45 47 48 48 49 50 51 51 51 51 45 38 40 39 36 37 38 38 40 40 38 35 37 34 31 23 30 28 29 29 26 26 23 23 22 22 23 25 24
45 45 45 44 42 42 45 43 41 47 47 48 49 50 50 51 51 44 43 42 41 40 36 34 35 35 34 35 33 29 33 33 28 27 27 26 25 29 26 25 24 24 24 24 21 24 25
45 45 44 44 42 42 41 41 44 45 46 48 49 49 50 50 43 43 38 42 43 42 33 29 33 35 31 34 32 31 27 29 29 25 28 23 27 26 26 24 24 23 25 24 23 21 21
45 44 44 44 43 43 44 45 45 46 46 47 48 49 49 49 44 41 40 45 43 45 17 18 30 32 34 25 22 32 30 27 24 27 29 26 28 26 24 23 25 20 27 26 24 24 25
43 42 43 44 44 45 43 44 45 45 46 46 47 48 49 46 47 45 45 43 43 32 17 23 26 30 31 30 28 31 28 28 27 29 30 25 30 27 23 27 26 27 26 28 29 27 24
42 43 42 44 44 44 42 42 44 44 45 45 47 48 47 47 42 43 43 40 29 22 25 18 21 23 24 25 29 28 26 24 21 25 28 27 25 27 28 26 27 26 26 22 23 25 23
42 44 43 44 44 43 42 43 44 45 45 45 47 47 45 47 47 45 42 34 23 20 27 27 25 24 21 24 24 25 25 20 23 22 22 22 21 25 27 27 26 26 24 25 20 22 21
41 41 42 43 42 42 42 42 43 44 45 45 46 44 44 46 48 47 38 25 20 22 28 28 26 21 24 24 24 24 24 21 19 26 21 22 20 23 26 27 27 27 25 28 27 31 27
40 40 41 43 43 43 42 42 42 42 43 45 42 41 40 47 48 43 33 26 22 31 29 29 25 26 22 23 24 24 25 25 24 27 29 27 24 26 24 26 26 27 28 24 28 22 22
40 40 40 41 42 43 41 42 41 42 43 45 40 36 41 47 46 38 28 28 25 24 24 27 27 26 25 23 22 27 26 22 25 31 29 28 25 25 28 24 23 24 25 28 27 28 23
39 40 40 40 40 42 41 41 41 42 44 41 39 31 44 47 34 35 31 31 29 24 28 28 29 29 27 24 22 22 25 27 28 25 29 29 30 25 24 25 26 25 26 28 26 25 29
40 42 40 40 40 42 41 40 41 43 44 41 36 35 44 44 28 29 34 31 28 25 26 28 27 30 29 26 21 25 25 28 29 25 25 38 29 24 23 25 26 24 25 28 31 30 26
39 40 40 39 40 42 41 40 41 42 43 42 36 30 36 39 37 31 31 30 27 29 27 26 29 29 27 26 26 23 22 25 31 29 40 41 35 28 22 27 31 26 25 25 27 28 26
40 40 40 39 40 40 40 40 41 43 44 41 36 31 35 28 29 33 31 29 26 25 27 28 26 27 26 23 24 22 22 24 24 35 35 39 32 35 34 32 32 31 29 27 23 25 25
39 40 40 40 41 41 40 41 43 44 44 39 32 34 36 32 34 31 33 28 26 26 27 26 27 28 29 26 25 22 25 24 24 28 29 31 33 34 30 32 30 29 29 27 25 26 26
40 41 41 41 41 40 40 42 43 44 43 38 39 39 36 29 31 32 32 29 27 28 29 27 28 28 27 27 29 29 30 30 29 28 28 29 34 31 25 32 29 28 28 27 28 28 28
42 43 42 42 42 42 42 43 43 44 43 41 40 40 34 28 31 30 31 31 29 28 28 29 29 29 29 32 33 33 32 31 31 30 30 28 34 33 29 29 19 29 32 29 30 29 30
44 44 45 44 43 43 43 43 43 43 43 42 42 40 35 29 29 33 32 31 30 31 30 30 31 34 34 32 30 28 25 26 29 30 30 32 30 33 28 25 24 21 29 33 33 29 38
44 43 43 43 45 43 43 43 43 44 44 43 42 43 40 31 28 30 33 32 29 31 32 33 36 37 34 33 30 24 22 20 22 31 34 32 34 34 31 27 22 27 33 37 38 27 38
43 44 44 43 43 44 44 44 44 44 45 43 42 43 39 33 34 33 31 34 33 31 31 32 33 33 35 32 28 27 25 25 21 27 27 31 33 31 31 29 28 31 35 38 24 26 38
43 43 44 44 44 44 44 45 45 45 45 44 42 44 40 34 36 37 36 36 34 33 31 33 34 34 33 29 28 27 27 26 24 25 30 30 29 30 31 30 24 33 36 31 35 38 39
45 45 45 45 44 44 44 43 43 43 45 45 40 44 43 38 37 42 41 40 36 34 34 35 33 31 32 30 30 30 28 28 26 22 31 25 32 32 32 32 34 37 37 38 40 40 40

GFSGBSN_sfc_dewp_066.txt.gz
Dewpoint
46 47 47 46 47 49 48 48 49 51 50 50 50 50 50 50 50 50 51 51 51 50 50 49 49 50 45 26 10 15 52 55 49 40 30 28 27 23 20 17 19 21 14 17 20 19 22
45 45 46 45 45 47 46 47 48 49 51 51 51 51 50 50 50 51 51 52 52 52 51 50 49 50 42 25 15 30 38 38 39 38 30 27 25 25 21 19 19 17 18 16 16 20 23
48 48 45 47 47 46 46 47 47 48 49 50 50 51 51 51 51 51 52 52 52 51 51 50 50 45 41 27 24 25 24 28 39 34 33 34 29 24 20 21 21 20 20 19 21 22 21
47 47 49 47 49 48 48 48 47 46 48 50 50 51 52 52 52 52 52 52 51 52 51 51 50 46 37 27 32 34 31 26 25 37 33 30 33 29 26 23 25 21 21 17 16 17 23
46 45 46 47 47 47 48 46 46 46 47 48 50 51 52 52 52 52 52 51 51 50 51 51 47 44 29 37 34 31 37 30 21 34 34 33 33 30 28 22 19 23 16 18 16 19 23
44 46 45 45 47 45 44 44 46 46 48 48 49 50 51 51 51 51 51 50 47 49 47 45 43 37 31 25 22 36 43 40 28 23 30 34 31 28 26 21 16 17 19 16 17 20 24
46 47 43 44 46 43 43 43 44 46 47 48 48 49 50 51 51 51 46 37 32 34 34 30 32 35 35 31 36 32 43 41 34 21 28 34 28 25 24 24 20 16 17 15 13 17 18
46 45 45 45 46 43 42 43 45 45 46 47 47 48 50 50 51 50 44 38 39 38 35 34 33 32 31 34 33 35 41 36 34 20 23 32 30 26 25 23 21 18 17 16 15 21 21
44 45 46 44 43 43 43 43 43 45 46 47 47 48 48 50 50 46 41 39 41 40 33 30 32 31 31 31 30 30 32 31 28 29 19 26 24 28 27 23 21 19 17 18 16 21 21
43 45 45 44 44 45 42 42 43 44 45 47 48 49 49 49 44 41 38 42 42 43 31 23 30 32 33 30 28 30 34 32 23 24 26 22 19 24 26 25 21 19 19 19 20 20 10
44 44 45 46 44 45 44 43 43 45 46 46 47 48 48 48 41 39 39 43 43 43 12 18 25 33 29 25 20 25 34 31 24 21 26 23 19 19 22 21 22 21 20 23 22 20 17
43 44 43 43 44 45 44 45 44 44 44 46 46 47 48 41 45 41 43 44 42 31 8 20 25 28 28 27 22 31 26 28 29 31 32 29 26 22 19 21 24 23 22 23 23 20 20
43 43 42 43 44 45 44 44 43 43 44 44 45 46 45 42 37 44 45 39 29 16 14 19 21 24 23 21 26 26 28 24 21 22 25 27 23 25 24 20 24 23 22 21 20 22 18
42 42 43 43 45 44 45 43 43 44 44 44 45 46 43 40 43 46 43 34 21 10 15 22 26 23 16 23 24 26 27 23 23 21 17 18 21 23 27 23 23 23 22 21 18 20 20
42 41 41 42 41 44 44 43 44 43 44 44 45 40 41 40 45 47 38 27 13 14 21 27 23 19 20 23 23 23 24 22 21 21 18 20 21 24 26 26 24 25 24 24 24 29 24
42 41 41 42 42 43 43 42 43 42 42 43 41 40 36 41 47 45 35 25 20 21 29 28 19 22 21 22 23 28 26 26 25 20 22 22 21 23 24 26 26 26 25 24 25 22 21
42 42 41 41 42 42 43 43 43 42 42 42 41 35 36 43 46 39 30 25 25 22 23 26 26 25 24 22 21 30 34 31 28 23 22 25 25 25 23 26 22 25 25 26 24 23 23
39 39 41 40 40 41 40 42 43 41 42 41 37 30 43 47 34 34 30 26 32 23 23 23 27 27 27 25 22 24 30 27 29 30 25 27 28 24 23 24 23 22 24 25 24 24 26
40 41 40 41 41 41 41 41 42 42 42 42 33 31 43 44 29 29 31 28 29 26 23 22 24 28 27 25 21 20 32 31 27 28 30 34 25 20 20 23 25 24 24 24 25 25 25
40 41 43 39 40 40 40 41 43 42 43 43 36 31 34 39 35 30 27 25 27 28 25 24 25 28 26 25 24 22 21 28 32 32 39 38 32 23 16 18 26 24 23 23 26 26 24
39 39 39 39 38 40 40 41 43 43 43 43 37 32 28 30 30 30 29 26 28 25 27 25 24 24 24 23 23 22 23 21 27 32 29 33 35 34 32 32 31 30 29 26 22 23 24
39 38 39 40 40 39 40 41 42 42 43 39 33 33 35 29 35 31 28 28 25 23 25 23 25 24 27 25 24 22 24 24 23 28 27 30 33 31 26 28 29 28 28 28 27 26 25
39 39 40 39 39 39 41 41 42 42 43 39 39 38 37 27 27 27 30 27 29 30 27 25 27 28 29 29 30 29 30 30 29 28 27 27 30 28 23 26 23 25 29 28 27 27 27
40 41 41 41 40 40 41 41 42 42 43 42 40 38 32 26 26 23 23 28 31 30 29 28 28 30 31 33 33 32 31 30 30 29 29 25 33 29 27 28 20 29 30 28 28 30 29
43 43 42 42 43 43 43 42 42 42 43 44 43 39 34 28 24 23 24 25 27 33 30 30 31 35 38 36 31 26 28 28 28 29 28 30 29 33 24 22 22 19 28 28 26 32 32
44 44 43 44 45 45 44 43 42 42 43 44 41 42 38 33 25 23 24 25 28 28 31 35 39 41 39 33 29 23 22 20 22 30 30 28 30 30 31 22 16 22 33 35 36 22 28
44 44 43 44 45 45 44 45 43 43 43 42 41 43 39 32 33 28 25 26 30 33 29 33 37 37 39 32 29 25 22 24 21 28 30 28 29 27 28 27 23 26 33 37 22 27 33
44 43 43 43 43 43 44 45 44 43 43 42 41 43 40 35 34 35 32 29 31 35 32 35 36 36 36 31 28 26 27 23 22 25 28 27 26 28 27 26 26 34 30 26 35 35 38
44 44 44 45 45 44 44 44 44 44 44 44 39 44 43 39 36 39 37 36 33 34 35 37 29 32 34 30 30 29 27 33 24 22 26 27 27 29 27 28 36 37 35 41 41 40 41

GFSGBSN_sfc_dewp_069.txt.gz
Dewpoint
46 46 46 47 46 46 47 46 48 49 49 50 50 50 50 50 50 51 52 52 53 52 51 51 51 50 44 33 27 16 51 52 46 40 37 29 29 27 22 17 15 17 16 15 14 12 15
47 48 46 45 46 47 46 46 47 47 48 50 51 51 50 50 51 51 52 52 52 52 52 51 51 50 40 34 32 17 19 15 25 39 36 30 27 26 22 19 18 17 16 17 14 14 16
47 47 49 49 47 47 47 48 46 46 47 48 49 51 51 51 51 51 51 52 52 52 52 51 51 45 36 32 31 26 17 17 11 21 33 32 28 25 26 23 21 19 16 16 17 14 13
47 46 46 46 48 48 47 46 47 45 45 48 48 50 52 52 51 52 52 52 51 52 52 51 51 44 32 30 30 28 27 23 21 15 18 30 33 31 27 23 19 19 18 16 17 16 17
47 46 45 46 46 47 47 46 45 46 45 46 48 49 51 51 51 51 51 51 51 52 51 51 48 42 29 37 28 25 27 25 29 28 19 25 29 30 30 25 21 22 17 18 18 17 16
45 46 47 46 45 45 47 45 45 46 46 45 47 48 50 51 51 50 50 50 48 49 48 43 40 38 34 22 26 25 38 38 34 30 21 27 28 27 26 24 19 18 17 18 18 18 17
44 44 45 46 44 45 46 44 44 47 45 45 46 47 48 50 50 49 47 39 32 38 34 24 25 31 24 23 31 29 32 36 38 35 30 19 22 24 24 25 23 19 17 17 19 17 19
45 44 46 46 46 46 46 44 45 46 45 44 46 47 47 49 50 49 46 35 37 39 35 32 30 29 28 26 22 27 38 36 36 34 32 13 19 21 23 24 23 21 18 18 18 16 18
44 45 44 44 45 44 43 43 44 44 45 46 46 47 47 49 48 45 39 37 39 41 33 26 28 27 27 28 25 23 34 37 36 35 36 23 16 22 24 24 23 23 22 21 18 17 20
45 45 44 44 45 45 45 45 43 43 45 46 46 46 49 48 43 41 35 38 40 43 30 21 23 29 31 30 26 24 27 35 35 33 34 30 22 23 25 25 24 22 21 20 18 18 17
45 45 44 44 45 46 45 45 43 43 44 45 46 46 48 46 39 34 36 40 43 42 11 16 24 31 29 26 21 25 27 34 33 33 33 34 28 21 24 25 25 24 23 21 20 20 21
44 44 44 44 44 45 45 46 45 44 44 44 45 46 46 39 41 38 39 44 42 34 9 14 21 23 28 26 25 27 24 29 32 35 35 31 32 32 22 20 23 23 23 22 23 22 21
42 42 43 43 43 44 44 45 46 44 43 43 45 45 43 37 37 43 44 41 28 17 2 6 18 21 19 17 22 23 26 28 30 32 32 31 30 30 30 18 24 20 22 21 21 21 21
42 42 43 43 43 44 44 45 44 44 44 43 44 45 41 36 39 42 41 34 20 1 7 5 16 16 8 11 23 25 26 23 28 29 29 32 27 28 26 22 20 22 22 23 22 23 21
41 41 42 43 42 42 43 43 43 44 44 43 44 37 37 39 41 44 40 28 13 8 4 12 18 8 8 17 22 24 26 26 26 26 29 26 24 27 31 25 23 23 21 23 22 28 26
40 41 41 43 42 42 43 43 42 42 42 43 35 34 35 41 43 44 35 24 17 14 22 20 12 8 14 16 22 26 26 30 30 29 29 29 24 26 32 28 27 27 24 22 21 24 24
39 40 41 42 42 43 43 42 42 43 41 43 35 34 33 40 44 39 30 24 21 17 17 21 17 15 18 19 20 28 32 34 34 31 30 25 23 28 28 31 26 24 23 25 24 24 23
39 40 40 41 41 40 41 39 42 43 43 40 33 33 40 42 35 34 30 26 26 21 21 19 20 21 22 22 22 22 35 29 33 31 30 24 25 26 26 28 29 26 26 26 25 24 26
40 40 40 40 41 41 41 41 41 42 42 32 33 30 39 44 30 30 28 23 22 21 20 20 18 19 21 21 22 21 31 36 33 30 30 34 26 22 24 29 25 27 28 26 28 29 32
39 39 40 41 41 40 42 41 42 42 42 40 37 32 30 40 35 29 26 25 21 25 22 21 23 19 20 24 27 22 23 30 32 31 37 34 32 28 24 25 24 25 24 24 26 28 26
38 39 39 40 41 41 41 41 41 42 42 41 36 32 30 30 30 28 28 27 21 19 24 21 21 21 23 23 25 23 22 23 25 33 32 32 35 35 26 31 27 25 24 23 23 25 24
39 39 39 38 39 40 41 40 42 41 42 41 34 30 30 28 28 27 26 25 23 20 22 23 21 19 21 20 21 20 21 24 25 26 29 32 32 37 32 27 28 26 25 24 24 25 25
39 40 40 39 39 40 40 39 41 41 42 39 38 34 35 28 27 28 28 23 21 23 23 26 25 21 22 25 30 32 31 31 28 28 27 27 32 33 32 31 28 26 28 28 29 28 29
40 41 41 41 40 40 40 41 42 42 42 41 38 34 32 26 25 22 21 30 26 25 28 30 26 26 30 35 34 32 31 29 29 29 29 27 29 30 31 32 24 32 30 29 31 30 29
42 42 43 44 43 42 42 42 42 42 43 43 36 39 34 28 20 19 22 24 26 29 31 32 31 33 38 36 32 27 27 27 29 28 28 28 28 30 26 28 31 24 30 32 34 31 29
43 43 44 44 43 44 43 43 43 42 42 41 39 42 39 34 25 19 19 21 24 28 33 32 40 40 39 37 34 25 23 23 22 24 27 26 29 30 29 27 23 27 31 34 29 30 28
44 44 44 44 44 44 44 44 43 43 43 41 37 43 39 34 28 33 27 25 24 27 30 32 37 38 39 34 31 26 24 22 22 28 25 27 28 26 28 25 21 27 31 34 26 32 33
44 44 44 44 44 44 45 45 45 44 43 43 39 43 39 35 31 30 31 31 28 29 34 36 35 37 35 34 30 27 27 26 22 25 27 25 26 26 26 24 22 32 29 30 36 37 38
44 44 44 44 44 44 44 45 45 44 44 43 39 43 43 37 37 39 33 33 36 36 37 38 35 37 36 32 33 32 28 32 23 22 29 26 25 26 24 26 35 37 38 39 40 38 38

GFSGBSN_sfc_dewp_072.txt.gz
Dewpoint
48 48 47 46 46 46 47 47 47 48 48 48 49 50 50 50 50 51 52 52 52 51 51 51 51 51 45 29 31 30 54 54 43 41 35 32 29 26 25 23 21 17 14 13 14 15 14
46 47 49 49 48 46 47 47 47 48 49 49 50 49 50 51 51 51 51 52 52 52 52 51 51 51 43 30 26 27 23 15 11 19 37 32 29 27 25 24 21 19 14 12 14 15 16
49 47 46 48 47 48 48 47 46 47 47 48 48 49 49 50 50 50 50 51 51 51 52 51 51 47 40 28 20 23 28 23 15 14 16 34 31 26 25 24 22 19 16 17 15 15 16
47 48 47 47 47 47 48 48 46 45 46 46 46 49 50 50 51 51 50 50 50 51 52 51 51 46 36 31 26 26 29 28 30 22 15 15 26 30 31 27 23 20 19 17 16 15 15
46 46 46 48 47 46 46 48 47 45 44 46 46 48 50 50 51 50 50 49 48 50 52 52 48 44 34 37 30 25 24 26 26 25 21 18 20 30 30 27 24 21 17 16 15 15 16
45 45 45 45 47 46 45 46 46 46 46 46 46 46 49 49 49 49 48 48 47 49 45 43 43 37 35 27 25 28 29 36 32 30 28 21 18 26 27 26 24 21 17 16 17 17 18
45 44 45 44 47 46 46 47 46 47 46 47 45 45 47 49 49 48 45 41 31 35 40 30 28 30 26 26 21 21 27 31 35 33 29 21 23 23 25 26 26 23 20 17 16 18 19
46 44 45 45 44 44 47 45 46 47 45 45 46 46 47 48 48 48 42 39 34 36 33 33 30 28 26 25 23 22 24 32 32 31 31 30 23 27 24 25 23 23 23 22 19 18 19
45 46 45 46 44 44 44 45 47 46 45 46 46 46 46 48 48 42 41 36 36 39 34 29 24 22 23 26 25 24 19 28 31 30 32 34 30 25 24 17 23 24 23 23 19 18 19
45 45 46 46 45 44 45 46 46 45 45 46 46 46 48 48 42 39 35 36 38 44 31 24 26 27 30 28 26 23 21 24 35 33 31 38 39 26 30 28 19 22 24 24 21 21 19
45 45 45 45 44 45 45 44 44 44 45 45 45 45 46 46 38 33 34 38 40 41 20 21 21 30 27 26 25 23 22 24 30 32 36 34 35 32 30 29 23 24 30 30 23 21 23
41 43 44 43 44 44 44 45 45 45 45 45 44 44 46 38 39 38 38 41 43 34 18 15 23 26 26 27 25 26 22 27 32 30 32 31 33 35 35 34 28 28 28 33 28 25 21
41 42 42 43 43 43 44 44 44 44 44 44 44 44 43 36 34 39 43 39 31 21 3 0 10 18 18 15 8 23 24 25 25 28 27 31 30 34 35 32 31 28 34 30 26 23 23
40 41 42 42 42 43 44 43 44 44 44 43 44 45 41 35 36 42 39 33 24 10 12 5 12 7 10 4 3 22 24 23 24 28 26 29 29 31 36 32 31 27 31 25 23 24 22
39 40 40 41 42 42 43 43 43 42 45 43 44 39 38 39 42 42 39 27 17 14 7 2 2 12 11 -1 15 17 26 23 25 26 27 29 28 31 34 35 34 31 26 27 26 28 29
40 40 40 40 41 42 43 43 43 43 41 43 37 37 35 41 44 43 34 27 21 17 12 17 13 11 4 6 18 20 26 34 34 31 28 29 31 31 33 33 37 34 32 29 25 24 28
41 41 40 40 40 41 42 42 42 42 42 41 39 35 33 42 44 38 28 26 22 21 20 14 16 15 11 10 13 15 24 37 34 31 31 30 34 30 34 36 33 31 27 29 26 24 27
40 40 40 41 40 41 41 42 41 41 41 41 39 31 37 43 34 34 30 27 27 19 19 17 18 18 19 20 18 20 20 34 32 31 30 35 33 27 25 26 35 32 30 28 28 26 25
40 40 40 40 41 41 41 41 42 41 41 41 36 26 37 45 29 30 27 25 24 21 18 17 18 18 17 16 16 19 23 34 34 35 33 32 31 23 24 25 36 34 33 33 32 34 31
40 40 40 40 40 41 41 40 42 41 41 41 37 30 28 40 34 29 25 26 22 23 18 19 18 19 19 15 16 24 28 33 33 31 37 36 31 29 25 29 35 33 31 32 33 33 33
39 38 39 39 40 40 41 40 41 40 42 41 37 31 32 29 31 29 28 32 23 20 19 19 18 17 17 21 17 22 20 26 32 34 33 36 34 36 35 33 34 36 32 32 31 32 30
38 39 39 40 40 40 40 41 41 41 41 39 35 27 26 32 30 26 25 23 22 25 22 20 20 17 16 16 17 20 19 23 29 31 29 33 31 32 29 30 32 37 32 32 34 32 29
38 39 40 40 40 40 40 40 41 41 42 38 35 32 32 29 28 27 30 24 19 21 23 28 27 26 25 23 28 30 31 34 33 30 30 28 31 33 29 35 34 29 32 32 30 29 30
39 39 40 41 41 41 41 41 42 41 41 41 39 32 32 25 22 24 25 25 25 23 22 19 23 27 30 34 32 31 29 27 29 30 28 28 29 32 30 31 25 30 37 34 34 36 37
41 41 41 42 43 43 43 42 42 42 41 42 37 39 34 28 21 19 20 23 28 27 26 25 25 37 39 33 28 25 26 27 27 26 26 30 29 29 29 27 31 29 36 39 32 37 40
41 41 42 43 43 44 44 44 42 42 41 42 39 42 38 34 25 20 19 21 24 26 26 30 39 41 36 34 32 24 19 20 22 23 26 27 31 30 31 26 25 29 37 40 39 34 37
43 43 43 44 44 44 44 43 44 43 42 40 37 43 39 33 28 29 29 29 27 23 27 30 37 36 37 30 28 28 24 24 23 23 25 27 29 27 29 29 25 28 38 41 31 34 39
43 44 44 44 44 44 44 44 44 44 43 42 37 42 39 35 30 29 29 31 33 32 32 36 36 35 35 29 27 27 28 28 26 26 26 26 27 28 27 25 23 35 35 32 39 41 36
43 44 44 44 44 44 44 44 45 44 44 43 35 38 43 37 30 35 35 34 33 33 39 37 36 36 33 32 31 35 31 34 28 24 27 25 27 28 25 27 38 39 38 39 39 37 36

GFSGBSN_sfc_dewp_075.txt.gz
Dewpoint
47 47 49 50 49 47 47 47 49 50 49 49 49 48 49 49 49 50 51 52 51 50 50 50 51 51 47 35 31 35 57 57 53 43 38 36 28 23 24 25 27 25 22 19 18 17 17
48 49 47 47 48 48 49 48 48 49 49 49 49 49 48 48 49 49 50 51 50 50 51 50 51 51 45 32 26 24 25 27 20 18 19 32 33 28 28 27 24 25 24 21 20 16 14
47 48 49 48 48 47 47 48 49 48 48 47 48 48 47 48 48 48 50 50 50 50 50 49 51 48 42 36 28 31 29 27 27 26 18 16 18 21 30 28 27 26 23 22 19 18 15
46 46 47 47 48 49 48 47 48 48 46 46 46 48 48 49 49 50 50 49 49 49 49 50 51 47 40 38 37 35 30 28 28 30 28 20 18 18 29 32 30 27 23 20 20 19 18
45 45 45 46 47 48 48 48 48 48 46 45 47 48 47 48 49 49 49 48 48 48 50 51 48 46 39 41 36 34 31 27 27 28 26 21 23 19 31 30 27 26 21 22 19 19 17
45 45 45 46 45 46 47 48 48 48 47 46 46 47 48 49 49 48 48 47 45 47 46 44 43 43 42 33 25 23 26 36 36 31 29 27 23 17 29 29 24 25 23 20 18 18 17
46 46 45 45 46 45 45 46 48 48 48 46 45 46 48 48 48 48 45 37 34 36 34 35 37 39 36 31 24 19 20 31 35 34 30 29 18 17 19 28 28 27 26 24 21 19 20
45 45 45 46 46 45 45 44 46 48 47 46 46 46 47 48 48 48 43 38 35 34 33 35 34 32 31 28 24 24 22 26 32 31 32 30 22 23 24 27 26 27 25 23 23 24 23
43 44 45 46 46 46 45 45 45 47 47 46 47 46 46 48 48 43 38 39 39 39 35 31 29 29 30 30 27 26 24 20 30 29 31 30 32 34 32 22 25 24 23 23 22 23 24
45 45 46 46 46 46 45 45 45 45 45 47 46 47 47 48 42 37 34 35 40 41 31 26 27 23 27 30 28 27 25 19 35 33 36 37 37 35 36 28 25 25 28 26 23 25 28
41 41 43 44 45 45 45 45 45 44 44 46 46 46 46 46 40 35 35 39 40 40 20 26 25 28 29 27 26 23 24 21 31 32 36 30 36 34 36 31 27 27 32 31 33 34 33
40 41 42 42 43 43 43 44 44 44 44 44 46 46 46 41 39 37 37 38 41 30 20 22 26 25 25 27 27 26 23 27 31 32 34 32 32 36 36 34 31 35 34 32 35 34 30
41 40 41 42 43 43 43 43 44 44 44 45 45 45 42 41 34 36 36 38 30 23 20 12 25 27 27 23 26 27 22 25 28 27 28 28 30 33 36 33 33 33 33 31 30 30 29
41 41 40 40 41 41 42 42 44 43 43 43 45 45 42 39 39 37 38 34 22 20 10 11 16 16 13 13 13 21 22 22 27 28 27 25 25 32 34 34 32 31 36 32 27 26 24
39 40 39 40 41 41 41 42 43 44 44 43 44 39 38 39 40 39 37 24 20 14 14 14 13 9 14 13 12 21 25 25 25 25 26 27 27 32 33 35 36 35 35 34 33 30 32
39 40 41 41 41 41 41 41 43 43 43 42 40 39 36 38 40 39 32 24 21 20 21 21 15 15 13 9 16 21 29 36 34 32 31 31 28 30 32 38 39 36 36 31 34 28 27
39 39 41 41 41 41 41 41 42 42 42 43 40 35 34 37 41 35 26 25 24 25 25 20 17 16 17 17 19 16 32 36 34 31 31 31 34 30 36 37 36 36 36 37 36 35 28
39 40 40 40 41 41 41 41 41 42 41 41 38 29 34 40 31 33 26 25 28 25 25 24 23 19 19 20 19 19 25 34 34 32 33 37 37 30 28 32 36 34 38 37 34 31 31
40 40 41 40 40 40 41 41 41 41 41 40 34 32 34 40 27 27 29 26 26 25 26 23 21 21 21 18 18 20 31 34 35 34 31 33 34 29 25 27 27 33 37 37 37 37 34
40 40 40 40 40 40 40 40 41 41 42 40 33 27 29 33 34 30 26 25 25 26 25 22 21 21 20 21 22 19 25 35 36 34 38 36 31 28 27 31 35 35 38 36 36 35 33
39 38 39 39 40 40 40 41 41 40 41 39 33 30 32 20 29 31 31 32 28 24 25 23 22 19 20 19 22 23 24 34 34 36 36 36 30 32 32 30 33 33 34 38 35 36 36
38 39 39 39 40 40 40 40 41 41 41 38 32 30 32 32 32 33 28 26 26 27 29 27 23 22 25 19 19 20 26 28 29 36 34 35 30 32 29 29 32 33 36 37 39 36 37
38 39 39 40 40 40 41 41 41 41 41 35 37 34 33 28 26 29 31 29 25 25 24 27 33 32 30 31 33 32 33 33 33 33 36 33 30 28 27 31 32 32 35 38 38 39 39
38 39 39 40 40 41 41 41 41 41 41 38 38 34 28 23 23 22 22 25 34 30 27 27 30 31 36 38 37 34 32 30 34 34 34 29 30 30 28 31 26 32 36 38 39 40 40
40 40 40 42 42 43 43 42 42 42 41 39 37 34 31 23 24 22 23 22 25 31 31 29 30 39 38 35 33 30 25 26 28 28 32 31 31 28 26 27 29 32 39 38 38 37 40
40 40 41 41 43 43 43 44 42 43 41 39 37 38 35 30 24 23 28 28 27 26 29 30 39 40 37 34 30 22 20 23 23 25 26 27 31 28 29 26 25 32 39 38 38 34 40
41 41 41 42 43 44 44 44 43 43 42 39 37 39 36 32 29 29 28 30 33 32 30 30 35 36 35 29 24 23 24 24 22 23 24 25 28 27 27 27 29 37 39 38 32 35 43
42 42 43 43 44 44 44 44 43 44 43 40 37 39 36 32 31 31 30 29 31 33 32 35 34 36 31 25 25 24 25 27 29 33 27 25 28 27 27 25 23 40 40 37 41 43 38
42 43 43 44 44 44 44 44 44 44 45 42 35 37 40 36 31 34 34 34 34 34 36 34 34 35 35 30 29 32 30 32 29 28 34 28 29 29 27 28 39 40 42 39 37 36 36

GFSGBSN_sfc_dewp_078.txt.gz
Dewpoint
49 48 46 47 47 49 49 49 48 49 48 48 47 47 47 47 47 48 50 50 50 49 48 48 49 50 48 38 35 34 52 51 53 46 41 39 30 21 20 23 25 28 28 28 27 24 22
47 48 49 48 47 47 47 47 49 49 48 48 48 48 47 46 46 46 48 49 49 49 48 48 48 49 46 32 29 27 27 28 46 36 29 30 34 30 25 26 26 27 26 27 26 24 21
45 46 47 47 48 49 48 47 46 47 48 47 47 48 48 46 46 47 48 49 49 49 48 47 48 46 41 36 34 28 34 32 29 28 27 24 19 17 23 27 31 29 26 25 25 24 22
45 45 45 46 46 47 48 48 47 46 48 46 46 48 49 48 48 49 49 48 48 48 48 47 48 46 39 39 40 38 37 31 30 29 30 30 24 19 20 29 30 28 28 25 25 23 22
46 45 45 45 46 46 47 48 48 47 48 47 46 47 48 48 49 48 48 48 48 48 47 48 48 46 38 45 40 38 34 31 31 29 30 28 26 20 21 28 27 28 24 24 23 24 22
46 46 46 45 45 46 46 46 47 48 47 47 46 46 48 48 48 48 48 47 46 48 46 46 45 43 42 33 31 22 27 32 34 36 29 25 22 17 26 28 23 24 24 24 22 23 21
46 45 45 45 46 45 45 45 45 48 47 47 46 45 46 48 48 48 45 40 36 33 35 36 39 39 39 38 32 25 24 21 35 35 30 29 22 21 16 24 29 28 27 26 26 27 26
44 44 45 45 45 47 46 45 45 46 46 47 46 45 45 46 47 47 43 37 35 38 34 35 35 33 34 33 31 30 28 21 33 31 33 32 25 25 22 24 24 26 26 25 26 26 24
44 44 45 45 45 46 46 45 45 45 45 46 46 45 45 47 47 42 34 35 38 40 33 32 31 30 31 32 29 23 27 23 29 30 31 30 31 30 26 31 33 26 24 25 24 28 27
43 41 42 43 45 45 45 45 45 45 45 46 46 47 47 47 37 38 34 35 37 39 29 27 29 30 30 31 28 28 27 20 25 30 34 34 37 36 35 34 33 31 25 26 28 30 27
42 40 41 42 42 44 44 44 44 44 44 44 46 45 47 46 40 36 35 36 36 39 12 18 26 28 29 27 27 26 25 24 33 32 34 30 33 34 34 35 35 33 28 29 32 32 33
42 41 41 41 42 43 43 43 44 44 44 44 44 45 46 41 38 39 37 36 39 26 15 21 27 23 28 28 28 23 21 28 31 33 34 31 33 34 34 35 35 32 32 31 33 33 28
40 40 41 41 40 41 42 42 43 43 44 43 44 45 43 41 36 37 37 37 26 20 17 18 25 25 27 26 25 22 22 29 26 26 27 28 29 31 35 33 34 34 33 28 27 28 24
40 40 41 40 40 41 41 41 42 43 44 44 43 45 41 39 39 38 40 34 20 16 17 19 21 23 23 24 24 24 22 23 27 27 27 24 22 31 35 32 33 34 35 31 23 26 26
39 38 40 41 42 41 41 41 41 42 43 43 44 39 37 38 39 39 36 24 18 19 19 23 21 14 20 11 15 24 22 22 25 27 24 26 26 31 33 34 34 37 35 36 35 36 31
38 39 39 39 41 41 41 41 41 42 42 42 40 37 34 38 39 38 31 23 21 21 22 22 20 20 17 17 19 19 29 36 33 31 30 30 26 30 35 35 37 36 40 34 35 27 26
38 37 39 40 40 40 41 41 41 41 42 42 37 33 33 37 40 34 22 21 21 22 21 24 24 22 19 19 18 19 32 35 33 31 32 34 31 30 37 35 35 37 37 37 35 34 31
37 39 40 40 41 41 40 40 41 41 41 39 33 27 34 40 30 30 24 23 26 21 25 23 25 25 22 21 19 18 27 33 35 33 31 37 33 28 29 31 38 39 37 37 31 31 33
37 39 40 40 40 40 40 40 40 41 41 37 33 31 34 38 25 24 27 25 24 22 22 24 26 24 23 21 17 22 32 35 35 33 32 33 31 25 25 29 36 33 35 36 39 37 34
39 40 40 40 40 40 40 40 40 40 41 38 33 25 29 31 31 29 25 24 24 26 26 23 21 25 24 22 24 21 28 35 35 37 37 36 31 28 24 28 33 34 35 36 38 33 31
40 39 38 37 37 39 40 40 40 41 41 39 32 23 29 26 28 29 29 28 26 23 25 26 24 25 23 20 19 19 26 34 35 38 36 35 28 31 31 31 30 29 34 33 34 36 33
37 37 38 39 39 40 40 41 40 41 41 38 30 29 31 32 33 30 32 27 29 26 32 28 28 28 30 26 26 26 27 28 30 34 34 35 28 30 28 28 30 31 33 31 32 36 35
39 39 39 39 39 40 40 40 41 41 40 35 37 35 33 27 25 26 27 28 32 35 32 30 30 31 30 31 35 34 33 32 32 34 33 33 33 28 23 29 28 28 32 32 32 37 37
38 38 39 39 40 40 41 42 42 42 41 38 38 36 29 22 23 22 22 22 30 32 31 31 33 30 34 39 37 34 32 31 31 33 36 32 31 29 25 28 23 33 34 39 40 40 40
39 39 40 41 41 41 41 42 43 43 42 39 36 35 32 22 25 23 24 26 27 29 28 30 33 37 38 34 30 26 25 25 26 30 32 32 30 25 21 24 23 30 37 39 35 35 42
39 39 40 40 41 42 42 42 43 43 42 38 36 37 35 28 25 27 27 30 29 29 29 30 39 39 35 31 27 21 20 22 22 25 28 31 31 26 26 22 19 32 36 40 41 33 41
39 39 40 41 41 42 42 43 44 44 43 39 37 37 35 30 28 28 25 26 31 31 30 33 32 34 33 26 22 22 23 25 21 22 24 26 27 26 24 24 27 32 40 42 32 35 40
40 41 41 42 42 42 43 44 44 43 43 41 35 38 35 31 30 30 31 28 29 30 28 32 31 35 32 25 24 23 22 25 26 30 30 26 26 25 27 26 22 39 39 36 40 42 41
41 42 42 42 43 43 44 44 44 44 44 42 35 38 39 33 28 35 34 33 31 32 32 35 34 34 34 29 28 30 27 30 30 27 35 30 29 27 27 28 39 41 41 42 41 39 36

GFSGBSN_sfc_dewp_081.txt.gz
Dewpoint
48 49 49 47 47 48 47 47 47 49 48 48 47 47 46 47 47 46 48 49 48 48 47 48 48 48 46 39 35 32 49 40 49 49 47 40 29 22 17 20 24 28 31 30 29 28 26
45 47 47 48 48 48 48 47 47 47 48 48 47 46 46 47 47 46 47 48 49 49 47 47 46 47 41 34 28 29 28 30 33 45 41 35 35 30 24 23 22 25 26 26 27 28 27
44 45 46 46 46 46 46 48 47 47 47 48 47 47 47 47 46 46 48 48 48 48 47 47 47 44 40 37 37 34 35 32 29 28 25 24 20 19 23 19 27 30 28 28 27 26 25
45 45 45 45 46 46 46 48 48 48 48 48 47 47 48 48 48 48 48 48 48 48 49 48 47 44 38 41 40 39 38 35 34 32 29 30 27 21 17 20 26 28 28 25 26 26 25
45 45 45 45 45 46 46 46 46 46 48 48 47 47 48 48 48 48 48 47 48 49 49 47 46 44 37 44 42 41 36 30 30 31 28 28 24 21 21 21 24 28 23 24 25 25 24
47 46 45 45 46 46 46 46 46 46 46 46 47 47 47 47 47 47 46 47 47 47 46 46 46 42 40 31 37 32 35 33 31 35 31 25 22 18 25 24 19 24 25 25 24 24 25
46 45 45 44 44 45 47 46 45 46 46 46 47 47 46 47 46 47 44 40 36 36 37 34 37 39 37 37 34 28 26 24 30 34 28 28 21 19 17 24 25 27 26 26 27 27 26
43 43 44 44 44 45 46 46 46 46 46 45 45 45 45 46 47 47 36 35 34 36 34 37 37 36 36 35 31 30 28 20 32 31 32 32 26 25 23 21 20 22 23 23 26 27 26
43 43 41 43 44 45 45 45 45 45 45 45 45 45 45 47 47 39 35 34 35 35 35 33 32 30 32 33 31 26 28 24 29 30 31 30 31 33 27 24 25 27 28 25 25 27 27
42 39 40 41 42 43 44 44 44 44 44 44 45 45 46 47 36 38 31 35 35 37 29 25 30 31 29 32 29 26 24 23 22 28 30 32 35 35 32 33 33 30 32 30 25 29 24
42 39 40 40 41 42 43 43 43 43 44 45 45 44 46 45 39 36 34 37 37 38 9 13 26 31 31 25 27 25 27 23 23 33 32 30 33 33 33 33 35 31 35 31 31 30 30
40 41 41 41 40 40 41 42 42 43 43 44 44 44 45 40 38 37 38 38 38 25 12 17 27 26 27 28 27 23 23 27 33 34 33 30 33 34 32 34 34 35 32 31 30 32 27
39 39 39 41 40 40 41 41 42 42 43 43 44 44 43 41 35 38 38 37 24 18 14 15 20 23 25 27 26 22 24 28 28 27 28 28 30 32 35 32 34 34 32 24 22 25 22
38 40 38 38 40 42 41 41 41 41 42 43 44 44 42 40 39 38 37 30 17 10 14 19 22 22 22 26 26 23 20 22 28 26 26 24 21 29 35 32 31 33 33 27 21 23 26
40 39 37 39 39 41 41 41 41 41 42 43 42 37 37 38 39 38 32 21 15 17 20 21 21 24 25 25 21 23 21 19 26 28 22 25 25 31 34 34 33 34 33 35 34 33 31
41 39 37 39 39 41 40 41 41 42 41 42 37 36 34 37 39 36 27 20 22 22 21 19 20 29 25 26 20 21 25 35 32 29 29 29 25 29 36 35 35 35 39 34 32 25 25
40 37 37 37 40 40 40 41 41 41 42 41 34 28 32 38 38 33 22 18 21 20 22 23 24 28 30 28 21 18 32 35 34 32 33 33 29 28 35 34 32 35 32 36 36 33 29
38 37 37 40 40 40 41 40 40 41 41 37 32 19 34 39 27 27 24 23 23 21 25 23 24 24 29 30 24 22 30 35 37 36 33 36 33 26 28 31 36 36 34 36 32 32 34
35 36 37 40 41 40 40 40 40 40 40 35 29 30 33 35 22 25 26 25 24 22 21 21 23 26 31 30 26 24 32 36 35 33 33 33 29 23 19 30 37 35 36 36 37 36 30
37 37 39 41 39 39 39 40 40 40 40 37 32 23 25 30 25 21 22 23 24 24 25 25 24 22 20 28 29 23 27 34 35 35 37 34 30 26 20 23 32 30 32 33 34 32 33
38 40 39 38 37 37 37 39 40 42 40 36 33 23 25 15 24 27 25 22 21 20 24 23 23 26 25 28 27 19 29 34 35 37 36 32 26 30 30 30 30 30 29 29 29 31 30
38 37 37 37 38 39 39 40 41 39 41 36 27 27 29 25 29 28 27 28 28 24 31 26 25 27 30 30 26 26 27 28 30 34 34 34 27 29 27 27 28 28 25 28 30 32 32
38 39 39 40 39 39 40 40 42 42 40 36 36 34 34 25 25 25 25 27 27 31 33 31 31 31 30 30 33 33 32 32 32 33 33 32 30 27 20 25 25 24 30 32 33 34 31
37 37 38 38 39 40 40 41 42 42 41 35 35 37 31 21 23 21 25 26 30 32 32 35 34 32 32 38 35 33 31 31 32 32 34 31 30 28 22 24 12 25 35 37 36 37 38
38 38 38 40 40 41 42 42 42 43 42 39 35 34 32 23 26 25 24 26 28 30 32 32 37 38 39 34 28 24 24 23 25 30 34 32 30 24 19 21 19 21 34 36 35 35 38
38 37 39 39 40 41 41 41 42 43 43 41 36 37 33 26 21 28 26 28 26 29 31 32 33 37 35 30 27 21 20 22 21 24 29 32 30 26 24 19 14 26 34 38 37 32 40
38 39 39 39 41 41 41 42 42 43 44 42 38 37 33 29 27 27 25 26 30 29 28 33 29 34 32 26 23 22 21 25 21 20 24 27 28 25 23 21 23 30 40 39 31 33 40
37 38 39 40 42 42 42 43 43 43 44 43 37 37 33 27 29 30 30 27 28 28 22 28 27 30 31 26 25 24 23 25 25 25 25 25 25 24 24 23 19 40 38 34 38 40 40
39 40 41 42 43 43 43 43 43 44 44 43 36 38 37 32 27 34 34 33 30 30 28 31 29 31 33 29 27 28 26 27 27 23 34 28 28 27 26 27 38 39 41 41 39 38 37

GFSGBSN_sfc_dewp_084.txt.gz
Dewpoint
46 47 49 49 48 48 48 48 48 47 47 47 48 48 47 47 47 46 48 48 47 47 47 47 47 47 44 38 34 32 45 39 45 50 44 42 29 21 16 18 22 28 32 31 30 29 28
45 45 46 47 47 47 47 48 48 48 47 48 48 48 47 47 47 46 47 48 48 48 47 47 47 46 42 30 30 29 33 32 30 46 41 41 35 28 23 21 20 23 24 24 26 27 28
44 45 44 45 46 46 45 47 48 48 49 49 48 48 47 47 47 46 46 48 48 48 48 48 48 44 40 32 36 37 39 34 29 38 32 26 25 18 20 17 23 28 28 28 28 27 26
47 45 44 44 45 46 46 47 46 46 46 47 48 48 49 48 47 47 47 46 47 48 50 50 49 44 38 39 41 40 39 37 36 33 30 29 26 25 18 19 22 26 27 25 25 27 27
45 45 45 46 45 46 46 46 46 46 46 46 46 47 48 48 48 47 47 47 47 48 48 48 44 43 36 42 40 42 39 34 32 33 31 28 26 23 20 20 17 24 20 23 24 26 25
47 46 45 45 44 44 47 46 46 45 46 46 45 46 46 48 48 47 47 44 45 47 46 46 44 40 37 30 38 36 37 36 30 33 28 27 23 19 21 18 14 18 22 24 25 25 27
45 44 43 43 44 44 45 47 46 46 46 45 45 45 45 46 46 47 40 36 34 34 35 33 34 39 39 38 36 30 31 28 27 34 28 25 21 19 19 24 21 23 24 22 22 25 26
42 42 43 43 44 44 45 45 45 45 45 45 45 45 45 45 45 45 36 34 32 33 31 34 35 34 34 34 31 30 32 24 31 31 31 31 24 23 21 20 20 20 19 19 23 25 24
44 43 41 41 42 43 44 44 44 44 44 44 44 45 45 46 45 37 35 34 36 35 31 32 32 32 34 35 32 29 28 23 25 30 31 29 30 32 27 26 23 23 25 27 27 30 26
44 41 40 40 40 42 43 43 43 43 43 43 45 44 45 46 36 38 29 35 37 37 28 25 29 31 30 32 31 30 27 24 23 27 31 31 31 32 29 27 26 29 32 32 30 28 23
43 40 40 40 39 40 41 42 42 42 43 43 44 44 44 45 37 35 33 37 37 38 13 9 22 31 31 28 24 25 26 23 21 29 32 28 34 34 33 32 34 31 36 34 32 30 28
40 39 39 40 40 40 40 41 41 42 42 42 43 44 44 39 37 36 38 38 37 24 10 15 21 20 23 28 28 24 24 30 30 34 33 27 33 32 29 33 34 34 33 31 30 29 25
39 38 37 40 40 39 39 40 41 41 42 42 43 44 43 41 34 37 37 35 21 16 14 7 20 21 22 20 26 22 25 30 28 26 27 28 30 32 35 30 34 33 31 23 22 25 22
36 39 38 36 39 40 41 41 41 41 41 42 43 42 41 40 38 38 35 28 14 7 14 19 19 22 25 30 26 24 24 24 28 25 26 24 19 29 34 30 29 33 31 24 20 21 25
37 39 36 37 39 39 40 40 41 41 42 42 42 36 35 36 37 37 28 18 12 18 21 20 19 26 25 29 31 24 21 21 24 27 21 23 23 32 34 34 33 33 31 34 31 30 29
40 41 36 36 36 40 40 40 40 41 41 41 35 33 32 36 38 34 25 17 19 22 20 21 18 27 25 26 29 27 26 31 29 29 28 28 23 30 35 34 34 33 39 33 33 22 22
38 38 35 36 37 40 40 40 40 40 41 41 32 28 29 37 37 33 19 20 20 20 21 21 22 21 24 25 29 28 28 35 33 32 32 31 27 28 34 33 32 35 33 36 35 34 26
36 37 35 36 39 40 40 40 40 40 40 36 30 21 32 38 27 27 18 22 23 23 24 22 25 24 23 26 25 29 31 35 37 36 33 36 31 26 27 30 35 35 32 32 31 28 31
36 36 35 36 39 40 39 40 40 40 39 33 28 27 32 33 11 17 27 24 24 24 22 21 21 21 32 24 24 29 33 38 39 35 35 34 29 21 16 27 36 35 35 37 35 35 31
35 36 36 38 40 39 38 38 39 40 40 34 26 22 24 32 24 22 23 21 21 27 25 24 23 25 23 22 25 26 30 36 37 36 37 33 30 22 16 20 29 27 29 31 32 28 26
35 36 39 40 38 37 37 37 38 39 38 36 29 20 24 19 21 23 27 25 22 21 23 23 22 23 21 24 27 28 32 35 36 36 36 29 26 29 28 28 29 28 28 28 29 28 27
37 38 38 38 37 37 38 39 40 39 39 36 25 26 30 23 26 25 25 23 23 26 29 25 24 23 24 28 27 29 30 28 30 33 33 34 27 29 27 26 25 27 24 22 23 25 28
35 37 38 39 39 40 39 39 41 39 41 35 36 34 32 25 24 21 22 24 27 30 29 29 29 31 30 31 30 33 35 34 32 32 31 31 28 25 19 23 25 19 25 29 29 31 30
37 39 37 37 38 38 39 40 41 41 41 36 32 33 27 19 23 21 22 24 27 30 28 35 33 32 34 39 37 34 34 32 32 32 33 29 28 27 23 22 10 17 36 36 34 33 31
39 38 38 37 38 40 41 42 43 41 41 39 34 32 29 21 26 22 23 25 27 30 31 33 34 36 38 37 27 24 23 23 24 29 33 31 29 24 18 20 19 20 34 32 31 30 36
39 39 38 37 39 40 41 41 42 42 42 41 37 37 33 24 20 25 26 24 23 28 27 30 30 36 35 29 26 20 18 21 19 19 31 32 29 25 23 18 11 17 36 38 38 29 37
37 38 37 39 39 39 40 41 42 42 43 42 39 38 35 26 27 27 24 25 30 28 27 28 27 32 32 26 22 21 20 25 19 19 24 27 27 24 23 21 23 31 38 39 29 30 35
38 38 38 38 39 40 41 42 42 42 43 42 39 38 35 29 27 30 30 27 27 26 23 26 25 27 30 26 26 25 23 25 26 25 24 24 25 23 25 23 18 37 38 32 37 36 34
37 37 39 39 40 42 42 42 42 43 43 43 37 38 38 32 27 32 34 33 30 29 28 30 29 32 33 30 29 27 25 27 26 22 29 27 31 28 27 27 35 35 35 36 36 34 36

GFSGBSN_sfc_dewp_087.txt.gz
Dewpoint
47 47 48 49 49 47 47 48 48 48 48 48 49 48 48 48 47 46 47 48 46 46 46 48 48 48 44 31 21 30 42 40 41 47 39 40 26 22 19 20 23 31 31 31 30 30 28
46 46 46 47 46 46 45 46 47 48 48 49 48 48 48 47 47 46 46 47 47 46 47 48 48 47 42 24 23 30 36 35 25 47 41 42 35 27 22 19 19 22 23 24 26 26 26
46 46 45 45 45 45 45 47 46 46 46 46 45 46 47 47 47 46 46 47 47 48 48 50 50 44 40 33 30 33 36 35 31 29 39 39 37 23 25 19 23 24 21 26 28 28 27
47 46 44 45 45 45 45 45 45 45 46 45 45 45 46 47 46 46 46 47 47 47 50 50 50 43 38 39 39 40 40 38 38 36 30 30 27 24 22 22 21 21 24 19 24 28 28
47 46 45 47 46 44 46 46 46 45 46 45 45 45 45 46 46 47 47 47 46 47 48 49 44 42 35 41 39 40 41 37 33 35 32 28 28 26 20 20 16 21 12 22 22 26 26
48 48 46 45 44 43 44 48 47 46 45 45 44 44 44 45 46 46 47 45 44 47 42 45 43 38 35 35 37 36 39 38 33 32 28 28 26 23 21 17 7 11 17 23 21 25 24
47 45 44 44 43 43 44 45 45 45 44 44 44 44 45 45 46 47 41 36 32 30 31 28 27 30 28 24 32 31 33 30 27 33 22 25 23 20 20 21 16 21 22 21 21 21 20
44 44 43 43 44 44 44 44 44 44 43 44 44 45 45 45 45 44 37 33 32 33 31 32 32 31 32 30 28 26 29 26 28 28 30 28 23 24 23 22 22 19 17 17 22 23 26
44 44 42 42 41 41 42 42 42 42 43 43 44 44 45 45 44 39 35 34 36 37 32 31 32 30 31 34 31 28 27 24 24 28 30 27 28 30 22 21 19 20 20 23 23 28 29
45 42 41 41 40 41 42 42 42 42 42 42 43 44 45 46 35 38 30 37 38 38 26 19 24 28 30 32 31 33 27 25 24 23 31 30 30 31 28 26 26 24 27 27 30 28 20
43 42 41 40 39 39 40 40 41 41 41 42 42 43 44 43 39 35 34 39 38 38 -3 9 17 30 29 26 24 26 29 25 22 27 31 27 33 32 29 29 29 29 34 31 30 29 28
44 42 41 40 39 39 38 41 41 41 41 41 42 43 43 40 38 37 39 38 38 19 1 10 16 18 14 21 27 24 25 26 25 31 32 25 34 34 32 33 34 34 30 30 31 28 24
41 39 39 40 39 39 41 40 41 41 41 41 42 42 41 41 34 38 39 34 19 7 11 10 18 19 15 30 30 28 22 21 25 22 24 30 30 32 34 30 34 31 29 24 24 23 18
39 39 39 36 39 40 40 40 40 40 41 42 42 42 39 40 39 39 36 26 4 5 9 20 19 18 13 30 29 31 31 18 28 24 21 21 21 30 34 29 29 31 30 23 16 21 22
37 40 39 39 39 38 39 40 40 41 41 42 41 36 35 37 39 37 30 17 5 20 21 19 18 16 23 24 25 29 28 26 24 27 23 22 24 32 33 33 33 33 30 32 29 29 25
38 39 38 37 35 39 39 39 40 40 41 41 36 34 32 37 39 35 26 15 15 18 18 18 15 21 19 19 15 23 27 30 24 28 29 27 26 31 33 34 34 33 36 31 31 22 21
36 39 36 36 36 38 39 39 39 40 40 40 34 29 29 38 39 32 19 19 19 19 21 19 17 17 16 17 20 22 26 33 36 31 30 30 27 29 35 32 31 33 32 33 34 33 25
34 35 36 35 36 39 39 39 39 40 40 36 31 22 32 38 26 28 23 24 25 21 22 20 21 20 19 19 26 25 27 29 35 37 31 34 29 25 25 30 35 34 32 31 29 27 32
35 36 34 33 36 39 39 39 39 39 39 34 28 27 32 34 17 21 23 22 21 21 21 21 19 18 19 21 21 20 28 33 35 35 34 33 28 17 28 31 35 32 36 34 32 31 28
36 35 34 35 37 40 39 36 36 39 41 35 27 20 24 32 26 24 23 21 20 23 24 24 22 24 21 21 21 23 25 33 35 37 38 35 29 19 11 21 28 27 27 26 30 26 21
35 34 35 37 40 38 36 36 36 39 40 35 28 23 25 19 23 26 25 24 21 21 24 24 23 22 19 19 24 24 30 33 36 37 35 31 25 28 26 27 27 26 25 26 25 24 22
36 36 38 39 38 36 37 38 39 40 40 35 28 25 30 25 26 22 24 22 21 25 28 23 26 23 23 23 24 27 32 32 31 34 33 34 27 29 23 25 24 22 22 21 21 23 23
37 36 36 37 38 38 39 39 39 41 40 36 36 35 30 23 24 22 21 23 26 29 27 25 28 29 26 27 32 33 34 36 34 32 32 31 30 27 21 23 22 16 22 22 23 28 31
36 36 37 38 37 38 38 38 40 41 40 36 34 33 28 19 22 21 22 24 24 28 26 30 34 31 33 38 37 37 36 34 33 32 33 30 27 28 22 22 6 18 23 31 33 32 32
36 37 40 37 37 37 39 40 42 42 42 39 35 34 29 22 24 20 20 23 25 28 30 32 32 35 37 37 30 24 23 23 23 28 32 31 29 25 22 19 17 20 33 30 32 29 35
38 39 40 38 37 39 40 41 41 41 41 41 37 37 34 25 19 25 25 24 22 26 25 28 30 35 36 31 26 18 17 19 17 23 33 31 31 26 23 15 12 15 33 36 37 29 34
39 40 40 39 38 39 39 40 41 42 42 42 40 39 35 28 25 27 24 24 28 26 24 26 27 32 33 28 24 22 19 24 17 17 23 26 25 22 21 19 20 33 35 38 28 29 34
40 38 38 38 39 39 39 40 41 42 42 42 39 40 36 29 27 30 30 28 27 26 24 26 27 28 30 26 25 26 25 26 26 26 25 23 24 23 22 22 18 34 34 31 35 35 34
38 38 37 37 38 39 40 42 42 42 43 42 37 40 40 34 29 32 33 32 30 31 30 30 30 32 33 27 28 30 24 28 26 23 28 27 29 25 30 28 32 33 31 33 34 33 33

GFSGBSN_sfc_dewp_090.txt.gz
Dewpoint
50 50 50 49 49 47 46 46 47 48 49 48 48 48 48 47 47 47 46 47 46 45 47 48 49 48 42 21 7 17 39 41 36 41 35 29 24 23 20 17 20 25 21 21 23 23 22
49 48 48 48 47 46 45 46 46 46 46 45 45 46 46 46 46 46 45 47 47 46 47 49 50 46 39 18 12 25 28 25 21 35 34 33 28 23 20 19 18 19 21 21 22 22 24
48 48 47 47 46 46 45 46 45 45 45 44 45 45 45 45 45 45 45 46 47 48 48 50 50 44 39 24 28 27 26 25 24 22 30 33 35 33 26 26 26 26 24 24 23 24 24
48 47 47 46 46 46 45 44 44 44 44 45 44 44 45 45 46 45 46 47 48 47 49 50 50 43 32 35 34 36 37 36 33 26 24 24 31 32 29 22 21 20 20 17 14 20 23
48 47 46 47 46 45 45 47 46 45 45 45 44 44 44 45 46 47 48 48 46 47 49 49 44 42 27 37 35 37 38 35 34 34 30 21 27 27 21 19 15 15 10 10 12 23 23
48 47 48 47 45 43 44 48 46 45 44 44 44 44 45 45 46 47 46 45 44 47 40 41 41 36 32 23 20 34 26 36 33 32 30 21 22 22 21 15 7 5 5 10 12 13 22
49 48 46 45 44 43 44 46 45 43 43 43 43 44 45 45 45 46 38 31 23 27 25 21 18 22 19 17 21 19 20 28 30 28 20 19 18 18 16 19 15 10 12 10 14 17 16
47 46 45 44 45 45 45 44 43 42 42 43 43 44 45 45 45 43 34 30 31 33 29 28 27 27 28 28 28 26 23 25 24 24 23 22 18 14 18 18 19 17 11 8 9 15 20
46 45 44 43 43 42 42 41 41 42 42 42 43 44 45 45 42 38 33 34 36 36 31 23 25 27 28 31 28 25 26 18 20 21 26 20 19 19 19 23 23 20 17 16 15 18 23
46 44 43 42 42 42 42 42 40 40 41 41 42 43 44 44 36 35 29 33 36 40 23 7 17 28 21 30 28 20 28 25 14 13 22 27 25 26 24 22 20 17 18 19 19 23 18
46 44 42 41 41 41 40 40 40 40 40 41 42 42 43 42 35 29 31 37 37 41 -2 6 13 29 18 14 15 16 28 27 23 14 22 23 26 24 24 22 22 19 28 27 27 26 23
45 44 43 41 41 40 39 41 40 40 40 41 41 42 41 37 37 33 37 38 40 21 -8 2 8 15 11 2 15 21 24 26 23 20 20 20 30 28 25 25 28 29 31 29 26 24 20
45 43 41 42 41 40 41 41 40 40 40 41 42 42 37 36 29 38 39 33 17 2 -3 1 14 14 8 4 17 26 25 23 21 18 20 19 24 30 31 31 31 28 24 22 22 22 14
42 41 41 39 40 41 40 40 40 40 41 41 41 40 38 35 38 40 36 22 3 -8 1 16 15 11 5 19 18 26 25 21 22 20 13 20 19 26 31 26 26 26 25 19 11 14 14
40 41 39 39 40 40 40 40 40 40 41 41 40 36 36 39 42 40 27 16 -2 11 18 17 13 6 9 20 15 15 18 22 22 21 14 13 14 24 30 27 27 29 29 28 27 24 23
39 41 40 38 38 40 40 39 39 39 40 41 34 32 34 41 43 36 28 12 9 12 14 14 9 10 15 14 14 15 16 33 33 31 28 24 18 28 31 31 33 31 30 29 29 21 18
40 42 39 38 36 40 40 40 39 39 40 39 36 28 37 41 41 30 25 13 16 17 18 16 12 12 13 14 11 13 17 23 33 32 31 32 26 30 32 30 28 32 30 32 31 30 25
38 39 38 38 39 40 39 39 40 39 40 35 35 30 37 39 29 29 21 17 22 16 19 19 20 17 17 18 21 22 24 23 32 34 29 32 28 26 27 33 30 30 28 30 27 28 28
37 37 37 36 38 40 40 40 39 39 38 36 31 26 34 38 26 23 20 17 19 19 18 18 17 17 17 16 18 20 22 28 31 34 34 32 26 23 26 28 31 28 34 32 30 30 27
37 38 36 35 38 40 40 38 37 39 40 35 36 30 26 32 32 25 22 17 17 18 20 21 21 22 20 18 18 19 20 29 33 34 37 38 27 19 15 23 28 30 27 26 28 27 21
38 37 37 37 39 41 38 36 36 39 40 35 36 29 28 27 24 25 26 24 20 19 22 21 22 22 23 21 17 19 26 33 35 37 35 32 25 24 22 22 20 19 19 21 23 22 19
38 36 36 39 41 39 37 38 39 40 39 36 33 26 29 27 25 28 23 23 22 23 27 22 26 23 23 25 20 21 28 30 33 34 33 30 26 24 18 20 20 18 17 17 17 18 21
38 37 39 39 38 37 38 39 40 41 38 37 35 33 31 23 19 23 21 23 24 30 24 26 32 30 25 24 26 28 30 33 33 33 32 29 26 19 18 15 16 14 18 18 19 21 25
38 39 37 37 39 40 40 40 39 41 39 34 32 31 29 23 17 17 19 20 24 28 28 29 33 32 33 36 35 34 35 34 33 32 33 27 24 26 21 20 5 24 25 28 25 30 32
39 37 37 39 37 38 39 39 40 41 41 38 35 35 31 24 20 17 20 21 21 28 31 31 32 34 36 35 33 25 24 24 25 30 29 30 27 24 21 15 13 24 29 28 29 31 32
37 37 38 39 38 38 39 40 41 41 42 41 37 37 36 29 20 22 22 21 21 24 23 27 29 36 36 35 27 17 16 17 16 26 30 30 28 26 22 10 6 26 29 33 34 31 31
37 38 40 40 39 39 40 40 41 41 41 42 41 40 38 31 26 27 24 25 25 23 21 24 28 31 32 29 24 21 18 22 16 14 20 25 25 22 22 21 21 31 32 32 30 30 33
39 40 40 41 40 40 40 40 40 41 42 43 41 41 38 32 29 29 28 27 24 24 25 26 29 29 30 26 25 23 24 25 25 27 26 24 26 26 23 21 17 31 31 30 32 34 34
39 40 40 40 40 39 39 40 41 41 42 42 39 41 41 35 31 35 33 32 30 29 29 30 30 31 34 28 28 29 26 30 26 25 29 28 27 27 27 26 30 31 30 32 33 31 32

GFSGBSN_sfc_dewp_096.txt.gz
Dewpoint
53 52 52 52 50 49 49 49 49 47 47 46 45 45 45 45 45 46 46 47 47 47 47 48 49 50 47 36 27 35 49 44 30 39 36 31 26 23 15 13 13 18 17 17 20 21 22
53 52 52 51 50 50 49 48 47 47 45 44 45 45 45 45 45 46 47 47 47 47 47 48 49 51 43 30 12 15 17 14 13 13 27 27 24 23 21 18 17 16 16 13 14 18 17
52 53 53 51 51 49 48 47 47 46 45 45 45 45 45 45 46 46 47 47 48 48 48 49 50 48 37 29 20 22 20 19 16 10 9 16 22 23 23 23 22 18 15 14 15 13 13
54 53 52 52 50 49 47 48 46 46 45 45 45 45 45 45 46 46 47 48 49 48 48 50 51 44 36 28 25 22 21 24 27 25 15 12 14 18 22 24 22 20 20 17 18 19 18
53 52 52 51 49 48 47 46 46 46 46 45 45 44 45 46 47 48 48 48 48 48 49 50 48 45 31 34 18 28 27 25 27 28 29 22 12 15 20 23 22 21 17 17 15 12 10
53 52 51 50 48 47 46 46 47 47 45 44 44 44 45 46 47 47 47 48 46 45 47 40 39 33 32 20 14 17 16 12 20 20 25 27 17 12 12 14 14 15 12 13 11 10 9
52 50 50 49 49 49 46 47 48 46 43 43 43 43 45 45 45 46 44 32 24 32 36 17 15 29 18 10 15 20 22 20 15 11 16 24 18 12 11 13 11 11 11 10 10 6 8
51 50 50 49 50 47 45 47 46 44 42 42 42 43 43 44 44 46 42 26 27 29 25 22 17 15 13 13 18 19 23 17 11 8 7 17 19 19 13 7 10 12 12 12 11 11 10
50 50 49 50 49 46 45 47 45 42 42 41 42 42 43 43 43 41 31 26 27 33 27 19 18 16 18 21 21 19 19 20 18 15 11 10 13 16 15 13 8 12 13 12 12 10 9
50 51 50 49 47 46 47 45 44 42 40 41 41 42 43 44 40 30 30 28 31 38 25 18 14 17 23 23 17 17 19 17 12 13 17 16 13 6 8 13 11 11 12 13 15 14 9
50 50 48 48 47 45 44 44 42 41 40 40 41 42 43 43 40 27 27 31 33 39 18 10 14 26 19 15 11 6 6 2 2 11 15 14 13 14 8 11 14 15 14 15 17 15 14
49 48 47 45 44 44 43 42 42 41 39 40 42 42 42 38 40 32 32 36 36 31 17 3 3 9 11 11 9 5 0 -1 3 9 15 14 13 13 14 7 15 23 15 18 19 17 16
48 47 45 45 43 42 42 42 41 40 39 41 41 41 39 34 33 36 38 34 25 18 -2 -0 6 9 9 7 5 2 0 -2 -2 15 17 20 17 19 15 4 23 23 23 23 22 20 19
47 45 44 43 41 41 41 41 41 39 39 40 41 41 40 34 38 41 37 28 14 4 1 8 8 7 6 5 10 16 13 9 11 22 26 24 17 16 20 20 27 27 24 24 17 18 18
47 45 44 43 42 41 43 42 40 39 40 40 40 39 39 40 42 40 33 24 13 9 7 8 8 6 4 5 7 13 12 8 9 29 27 23 19 20 19 27 30 28 26 30 27 23 25
47 45 44 43 42 42 41 40 40 39 39 39 36 34 32 39 41 39 32 22 10 9 9 9 7 8 8 6 7 8 8 9 10 31 29 26 25 25 23 26 32 29 28 24 26 26 23
45 43 41 42 42 41 41 40 40 38 39 39 36 29 37 37 40 34 29 15 11 9 9 9 9 9 9 11 16 15 15 15 32 26 26 23 28 24 32 28 25 21 28 26 28 25 24
43 42 42 42 41 41 40 40 39 39 38 38 36 33 35 36 32 24 22 14 20 10 12 10 11 11 14 15 15 16 14 13 23 26 23 27 34 26 31 29 30 17 25 30 26 22 22
42 43 41 39 40 41 40 40 39 38 38 37 32 27 31 37 30 23 16 12 11 11 11 12 14 15 14 14 17 14 16 17 29 28 27 33 27 26 27 30 25 18 18 26 32 29 30
42 43 40 40 40 41 40 40 38 38 39 37 36 33 27 29 26 24 19 14 13 15 16 18 18 17 22 23 22 21 20 21 30 34 34 36 29 25 23 26 25 22 22 29 31 28 26
42 40 39 39 40 42 41 39 36 37 39 38 38 33 26 29 23 23 23 22 19 18 21 19 20 18 19 20 18 16 24 29 30 33 37 35 28 32 32 32 31 32 31 34 31 28 22
40 40 40 39 40 41 40 37 36 38 39 37 36 29 19 26 26 26 27 22 19 21 23 21 24 22 23 24 22 21 23 26 31 33 36 36 31 32 30 31 28 31 32 31 21 22 19
40 39 38 39 41 41 39 38 38 39 40 35 30 28 27 22 21 23 25 19 22 29 25 23 26 26 24 30 30 31 31 30 31 31 35 34 33 25 16 11 14 18 16 16 28 29 27
40 39 38 40 41 40 38 39 40 39 40 38 33 29 29 22 14 14 15 18 20 24 30 29 29 28 27 33 33 31 30 28 30 32 31 34 32 22 19 20 20 23 25 30 31 29 28
41 39 40 41 40 39 39 40 40 40 40 39 36 32 28 28 16 14 17 20 20 27 33 35 31 34 37 35 31 26 29 31 27 24 25 32 29 23 20 24 27 28 27 28 30 29 29
41 41 40 39 40 41 41 40 39 39 40 40 40 39 34 30 25 21 19 23 20 24 25 31 32 34 38 34 32 27 17 23 26 22 25 23 27 25 22 15 19 25 27 29 30 25 30
41 41 40 39 41 40 40 40 40 40 41 41 44 42 35 33 25 27 23 23 23 23 23 26 29 30 33 31 31 26 20 21 25 22 24 27 26 25 23 24 25 26 27 29 27 25 31
41 41 40 41 41 40 40 41 41 41 40 42 43 40 37 36 30 29 30 27 25 24 24 27 30 30 29 27 24 25 27 27 26 25 26 24 27 25 27 26 20 27 26 24 30 33 32
40 40 41 41 42 41 41 41 41 41 40 42 40 40 41 37 31 36 35 34 31 30 29 29 30 31 33 27 27 29 28 31 31 26 27 25 27 27 24 25 29 28 29 31 31 29 30

GFSGBSN_sfc_dewp_099.txt.gz
Dewpoint
57 56 55 54 53 53 52 50 50 49 48 48 46 45 46 46 46 46 47 48 47 48 47 47 48 49 49 39 40 39 50 48 47 40 37 33 31 29 22 15 14 14 15 18 20 20 20
56 55 55 54 53 52 50 50 50 49 48 46 45 45 46 46 46 46 47 48 48 47 48 48 49 50 46 30 27 32 33 27 24 22 32 34 29 25 23 22 19 18 15 14 14 17 15
56 55 54 54 53 52 51 51 49 48 47 45 45 46 46 46 46 46 47 47 48 48 48 49 50 48 42 34 32 29 22 18 17 18 14 13 14 16 22 22 24 22 20 20 17 16 15
56 54 54 54 53 52 51 49 49 47 46 46 46 45 46 45 46 47 47 49 49 48 48 50 50 46 40 38 32 24 21 20 20 20 20 18 16 13 16 20 21 20 22 19 20 18 18
56 55 53 54 53 52 50 49 49 47 47 46 46 45 45 46 47 48 48 48 49 48 48 50 47 45 40 38 26 18 20 19 17 27 28 24 22 13 12 14 18 21 19 20 19 20 18
56 55 54 53 52 52 49 48 47 47 47 46 45 44 44 45 46 47 47 47 47 47 46 43 41 41 41 28 16 19 19 20 18 15 13 19 25 22 11 11 12 18 20 20 19 19 17
56 55 54 51 52 50 49 47 47 49 47 45 43 43 44 44 45 46 45 40 28 35 36 33 32 31 28 20 8 12 19 21 23 17 10 12 20 22 14 12 12 13 14 11 11 12 14
55 54 53 52 50 49 49 48 49 48 45 43 42 42 43 43 43 45 42 29 27 28 26 25 22 20 18 14 13 13 18 21 19 15 11 10 9 14 22 16 13 11 10 8 9 12 13
54 53 52 50 49 49 49 49 48 46 43 42 42 42 43 43 44 42 35 26 31 35 28 23 21 19 19 16 13 18 21 20 20 17 18 16 13 13 13 16 18 16 11 7 9 13 14
53 52 51 50 49 49 48 47 47 44 43 41 41 42 43 45 42 38 30 30 32 38 28 21 16 17 24 24 21 16 18 17 16 14 13 15 17 16 15 14 9 5 14 12 9 11 13
52 51 51 50 51 49 48 47 45 43 41 40 41 42 43 42 39 33 31 34 33 38 22 18 18 25 22 17 16 13 10 7 4 3 1 2 4 11 13 13 14 13 12 19 13 12 16
51 51 51 51 49 48 46 45 43 41 40 39 41 42 43 39 40 35 38 38 37 31 22 4 16 15 12 13 11 8 7 8 5 3 -2 -2 8 18 20 20 14 13 14 24 26 20 16
50 51 50 49 47 46 45 43 42 41 39 40 41 41 40 38 35 39 39 36 29 25 5 6 8 9 8 7 7 7 15 14 11 9 14 18 18 20 20 18 21 22 16 22 22 21 18
51 50 48 47 45 43 42 43 42 40 39 40 40 42 41 38 40 41 39 31 20 13 8 9 9 9 8 7 8 8 10 12 11 22 24 21 18 21 23 22 26 20 21 25 17 19 19
48 47 46 45 44 43 42 42 41 40 39 39 40 38 40 41 40 41 35 26 17 8 8 8 7 6 7 9 9 9 11 9 12 28 24 22 15 20 20 26 27 29 27 26 29 28 27
47 46 45 43 42 42 43 42 41 40 39 38 36 38 36 38 40 39 33 24 14 9 8 7 6 9 9 9 10 15 16 17 20 28 29 26 20 18 18 30 32 30 31 28 31 23 21
46 45 45 44 43 44 43 40 41 40 39 38 36 33 37 37 40 35 26 24 12 8 9 7 9 9 11 12 14 15 14 18 24 25 27 24 25 21 26 28 28 32 30 31 31 27 27
45 45 43 43 43 42 40 41 40 40 38 37 36 31 36 37 32 32 27 15 21 10 15 14 14 15 16 16 15 16 16 16 19 28 23 31 30 24 22 24 33 32 31 31 26 25 26
43 43 43 43 41 40 40 40 40 38 39 37 35 30 35 38 27 27 19 12 11 12 14 15 19 22 19 20 19 21 23 26 32 29 26 32 27 19 20 28 31 30 29 29 33 32 28
44 44 41 41 42 41 40 40 38 38 39 37 36 29 29 33 29 25 23 21 16 21 19 20 19 19 21 22 23 24 24 26 32 32 32 35 30 23 17 20 25 28 29 30 32 28 31
44 43 41 40 40 40 40 39 38 37 39 38 36 31 29 28 25 24 25 25 21 19 22 22 20 24 23 21 22 21 24 27 29 31 33 34 27 28 27 25 27 28 29 34 34 34 31
43 41 42 41 41 42 41 38 37 38 40 37 32 31 20 30 29 24 25 24 21 22 25 22 25 24 25 23 24 27 28 28 30 34 35 36 29 32 31 33 33 34 34 33 32 31 31
41 40 41 41 41 41 40 38 38 40 40 36 35 29 30 25 22 26 27 25 23 27 26 24 27 29 25 26 32 32 31 31 31 30 30 33 31 30 27 31 30 29 30 27 27 27 27
41 39 39 40 42 41 39 40 40 40 40 39 36 33 30 24 20 21 18 20 23 27 20 27 31 30 29 36 36 34 32 31 31 31 31 33 33 31 24 25 20 29 30 29 27 26 25
41 40 40 40 41 39 39 40 41 41 40 39 39 34 31 25 24 19 20 24 25 29 30 32 32 33 35 35 32 29 30 30 30 32 31 35 33 27 24 26 27 24 25 26 30 26 27
41 40 42 41 42 41 41 41 40 40 40 40 41 39 34 26 28 25 24 25 22 23 25 31 30 37 37 34 31 25 22 28 24 25 27 30 31 28 24 22 19 24 25 27 28 20 27
42 41 41 41 42 42 42 41 40 40 41 40 40 40 34 28 30 29 23 23 25 25 24 27 27 31 33 29 28 26 26 28 25 27 25 25 27 25 25 23 23 25 26 27 14 22 28
42 42 41 41 42 42 42 41 41 41 41 40 40 39 37 32 31 31 33 29 29 27 23 27 28 30 28 25 25 26 29 30 30 27 27 24 25 23 24 20 16 27 23 21 29 30 29
42 42 41 42 42 42 42 42 41 41 41 42 40 40 40 33 31 35 34 35 33 30 29 29 35 30 30 26 27 28 29 30 30 24 28 23 30 23 25 22 28 27 27 28 28 27 28

GFSGBSN_sfc_dewp_102.txt.gz
Dewpoint
58 58 58 57 55 55 53 52 53 52 51 50 49 47 46 46 47 47 47 48 47 48 48 48 49 49 48 40 38 40 53 54 43 38 35 34 32 31 28 23 15 14 15 16 19 22 23
58 57 57 56 55 55 52 53 53 52 51 49 48 46 46 47 47 47 46 47 48 47 48 48 49 50 46 29 21 37 38 33 27 38 35 36 35 29 26 24 23 21 19 18 16 14 14
58 57 57 56 55 54 54 54 52 52 50 49 47 46 46 47 46 46 47 47 47 47 48 48 49 48 44 33 32 31 31 19 19 14 16 16 15 14 13 12 19 20 18 20 21 21 18
58 58 57 56 55 54 54 53 52 50 49 48 47 46 46 46 46 47 47 47 48 47 48 48 49 47 39 38 39 37 27 20 21 20 20 20 20 18 13 14 13 15 20 19 21 22 21
59 58 57 56 54 54 54 53 51 50 49 48 47 46 46 45 46 47 47 47 48 47 48 48 46 45 40 46 38 36 24 20 20 22 25 16 24 19 18 10 9 18 11 14 16 22 21
59 58 57 55 54 54 53 52 51 50 49 49 47 45 45 45 46 47 47 47 46 46 46 44 42 41 41 29 15 18 19 21 20 20 15 13 19 23 14 11 6 11 18 18 18 16 20
59 58 56 55 54 54 52 51 50 49 48 48 46 44 44 44 44 46 45 38 25 29 36 37 37 37 29 26 14 13 17 21 22 18 13 13 7 11 21 14 15 11 7 7 7 10 13
59 57 56 55 54 53 53 50 48 48 49 48 44 43 43 43 43 45 43 29 28 27 26 27 26 31 32 27 20 17 18 17 20 16 17 11 9 10 16 22 17 14 11 10 11 12 11
58 57 56 55 54 54 51 49 49 49 48 45 43 41 42 43 44 42 34 29 35 33 27 23 23 21 21 21 17 14 20 22 19 19 19 18 17 17 16 14 13 15 16 16 15 14 13
57 55 55 54 54 52 49 49 49 48 46 44 42 41 42 44 41 39 32 32 32 36 27 21 21 21 24 24 20 17 12 18 10 9 11 14 15 14 10 9 12 11 14 14 13 10 13
56 55 54 53 52 50 50 50 49 46 44 42 41 41 42 41 38 32 34 35 35 38 4 22 23 24 24 15 13 14 11 11 8 6 7 4 3 1 3 2 3 6 19 17 14 13 25
55 54 53 52 50 50 50 50 47 45 42 41 41 42 41 40 40 38 37 38 37 29 9 10 15 10 11 11 10 10 11 16 12 9 7 5 4 2 6 17 21 21 20 18 20 27 20
53 52 52 51 51 50 50 47 45 43 41 40 41 40 39 39 34 38 39 35 27 21 13 7 9 10 11 9 9 9 10 10 12 10 11 16 18 18 20 20 23 23 20 18 18 20 16
52 51 51 51 50 49 47 45 43 43 41 41 40 40 39 38 38 40 38 29 19 14 8 9 9 10 9 10 10 10 13 14 11 18 22 20 14 19 21 19 18 17 27 19 14 17 18
51 51 51 50 48 46 45 44 43 41 41 40 39 37 37 40 40 40 34 22 16 8 8 7 7 9 9 10 12 13 16 15 18 27 22 22 18 21 20 20 30 27 26 26 23 22 21
51 49 48 47 46 45 45 43 42 42 40 39 36 38 37 38 40 39 31 25 10 8 7 8 7 10 10 9 11 14 16 17 18 23 29 25 19 19 18 22 26 31 29 24 27 17 17
48 47 46 45 45 45 44 42 41 40 39 39 36 34 37 37 39 35 25 25 11 9 11 8 9 12 11 14 13 15 14 15 21 23 27 24 24 19 22 25 26 31 31 29 29 29 20
46 45 45 44 43 45 41 41 41 41 39 37 36 31 36 38 31 32 26 17 21 13 17 16 18 18 19 19 19 19 17 18 25 27 21 31 27 21 21 22 22 31 32 30 24 21 28
45 45 44 44 44 42 41 41 41 39 40 38 34 29 34 37 23 25 22 15 15 19 20 21 21 22 21 20 20 24 24 28 30 28 25 30 23 18 16 27 31 32 34 34 33 33 29
45 44 43 43 42 41 41 41 39 40 40 37 36 26 28 32 29 25 23 21 19 23 22 23 21 23 25 24 24 22 22 25 30 29 30 34 27 22 17 18 23 25 30 32 32 28 28
45 44 43 42 40 41 41 39 39 39 40 38 32 28 29 25 25 24 25 24 21 20 24 23 22 25 24 22 22 22 26 27 29 31 32 34 28 28 27 25 24 23 32 33 32 32 27
43 43 43 43 41 41 40 39 38 39 40 37 30 25 27 29 24 21 25 24 21 22 24 23 24 25 26 24 23 22 27 26 26 32 34 31 27 30 27 29 28 29 33 28 27 30 30
43 43 43 43 42 41 40 38 40 40 40 35 34 31 29 28 25 25 26 25 23 25 26 26 26 29 28 28 29 31 31 31 29 28 27 29 29 30 27 31 32 24 28 25 25 25 24
43 42 42 43 41 40 39 40 41 41 41 37 35 32 29 23 21 23 26 25 26 27 17 27 29 30 31 35 35 34 34 33 33 31 31 30 31 32 28 29 16 28 32 26 24 24 24
42 41 41 42 41 40 41 41 41 41 42 38 38 33 29 25 26 23 24 26 25 26 26 26 31 32 34 35 31 27 30 30 30 31 35 35 33 29 27 24 26 25 24 24 26 22 26
41 41 42 42 42 41 41 41 41 41 42 40 39 37 33 27 27 28 25 24 22 22 23 27 31 35 35 33 29 24 25 28 26 29 28 32 35 31 28 20 17 22 22 25 27 17 27
42 42 43 41 42 42 41 41 41 41 42 40 38 38 33 25 29 29 25 23 27 25 23 26 27 30 31 26 23 24 27 30 24 26 25 24 27 23 24 21 22 23 24 26 16 18 27
42 43 42 42 43 43 42 41 43 42 42 40 38 38 33 24 29 32 33 28 26 27 22 25 27 28 27 23 24 25 27 30 27 27 27 23 23 20 21 18 15 25 21 20 26 28 27
42 42 42 43 43 43 42 43 42 42 42 41 36 40 38 30 28 34 33 31 31 30 28 29 32 28 28 25 26 28 27 28 27 23 28 22 27 22 22 20 26 26 25 27 28 26 27

GFSGBSN_sfc_dewp_108.txt.gz
Dewpoint
60 60 59 59 58 58 58 57 56 55 54 54 54 52 50 49 47 47 48 48 47 47 47 48 49 50 46 27 19 28 56 55 50 40 27 27 27 28 26 26 23 20 21 19 19 19 17
60 59 59 59 58 58 58 57 56 55 54 54 53 52 50 48 47 47 47 47 47 47 47 47 49 50 42 13 16 32 39 41 33 34 33 34 34 31 17 14 13 19 15 16 17 18 20
61 60 59 58 58 57 57 57 56 55 54 54 53 52 50 48 47 47 47 46 46 46 46 47 48 48 43 20 31 32 36 28 23 29 21 23 21 13 16 15 15 13 10 10 13 19 20
61 60 60 59 58 57 57 57 56 55 54 54 53 52 50 48 47 47 46 46 46 45 46 47 48 46 36 36 40 40 36 33 28 22 17 19 16 17 16 16 18 12 11 8 16 12 12
61 60 60 59 58 57 57 57 56 55 55 54 53 52 50 49 47 46 46 45 45 47 48 47 45 41 30 40 40 40 36 28 21 21 21 19 20 19 17 18 17 14 5 10 10 16 13
60 60 60 59 59 58 57 57 55 55 55 54 52 51 50 47 47 46 46 45 46 45 46 46 44 36 29 25 26 17 37 21 19 20 22 14 21 20 17 18 11 5 7 13 15 16 15
57 57 59 59 59 59 58 57 56 55 54 53 52 50 49 46 45 45 43 36 21 24 40 28 29 28 31 34 29 17 21 17 19 18 16 16 9 13 16 18 19 14 17 19 18 19 18
57 57 57 57 58 58 59 57 56 54 53 53 51 50 49 46 43 43 42 29 26 25 18 25 35 36 37 33 31 28 21 13 20 14 17 15 11 12 10 13 17 16 16 16 16 17 15
56 56 57 57 58 58 59 57 55 54 53 52 51 50 48 43 42 41 36 29 34 26 14 12 25 23 18 27 23 17 16 16 19 17 16 16 18 17 13 13 14 15 15 15 13 10 11
55 56 56 57 57 57 57 57 56 54 52 51 49 49 47 43 36 38 33 34 33 34 15 13 21 23 22 21 18 17 11 12 11 10 7 7 11 7 5 3 5 -0 7 9 5 5 0
55 55 56 56 56 55 56 56 55 53 52 49 50 48 45 42 37 34 33 35 37 33 -5 20 19 16 14 17 13 11 15 11 8 10 8 9 8 8 7 7 4 3 7 5 7 16 17
52 55 55 56 55 55 55 55 54 52 50 50 48 45 43 42 39 36 37 37 37 19 -1 14 12 11 13 13 11 11 14 14 16 13 10 9 13 8 8 9 12 15 18 18 17 17 11
51 52 54 55 55 55 55 54 52 50 50 48 46 44 41 40 35 38 38 35 21 16 13 9 10 13 11 11 12 12 12 11 5 7 13 18 17 18 20 18 19 18 16 13 10 16 8
50 51 51 55 55 55 54 52 50 50 49 46 44 43 42 41 39 40 38 31 19 15 10 10 9 12 10 9 12 15 13 10 21 18 18 18 12 18 20 19 17 16 17 14 7 10 11
50 50 50 54 54 54 52 51 50 48 46 44 43 37 37 37 39 39 32 22 6 11 10 9 9 10 10 11 11 13 14 13 15 17 14 15 17 18 15 15 18 21 17 16 14 13 13
49 51 51 54 53 52 51 50 48 47 45 43 37 37 37 40 40 36 28 21 11 12 11 11 9 11 9 8 11 14 13 16 16 20 23 23 17 16 16 20 21 21 25 19 23 12 14
53 52 53 53 52 50 49 48 47 45 43 41 38 33 36 39 39 31 21 24 12 13 14 12 11 12 11 15 14 15 16 16 21 21 26 24 22 16 21 19 15 24 24 23 23 24 17
52 52 53 52 50 49 48 47 46 45 43 41 36 26 37 39 30 29 26 24 20 14 19 20 21 18 18 19 17 18 18 17 23 24 21 23 24 19 17 19 23 19 21 25 20 23 24
52 53 52 50 49 48 46 46 44 43 42 38 33 32 35 37 26 27 27 19 21 20 21 21 22 21 21 19 18 21 23 26 28 25 24 28 22 15 14 26 30 27 31 33 31 29 27
52 51 49 48 48 46 45 44 43 43 42 38 32 26 31 34 29 27 22 22 20 24 23 22 21 23 24 23 24 21 24 25 28 27 29 27 23 18 12 10 18 22 26 30 29 24 23
48 47 47 46 46 45 44 42 43 44 42 38 33 26 30 27 22 26 25 24 21 20 24 22 22 24 23 21 22 21 22 23 25 27 28 28 23 24 24 23 24 28 26 26 30 30 25
46 46 45 45 44 43 41 42 43 43 42 35 31 28 30 28 28 26 26 23 21 22 23 21 21 24 25 23 22 20 24 23 23 26 31 35 23 26 22 25 29 23 25 23 23 26 24
46 45 45 44 44 42 42 43 43 43 41 34 33 31 28 22 23 23 24 24 23 25 26 24 24 25 26 27 28 26 26 29 30 29 30 29 26 25 22 26 24 18 23 23 21 22 23
44 44 44 43 42 41 41 42 42 42 40 34 34 31 28 23 21 24 25 25 24 24 18 26 26 26 29 32 33 32 31 29 29 30 33 29 27 27 24 25 14 23 30 24 20 21 22
43 43 43 42 41 41 43 43 43 43 41 36 35 31 27 22 22 26 26 26 25 28 25 23 27 30 32 31 29 25 27 29 30 34 34 33 29 25 25 20 21 26 22 22 23 19 22
42 42 42 41 43 44 44 45 44 43 41 38 37 35 31 27 25 26 24 23 22 22 23 25 28 30 29 29 27 20 19 25 26 29 33 34 33 28 27 18 15 20 21 24 26 14 23
43 42 41 41 43 43 44 45 44 43 41 38 36 35 32 28 29 26 22 23 26 24 22 25 26 28 28 23 21 23 23 27 21 21 24 26 28 23 23 19 19 21 23 27 18 16 22
43 43 43 43 43 43 44 44 44 43 41 38 36 37 31 28 29 32 30 26 25 24 19 23 22 24 25 22 24 23 23 24 25 25 24 21 21 19 20 19 16 22 23 21 23 24 22
43 43 43 43 43 43 44 44 44 43 42 39 34 36 35 31 29 33 32 30 24 26 27 30 24 27 25 25 26 26 24 26 21 16 25 21 22 19 19 17 23 24 24 27 25 23 22

GFSGBSN_sfc_dewp_111.txt.gz
Dewpoint
61 61 60 59 59 59 59 58 57 57 56 55 54 54 53 51 50 48 48 48 47 47 47 47 48 50 44 16 8 25 55 55 49 38 26 26 26 27 24 25 24 22 21 19 18 16 17
61 61 60 59 59 59 59 58 57 57 56 55 54 54 53 51 49 48 48 47 47 46 46 46 48 50 39 8 19 31 37 43 34 32 30 33 32 30 19 16 16 20 14 12 14 13 14
61 61 60 59 59 59 59 58 57 57 56 55 54 54 53 51 49 48 48 47 47 46 46 46 47 48 41 13 33 36 38 28 23 31 23 28 24 14 14 16 15 12 11 12 10 17 18
59 59 61 59 59 58 58 57 57 57 56 55 55 54 52 51 49 48 47 47 46 45 46 47 47 46 28 35 38 38 37 34 32 25 19 19 18 19 19 19 21 17 13 8 13 16 14
59 59 60 60 59 58 58 57 57 57 57 55 55 54 53 50 48 47 47 46 45 47 48 47 46 41 22 37 34 38 38 27 24 23 21 19 21 21 17 19 18 16 5 8 9 17 16
57 58 58 59 59 59 58 58 57 57 56 55 55 54 52 50 48 47 46 45 45 46 46 46 44 34 25 21 29 20 40 26 19 21 20 18 22 20 19 18 1 4 7 10 11 16 16
56 56 58 58 59 59 59 58 57 57 56 55 55 54 51 49 47 45 43 35 26 27 41 27 24 20 25 34 32 19 21 16 20 20 18 15 13 14 15 20 19 17 14 14 18 17 19
56 56 57 57 57 58 59 59 57 56 56 55 54 52 51 48 46 43 42 32 25 28 22 27 35 36 36 35 28 28 20 14 19 13 18 15 14 15 11 12 14 14 13 12 15 16 12
55 55 56 57 57 57 57 59 57 56 55 55 53 52 50 47 44 41 37 30 34 27 16 12 23 23 20 30 26 22 16 14 17 14 17 13 14 16 14 12 12 13 12 10 6 7 4
51 52 55 56 56 57 57 57 57 56 55 54 52 51 48 44 36 38 35 34 36 36 12 7 16 22 21 21 15 17 13 17 11 17 18 14 10 9 7 3 5 3 7 6 5 3 -2
51 51 52 53 55 55 56 56 57 56 55 53 51 49 46 42 39 39 37 37 39 36 5 18 21 18 20 17 14 11 15 11 9 8 10 9 8 10 10 8 5 8 8 10 11 10 13
51 51 51 52 53 55 55 55 55 55 54 52 50 48 44 42 40 38 37 39 39 21 1 14 11 11 12 12 11 11 13 15 14 12 10 10 17 13 12 11 12 18 17 17 18 15 6
50 50 50 51 52 54 55 55 55 55 52 51 49 47 43 40 36 40 40 39 20 11 12 9 8 12 10 11 10 11 10 9 5 4 9 15 12 18 20 17 19 16 13 11 10 12 4
49 49 50 50 51 52 54 55 54 53 51 50 48 44 42 42 40 41 42 32 8 13 12 14 12 11 8 8 10 13 9 9 19 15 14 10 5 19 19 17 13 13 12 9 4 5 6
49 49 49 50 51 51 52 54 52 51 50 48 45 41 42 41 42 41 35 19 9 12 11 9 10 9 9 9 10 11 12 10 17 15 11 10 13 19 18 15 14 17 16 15 12 10 9
48 49 49 50 50 50 51 53 52 50 48 44 39 38 36 41 43 38 31 15 15 11 10 10 8 10 9 7 10 12 10 15 15 19 18 19 15 17 15 20 19 16 19 20 18 14 11
47 48 49 49 50 50 51 52 50 48 45 41 39 33 40 42 41 32 24 19 12 12 13 11 10 9 10 11 12 13 10 13 21 24 25 22 17 12 19 17 14 20 19 19 19 17 17
47 48 48 48 49 49 52 50 48 46 43 41 38 30 39 41 32 30 25 25 20 14 19 18 19 14 15 18 16 16 15 16 22 24 19 23 25 18 17 19 25 20 19 25 21 18 23
47 48 48 48 48 50 50 48 47 44 42 39 34 34 37 37 26 26 27 20 19 18 20 20 20 21 20 18 15 19 20 26 27 25 23 28 23 15 15 28 28 23 25 28 32 27 21
47 47 47 50 51 50 48 47 45 43 43 37 34 28 33 35 32 25 24 21 20 24 22 21 21 23 23 20 22 20 22 25 28 27 29 30 25 19 7 4 13 20 24 27 29 24 20
47 47 51 52 50 49 47 45 43 44 43 38 35 29 30 27 27 27 27 24 20 21 23 21 21 23 21 19 21 20 22 24 24 27 27 30 22 24 24 21 22 27 25 25 22 25 24
50 51 51 50 48 47 46 44 44 44 42 38 31 29 30 28 29 29 27 24 21 22 23 20 21 24 23 21 19 21 23 24 24 27 30 32 24 26 21 22 27 22 25 25 23 26 23
50 49 48 47 46 46 45 44 45 44 41 36 35 33 30 28 25 24 25 24 24 27 24 25 26 25 25 25 27 25 26 28 28 28 31 30 27 24 21 25 24 21 23 23 23 24 25
46 46 45 45 45 45 44 44 44 44 39 36 34 32 29 23 21 19 24 24 24 24 25 26 28 27 29 33 33 32 31 29 29 29 32 30 28 27 23 25 17 24 28 23 21 21 22
45 45 45 45 44 44 44 44 44 44 41 36 35 31 27 24 23 25 24 25 27 28 28 27 28 30 34 33 28 26 27 28 29 31 33 32 30 24 24 21 22 24 23 24 23 19 22
44 44 44 44 43 43 43 43 44 45 41 37 37 36 31 26 24 26 25 25 23 24 23 27 29 32 32 30 26 23 21 24 25 30 35 34 32 26 24 19 15 21 21 24 26 19 22
43 43 43 44 44 44 45 45 45 43 41 37 37 36 33 29 29 27 24 24 25 23 22 25 27 29 29 26 25 23 23 27 20 20 23 25 27 24 25 19 19 20 22 26 21 21 22
43 44 44 45 45 44 44 44 43 41 40 37 36 36 33 31 30 32 29 27 26 23 21 25 27 26 27 24 24 24 24 26 25 24 24 22 21 21 23 19 16 21 25 23 24 24 21
43 43 44 44 44 44 44 44 43 42 40 37 35 36 35 33 31 34 33 31 26 26 30 30 25 28 30 26 25 27 25 25 24 20 24 22 23 20 19 18 23 25 25 27 24 22 21

GFSGBSN_sfc_dewp_114.txt.gz
Dewpoint
62 62 61 60 60 59 59 59 58 57 57 57 56 55 55 53 52 49 47 48 48 48 46 47 48 50 41 12 0 25 52 53 42 32 19 16 14 12 8 9 14 18 12 15 20 18 16
60 61 61 61 60 60 60 59 58 57 57 56 56 55 55 54 52 49 47 48 48 48 46 46 47 50 32 12 14 24 35 41 32 26 20 19 16 16 15 15 16 17 20 17 14 14 12
59 59 61 60 60 60 59 59 58 58 57 57 56 55 55 54 52 49 48 48 48 47 45 46 47 43 32 16 22 29 32 28 26 25 22 24 23 20 15 13 15 14 12 9 9 7 11
57 59 59 59 59 59 59 59 58 58 57 57 57 55 54 53 52 49 48 48 47 46 46 48 46 42 21 23 28 29 22 28 29 26 23 20 20 20 19 20 18 16 14 5 10 14 12
57 57 58 58 58 59 58 58 58 58 58 57 57 55 54 53 51 49 47 46 45 47 48 48 44 40 17 32 27 30 25 19 24 25 26 19 21 22 21 18 12 14 -2 0 2 10 11
57 57 57 58 58 58 59 58 58 57 57 57 56 55 54 52 50 48 45 44 43 47 45 43 41 33 23 8 29 23 37 27 21 21 20 21 20 18 17 14 1 1 3 3 4 5 11
56 57 57 57 57 58 59 59 58 57 57 57 56 55 53 51 48 46 40 34 31 33 38 26 20 18 17 31 31 17 22 20 20 20 17 19 15 13 12 14 13 11 10 7 6 10 12
54 55 57 57 57 57 58 59 58 57 57 57 56 55 53 50 47 46 36 30 24 29 27 25 24 24 25 33 23 18 21 16 18 14 16 18 14 14 15 14 13 12 9 8 9 12 10
52 53 53 55 56 56 57 57 57 57 56 56 55 53 51 48 46 39 32 31 34 31 22 19 14 16 20 28 13 13 18 14 14 10 12 12 7 14 14 11 12 12 11 10 7 3 2
52 52 52 52 53 55 56 56 57 57 56 55 54 52 49 46 42 34 26 34 37 39 23 26 8 12 19 19 14 14 13 12 10 7 8 12 10 13 13 11 10 8 7 5 4 4 -2
50 51 52 52 52 53 53 55 56 56 56 55 53 50 47 48 40 36 34 40 42 40 25 18 16 21 19 12 12 11 13 13 11 12 14 10 10 11 12 10 8 7 10 9 9 8 8
48 49 51 52 51 52 52 54 55 55 55 54 52 49 46 42 40 40 41 41 38 26 21 15 14 15 15 11 11 10 11 14 14 12 12 11 13 11 10 10 11 11 12 10 11 11 7
47 48 49 50 50 51 52 52 54 55 55 53 50 48 46 42 40 41 41 38 24 20 11 12 13 13 16 11 10 10 10 11 9 10 12 10 11 12 15 10 14 14 12 8 7 12 6
46 47 48 49 50 50 51 52 53 54 54 52 49 46 42 42 44 44 43 33 25 21 12 11 11 12 15 12 11 11 9 10 15 10 11 8 6 12 17 13 10 14 14 7 -4 -3 -2
46 46 47 48 49 50 50 51 52 54 52 50 46 43 43 42 44 41 34 26 25 21 12 10 11 12 12 9 10 10 10 9 10 13 10 9 5 15 18 16 14 12 13 11 11 10 10
45 46 46 47 48 49 50 51 51 52 49 47 41 40 41 44 45 40 32 27 21 11 10 8 7 11 11 10 10 10 10 10 13 15 13 13 10 10 13 17 15 13 15 17 16 14 10
44 45 45 46 47 48 49 50 51 50 47 45 40 35 39 44 44 37 28 26 17 10 11 10 9 10 10 11 10 10 6 12 16 17 17 17 15 9 15 13 10 17 17 18 18 18 16
44 44 45 45 46 48 49 50 50 48 46 44 40 30 39 44 34 34 28 23 22 11 14 13 13 12 12 13 13 12 12 12 16 21 16 19 23 15 13 16 20 16 17 20 20 18 19
44 44 45 45 46 47 48 50 50 47 46 42 35 34 42 41 30 29 25 21 16 12 13 14 15 15 18 15 16 16 17 23 25 22 18 25 20 16 16 28 26 28 23 20 26 29 23
44 45 45 46 46 47 48 49 49 46 46 42 37 31 34 37 37 29 25 21 17 18 17 19 20 20 20 18 18 17 18 24 27 26 27 29 23 22 12 9 13 18 25 27 27 25 22
44 44 45 45 46 47 48 48 47 46 46 42 39 32 32 30 31 28 26 22 16 17 19 20 21 19 17 16 17 16 19 25 25 28 26 29 21 26 25 20 20 25 26 25 26 25 24
45 45 45 45 46 47 48 48 46 46 45 41 36 29 29 30 29 29 26 21 17 20 21 18 18 19 19 16 16 18 22 23 27 25 25 27 23 28 25 24 26 28 26 27 27 23 26
44 44 45 45 46 47 47 48 46 46 44 40 36 32 31 28 28 27 26 21 22 29 24 20 21 22 21 20 23 22 24 26 27 28 30 32 29 28 23 22 26 24 24 25 25 25 26
45 45 45 45 46 47 49 46 46 45 43 38 34 33 32 26 25 21 18 21 22 25 34 25 26 25 28 32 32 31 30 28 28 27 29 32 30 29 24 26 19 26 29 25 23 24 25
48 46 46 46 48 47 46 46 44 43 42 39 35 32 31 27 23 21 20 22 23 29 30 33 28 30 33 30 28 26 29 29 29 29 30 34 32 27 24 21 23 25 26 25 25 22 23
48 48 48 48 46 46 45 45 45 42 41 39 37 38 32 31 28 24 22 24 22 25 26 30 32 35 33 30 28 26 22 24 26 30 34 35 33 29 24 18 16 23 22 25 25 23 23
46 46 46 45 45 44 44 46 45 42 41 39 40 40 34 35 28 26 23 23 24 23 21 27 30 31 31 29 28 24 23 25 22 22 26 29 31 25 23 24 21 21 23 26 23 24 24
44 44 44 44 44 44 44 45 45 43 40 38 39 39 36 36 32 30 29 27 26 23 23 28 28 28 27 26 25 25 26 27 24 23 25 25 26 25 24 23 18 23 25 25 26 26 25
43 44 44 44 44 44 44 44 43 41 39 41 36 36 38 34 31 34 34 32 26 26 29 31 28 29 32 27 27 27 26 27 26 23 25 25 26 25 23 22 24 26 27 28 26 26 26

GFSGBSN_sfc_dewp_117.txt.gz
Dewpoint
61 62 61 61 61 60 60 60 59 58 58 58 57 57 56 55 54 52 50 49 49 48 48 47 47 49 43 28 22 36 53 49 39 31 18 13 13 13 11 8 8 6 10 7 6 11 15
58 60 60 61 61 61 61 60 59 58 58 57 57 57 56 55 55 53 50 49 49 48 48 46 47 49 33 30 14 14 24 30 28 22 14 11 8 9 10 8 10 11 9 12 10 10 9
57 58 59 60 60 60 60 59 59 59 58 58 57 56 56 55 55 53 50 49 49 48 47 46 47 39 32 32 21 20 22 16 20 17 16 19 20 21 13 11 11 11 8 5 4 4 5
57 57 57 58 58 59 59 59 59 59 58 58 58 56 56 55 54 52 50 49 48 47 46 49 48 37 33 24 20 18 16 19 19 17 20 19 20 18 16 14 14 9 12 8 6 8 6
56 57 57 57 57 58 58 58 58 58 58 58 58 57 56 54 53 51 49 48 47 45 49 48 45 39 32 30 19 22 19 12 18 21 23 20 19 16 16 17 12 10 8 11 6 8 7
54 55 56 57 57 57 58 58 58 58 58 58 57 57 55 54 52 50 48 45 44 47 46 41 38 35 30 14 23 20 27 18 16 21 20 20 15 14 15 11 8 11 7 5 6 5 5
52 53 55 57 57 57 58 59 58 57 57 57 57 57 55 53 51 48 44 35 37 40 39 37 33 30 21 25 26 18 29 27 17 16 16 16 13 12 13 14 11 12 11 8 5 4 5
53 52 52 53 55 57 57 57 57 57 57 57 57 56 54 52 49 47 42 33 31 33 37 35 31 28 26 23 21 20 19 17 19 15 16 15 16 16 11 11 14 14 9 7 6 5 8
51 52 52 51 52 53 56 57 57 57 57 56 56 55 53 50 48 43 37 29 33 30 34 35 33 29 27 23 21 15 19 16 13 14 14 13 15 12 10 11 12 10 8 8 7 7 5
49 50 52 52 52 53 53 54 55 56 56 56 55 53 51 48 45 38 31 33 33 37 34 30 22 17 17 20 18 17 12 18 14 11 11 10 10 9 9 10 9 8 6 7 7 6 4
47 48 50 51 52 52 52 53 53 55 56 55 54 52 48 49 42 34 37 36 39 40 25 21 14 15 17 13 13 12 11 9 9 10 11 11 8 11 10 7 10 10 11 10 9 8 9
47 47 49 49 50 52 52 52 52 53 55 55 53 50 49 43 40 37 37 38 39 30 25 20 17 17 16 12 12 11 12 13 13 11 11 12 11 10 10 10 10 10 10 12 11 9 8
44 47 47 48 49 50 51 52 52 52 54 55 52 49 48 43 41 41 42 36 33 27 19 17 16 16 16 13 12 11 13 14 11 13 14 12 11 11 13 12 13 13 14 12 11 9 8
45 44 46 47 47 48 50 50 51 52 54 54 51 49 47 44 43 45 41 35 29 22 22 13 13 14 16 15 13 13 12 11 12 12 11 13 14 11 13 15 9 9 13 12 7 6 5
44 44 45 45 47 47 48 50 51 52 53 52 49 45 44 46 46 42 38 32 27 26 22 14 13 14 16 15 14 14 15 13 13 16 15 9 7 10 14 13 13 9 10 11 12 11 10
44 44 45 45 46 46 47 49 50 52 52 48 44 42 42 46 45 42 37 33 30 26 18 14 15 17 16 15 14 14 14 13 12 14 14 13 12 7 7 13 15 14 10 14 15 12 9
42 43 43 44 45 46 47 49 50 51 50 47 44 37 42 46 44 38 34 32 29 21 16 17 17 16 16 16 14 14 10 11 15 15 14 10 16 11 10 11 10 11 15 13 14 18 16
42 42 42 43 44 46 47 48 50 50 48 46 41 32 43 44 34 35 34 32 32 20 15 15 17 16 16 15 13 12 13 10 15 15 16 15 20 15 9 8 12 13 14 16 19 15 21
42 42 43 44 44 44 45 46 48 49 47 43 35 34 42 42 32 33 32 30 26 20 14 16 16 17 15 15 15 14 16 20 20 19 16 19 17 14 13 17 23 25 22 16 22 26 23
42 43 44 44 44 45 45 46 48 48 47 43 36 30 34 35 37 35 32 28 24 21 17 17 16 16 18 14 17 18 18 23 24 21 27 26 23 23 15 19 20 21 21 23 23 23 20
42 42 43 44 44 44 45 45 47 48 47 45 38 33 33 29 31 34 32 29 24 19 17 17 18 18 16 16 17 19 18 22 26 28 25 25 21 26 22 18 17 21 24 23 28 26 26
43 43 43 43 44 44 45 45 46 48 47 45 36 35 32 33 32 33 33 29 26 21 21 19 18 16 18 19 18 16 18 23 25 22 24 25 23 28 24 23 24 28 28 26 30 29 26
43 43 43 43 44 45 45 45 46 47 46 43 42 39 34 33 31 32 33 29 27 27 22 18 19 20 21 21 17 18 20 23 25 26 25 29 30 28 25 21 23 26 29 28 29 25 28
43 43 43 43 44 44 45 45 46 47 47 41 41 36 36 31 30 29 28 27 25 27 35 22 24 23 24 27 26 26 25 25 26 26 29 34 31 29 25 25 19 27 29 28 28 27 26
44 44 45 44 44 45 45 45 46 47 47 41 40 36 37 33 29 28 27 25 23 26 27 31 24 27 31 29 27 24 26 28 27 27 28 35 32 29 25 22 25 25 27 26 26 24 28
44 44 45 44 45 44 44 46 46 47 47 42 43 45 39 35 29 28 25 24 24 30 28 29 34 34 33 28 26 24 22 23 25 26 27 29 33 29 26 19 17 24 25 26 26 25 25
49 45 45 44 44 44 45 46 47 47 46 42 42 46 39 38 28 28 24 28 30 26 24 30 32 32 32 27 27 25 23 22 24 24 27 30 31 27 24 24 24 23 23 26 25 26 26
45 43 43 44 44 44 45 47 46 44 44 40 42 45 43 40 35 34 31 29 25 25 25 28 29 29 28 26 26 24 27 29 27 25 25 25 28 28 25 25 23 24 25 25 29 29 28
45 45 45 45 45 44 44 43 44 43 43 42 41 45 42 35 34 36 35 33 30 25 26 31 27 29 32 26 28 30 29 29 26 24 25 25 28 28 25 25 26 27 30 30 29 28 28

GFSGBSN_sfc_dewp_120.txt.gz
Dewpoint
57 58 60 60 61 61 61 60 59 59 58 58 58 58 58 57 56 55 53 50 49 49 49 48 47 48 44 36 31 39 56 50 37 32 20 14 13 13 12 12 11 9 8 8 9 9 6
57 57 58 59 59 60 61 60 60 59 58 58 58 57 57 57 56 55 53 51 49 49 49 48 47 48 35 33 21 26 28 31 28 24 17 12 8 7 9 10 9 9 8 9 8 9 5
55 57 57 57 58 59 60 60 59 59 59 58 58 58 57 57 56 55 53 51 50 49 48 47 47 41 34 35 33 24 22 15 17 19 14 14 16 18 19 16 12 12 10 9 7 5 4
56 57 57 57 57 57 58 59 59 59 59 59 59 58 57 57 55 54 52 51 50 48 48 47 50 40 34 36 25 21 20 18 17 14 15 17 19 19 16 14 11 10 12 11 11 12 6
53 55 57 57 57 57 57 57 58 59 59 58 58 57 57 55 55 53 52 50 49 48 46 49 45 41 37 32 21 20 14 12 12 18 18 15 18 17 15 11 13 17 12 12 11 9 7
52 53 55 56 56 57 57 57 57 58 58 58 58 57 56 55 54 52 50 47 47 44 45 44 40 37 37 22 19 24 20 22 11 19 19 20 18 13 12 11 9 12 12 12 12 9 7
51 53 53 54 55 57 58 57 58 57 57 57 57 57 56 55 53 51 47 41 36 42 41 39 38 35 34 32 26 22 22 23 13 15 17 19 16 13 14 16 15 14 12 11 12 13 10
48 50 52 51 51 53 55 57 57 57 57 57 57 57 56 54 52 49 44 40 38 35 37 40 38 37 35 32 28 27 21 24 24 16 15 15 16 15 17 17 15 12 12 14 13 9 9
49 49 49 51 52 52 52 54 55 56 56 57 56 56 55 53 50 47 41 38 37 36 34 36 35 33 33 31 29 26 25 19 19 19 19 19 18 18 15 12 11 12 13 13 9 8 7
48 48 50 49 50 52 53 53 53 53 56 56 56 55 52 50 47 45 41 42 39 37 34 21 26 27 31 25 23 24 24 20 19 17 16 15 15 13 13 11 11 11 11 9 8 8 6
48 48 48 49 50 51 53 52 52 52 53 56 55 52 50 51 46 42 43 40 40 42 20 15 20 18 18 21 14 14 24 15 17 19 16 14 12 10 9 10 11 9 11 11 10 10 10
46 47 48 48 49 50 52 52 52 52 52 55 53 51 50 45 44 44 40 40 41 33 22 19 17 15 17 17 13 12 12 13 12 11 10 9 9 11 10 11 10 10 10 10 11 11 10
46 46 46 47 48 49 50 51 52 51 52 53 52 51 50 44 42 42 41 40 35 29 19 17 18 18 17 15 12 12 13 12 11 13 14 13 12 11 12 11 12 11 12 12 11 13 12
44 45 46 45 46 47 48 49 51 51 51 52 52 50 52 47 43 44 40 37 30 21 22 15 16 16 17 16 14 14 13 12 14 13 12 11 12 14 14 13 12 12 11 13 7 11 12
44 45 45 46 45 45 47 48 49 51 51 52 52 48 46 47 44 42 40 33 28 23 22 19 15 14 15 16 16 15 15 14 14 14 14 15 13 10 12 13 12 13 12 10 13 11 12
42 44 44 44 44 45 46 46 48 50 51 52 46 43 43 47 47 43 38 33 29 26 27 25 18 17 16 16 16 15 15 16 16 15 16 16 15 13 13 11 12 13 13 15 14 10 9
43 43 43 44 44 44 46 46 47 49 50 49 44 39 44 47 47 40 33 34 33 31 31 21 21 17 17 16 16 16 15 13 15 15 15 12 12 11 14 12 9 12 15 14 13 12 12
42 42 42 42 43 44 45 46 47 48 49 47 42 34 44 45 34 34 34 34 34 34 32 22 20 19 18 17 17 18 16 16 14 14 14 15 18 16 15 13 10 9 10 13 19 15 13
42 42 42 42 42 43 43 44 46 48 48 45 36 35 44 42 31 32 35 34 34 30 25 18 18 19 21 18 18 18 17 22 19 17 18 17 16 14 10 14 11 9 17 18 21 25 20
43 43 43 42 42 42 43 44 45 47 48 42 36 30 33 36 37 34 35 34 31 31 27 20 17 19 20 18 18 18 16 23 24 21 26 27 21 22 14 17 20 24 30 23 22 21 19
43 43 43 43 43 42 43 44 44 46 48 44 39 33 32 28 31 33 35 31 29 31 23 20 18 19 18 19 17 17 17 25 24 28 23 23 19 24 21 16 13 18 20 18 26 23 24
43 43 43 44 43 43 43 44 44 45 47 43 35 32 32 31 31 33 34 37 30 27 23 19 19 19 20 19 17 19 20 22 25 24 24 23 20 27 23 19 20 22 24 21 27 29 29
42 43 43 43 43 43 44 44 44 45 46 42 42 37 34 32 31 32 32 33 31 32 26 21 21 21 21 18 20 22 19 20 23 23 25 27 30 23 19 22 23 23 29 30 30 27 25
41 42 43 43 43 43 44 44 44 45 45 46 41 40 37 31 30 31 30 32 31 31 36 23 24 21 23 25 24 24 21 21 21 25 26 32 30 24 23 25 18 27 28 26 27 27 30
44 42 43 43 43 43 44 44 44 45 45 45 45 41 39 34 32 30 30 32 31 32 28 29 25 27 31 26 24 21 23 23 24 27 28 34 30 27 24 20 25 24 25 26 26 26 28
44 43 43 42 43 43 43 44 44 44 45 45 48 45 43 37 32 31 31 32 31 32 26 28 34 35 34 26 26 21 19 22 22 23 25 31 32 29 24 24 20 25 25 27 28 24 28
44 44 44 43 43 43 43 43 44 44 45 45 45 46 43 41 34 34 31 32 31 28 25 31 32 32 31 27 27 22 22 24 24 23 26 27 29 26 23 23 26 24 25 26 23 26 29
43 44 44 43 43 43 43 44 44 45 44 45 44 48 45 42 36 37 34 32 29 31 30 34 30 30 30 26 24 22 27 32 27 27 25 25 25 24 24 24 22 24 24 24 30 31 31
43 44 44 44 44 43 43 44 44 44 45 47 43 48 48 42 38 39 39 37 37 34 33 34 30 30 34 26 26 33 32 30 26 24 26 26 29 29 26 26 27 29 31 31 30 31 30

GFSGBSN_sfc_dewp_123.txt.gz
Dewpoint
56 56 56 57 59 59 61 61 60 59 58 58 58 58 58 58 57 56 55 54 52 51 50 50 49 48 46 37 35 43 55 52 42 36 31 19 12 13 10 11 8 10 11 9 11 10 11
55 55 57 56 56 58 59 60 60 59 58 58 58 58 58 58 58 57 55 53 52 51 50 49 49 49 39 33 30 41 41 36 32 29 27 18 12 10 10 12 15 13 12 12 10 8 8
56 55 57 57 57 57 58 59 59 59 59 59 58 58 58 58 58 57 56 53 52 51 50 49 48 44 35 34 37 32 23 19 17 16 18 19 19 22 20 16 18 13 10 10 11 11 9
55 56 57 56 57 56 56 57 58 59 59 59 59 58 57 57 57 56 55 53 52 50 50 48 50 44 34 38 35 23 20 21 21 20 16 17 19 19 22 18 15 11 13 10 11 11 12
53 54 55 56 56 56 56 57 57 58 58 59 58 58 57 56 56 55 54 52 51 51 49 49 45 42 38 39 26 27 13 17 17 18 19 15 21 22 19 15 12 14 14 14 15 15 8
50 53 54 55 55 55 56 57 56 57 57 57 58 57 57 56 55 54 53 50 49 47 42 39 43 39 39 32 25 26 22 21 21 19 22 21 20 16 14 12 9 11 13 13 12 13 14
49 50 51 53 54 54 55 57 57 56 57 57 57 57 57 56 55 52 49 45 38 40 37 40 39 36 37 37 26 25 25 23 24 15 19 21 18 17 14 14 13 13 15 12 12 15 13
50 49 49 50 53 52 52 54 56 56 56 57 56 56 57 55 53 51 47 44 40 36 35 41 40 39 39 39 35 30 28 25 26 16 14 17 17 18 18 17 17 19 14 12 13 15 13
49 49 48 48 50 52 52 52 53 53 55 56 56 56 56 54 52 48 44 44 38 37 33 36 39 39 40 39 35 32 28 25 22 21 21 18 18 20 18 17 16 14 12 12 11 12 9
49 49 46 47 49 50 51 53 53 52 52 55 55 55 53 51 48 46 44 45 42 38 33 30 30 33 35 32 29 26 30 26 21 18 19 19 20 19 16 14 13 10 14 13 12 11 9
47 48 49 48 49 50 51 52 52 52 51 52 55 53 51 51 46 44 44 44 41 42 21 21 18 23 27 27 18 18 24 25 23 19 20 19 17 15 13 13 12 13 17 14 13 10 10
47 47 47 48 48 49 51 51 52 52 51 52 54 52 51 48 46 45 45 41 41 32 24 21 17 17 19 22 19 13 19 15 15 15 18 16 12 10 12 14 16 14 13 15 14 12 9
46 46 46 46 47 47 49 50 51 51 51 51 53 52 51 44 43 41 40 41 34 28 23 17 18 17 18 17 19 15 13 13 10 12 15 14 13 12 11 13 15 14 12 14 14 14 11
46 46 46 46 46 46 47 48 50 51 51 50 53 51 51 48 46 42 42 38 29 26 23 25 21 19 18 18 16 15 14 14 13 13 14 14 13 14 16 14 13 15 14 16 11 11 10
45 45 45 45 46 46 46 47 48 49 51 50 52 50 47 50 48 45 41 32 28 25 25 22 21 17 18 19 20 16 15 14 15 15 16 14 14 15 13 14 15 18 13 16 16 12 11
43 44 44 44 45 46 46 46 46 48 49 50 47 44 43 48 49 44 38 32 32 29 26 26 25 22 17 16 17 17 17 20 17 22 21 21 16 17 16 17 16 14 15 15 19 12 9
44 43 43 44 44 45 45 45 46 47 49 49 44 40 44 48 47 39 32 34 32 32 30 28 27 24 19 19 18 18 19 18 21 19 16 14 16 16 17 17 14 16 17 17 17 15 12
43 43 43 43 43 43 44 44 45 46 48 47 43 35 45 46 34 34 33 36 35 31 33 32 34 25 24 24 21 22 21 23 18 20 15 21 21 17 16 17 16 14 14 19 16 13 16
42 43 43 43 43 43 43 44 45 46 47 45 38 35 44 43 31 30 33 34 35 33 32 36 33 24 23 22 20 22 25 27 25 21 21 22 18 16 16 19 22 25 28 28 27 24 18
41 42 42 42 43 43 43 43 44 45 47 44 35 29 34 37 36 33 30 32 33 35 34 36 30 22 22 23 24 21 24 28 28 26 31 28 23 20 14 17 20 19 19 24 29 25 19
41 41 42 42 43 42 42 43 44 44 45 44 38 32 32 27 31 34 34 32 32 34 32 33 32 22 22 20 21 19 24 26 27 31 25 24 19 19 21 21 18 20 18 18 21 22 20
41 41 41 43 43 43 42 43 43 43 44 42 35 34 31 31 31 34 35 35 33 34 33 26 26 22 21 21 21 19 21 26 24 26 25 25 20 19 15 21 22 21 22 21 21 23 23
41 41 41 42 43 44 43 42 43 43 44 40 42 35 31 31 30 31 30 31 34 34 35 28 27 23 23 23 23 23 23 23 28 26 26 23 21 16 16 22 25 19 20 23 23 26 27
40 41 41 42 43 44 43 43 43 43 44 42 41 35 35 28 29 30 30 32 33 36 30 33 27 26 27 27 26 26 24 22 26 26 28 25 22 23 19 22 17 20 29 28 28 28 27
41 41 42 42 42 43 43 43 43 43 44 41 44 39 35 30 30 30 30 30 32 35 35 33 28 30 29 26 27 23 24 24 25 26 30 30 26 20 19 20 22 25 26 27 25 26 27
41 41 41 42 42 42 43 43 43 43 44 42 41 44 39 32 30 31 30 31 30 33 32 34 35 34 30 27 27 21 21 24 22 24 29 30 29 23 24 22 19 26 26 28 29 22 30
43 42 42 41 41 42 43 43 43 43 43 43 41 43 41 37 36 35 31 30 35 32 29 31 32 31 31 28 26 24 23 23 23 23 26 28 28 24 22 22 24 26 27 29 22 21 29
43 43 43 44 43 41 43 43 43 43 43 43 40 46 43 36 37 40 39 33 35 30 27 32 30 30 30 27 26 25 25 26 30 30 26 25 23 23 24 23 20 28 26 25 27 30 30
43 44 44 43 42 41 43 43 43 43 44 44 39 45 48 39 37 41 41 39 37 32 35 32 31 31 33 28 27 28 28 29 29 28 28 25 26 24 26 23 27 29 28 31 31 30 28